[[{"header":{"parameterUnit":"m.s-1","parameterCategory":1,"la1":31.0,"la2":29.5877,"lo1":-88.7671,"lo2":-86.6584,"dy":0.0162,"dx":0.0185,"nx":115,"ny":88,"refTime":"2023-06-25T00:00:00:Z","depth":0,"parameterNumber":2,"parameterNumberName":"U-component_of_WINDS"},"data":[0.0,0.0,0.0,0.0,0.0,0.0,0.0,0.0,0.0,0.0,0.0,0.0,0.0,0.0,0.0,0.0,0.0,0.0,0.0,0.0,0.0,0.0,0.0,0.0,0.0,0.0,0.0,0.0,0.0,0.0,0.0,0.0,0.0,0.0,0.0,0.0,0.0,0.0,0.0,0.0,0.0,0.0,0.0,0.0,0.0,0.0,0.0,0.0,0.0,0.0,0.0,0.0,0.0,0.0,0.0,0.0,0.0,0.0,0.0,0.0,0.0,0.0,0.0,0.0,0.0,0.0,0.0,0.0,0.0,0.0,0.0,0.0,0.0,0.0,0.0,0.0,0.0,0.0,0.0,0.0,0.0,0.0,0.0,0.0,0.0,0.0,0.0,0.0,0.0,0.0,0.0,0.0,0.0,0.0,0.0,0.0,0.0,0.0,0.0,0.0,0.0,0.0,0.0,0.0,0.0,0.0,0.0,0.0,0.0,0.0,0.0,0.0,0.0,0.0,0.0,0.0,0.0,0.0,0.0,0.0,0.0,0.0,0.0,0.0,0.0,0.0,0.0,0.0,0.0,0.0,0.0,0.0,0.0,0.0,0.0,0.0,0.0,0.0,0.0,0.0,0.0,0.0,0.0,0.0,0.0,0.0,0.0,0.0,0.0,0.0,0.0,0.0,0.0,0.0,0.0,0.0,0.0,0.0,0.0,0.0,0.0,0.0,0.0,0.0,0.0,0.0,0.0,0.0,0.0,0.0,0.0,0.0,0.0,0.0,0.0,0.0,0.0,0.0,0.0,0.0,0.0,0.0,0.0,0.0,0.0,0.0,0.0,0.0,0.0,0.0,0.0,0.0,0.0,0.0,0.0,0.0,0.0,0.0,0.0,0.0,0.0,0.0,0.0,0.0,0.0,0.0,0.0,0.0,0.0,0.0,0.0,0.0,0.0,0.0,0.0,0.0,0.0,0.0,0.0,0.0,0.0,0.0,0.0,0.0,0.0,0.0,0.0,0.0,0.0,0.0,0.0,0.0,0.0,0.0,0.0,0.0,0.0,0.0,0.0,0.0,0.0,0.0,0.0,0.0,0.0,0.0,0.0,0.0,0.0,0.0,0.0,0.0,0.0,0.0,0.0,0.0,0.0,0.0,0.0,0.0,0.0,0.0,0.0,0.0,0.0,0.0,0.0,0.0,0.0,0.0,0.0,0.0,0.0,0.0,0.0,0.0,0.0,0.0,0.0,0.0,0.0,0.0,0.0,0.0,0.0,0.0,0.0,0.0,0.0,0.0,0.0,0.0,0.0,0.0,0.0,0.0,0.0,0.0,0.0,0.0,0.0,0.0,0.0,0.0,0.0,0.0,0.0,0.0,0.0,0.0,0.0,0.0,0.0,0.0,0.0,0.0,0.0,0.0,0.0,0.0,0.0,0.0,0.0,0.0,0.0,0.0,0.0,0.0,0.0,0.0,0.0,0.0,0.0,0.0,0.0,0.0,0.0,0.0,0.0,0.0,0.0,0.0,0.0,0.0,0.0,0.0,0.0,0.0,0.0,0.0,0.0,0.0,0.0,0.0,0.0,0.0,0.0,0.0,0.0,0.0,0.0,0.0,0.0,0.0,0.0,0.0,0.0,0.0,0.0,0.0,0.0,0.0,0.0,0.0,0.0,0.0,0.0,0.0,0.0,0.0,0.0,0.0,0.0,0.0,0.0,0.0,0.0,0.0,0.0,0.0,0.0,0.0,0.0,0.0,0.0,0.0,0.0,0.0,0.0,0.0,0.0,0.0,0.0,0.0,0.0,0.0,0.0,0.0,0.0,0.0,0.0,0.0,0.0,0.0,0.0,0.0,0.0,0.0,0.0,0.0,0.0,0.0,0.0,0.0,0.0,0.0,0.0,0.0,0.0,0.0,0.0,0.0,0.0,0.0,0.0,0.0,0.0,0.0,0.0,0.0,0.0,0.0,0.0,0.0,0.0,0.0,0.0,0.0,0.0,0.0,0.0,0.0,0.0,0.0,0.0,0.0,0.0,0.0,0.0,0.0,0.0,0.0,0.0,0.0,0.0,0.0,0.0,0.0,0.0,0.0,0.0,0.0,0.0,0.0,0.0,0.0,0.0,0.0,0.0,0.0,0.0,0.0,0.0,0.0,0.0,0.0,0.0,0.0,0.0,0.0,0.0,0.0,0.0,0.0,0.0,0.0,0.0,0.0,0.0,0.0,0.0,0.0,0.0,0.0,0.0,0.0,0.0,0.0,0.0,0.0,0.0,0.0,0.0,0.0,0.0,0.0,0.0,0.0,0.0,0.0,0.0,0.0,0.0,0.0,0.0,0.0,0.0,0.0,0.0,0.0,0.0,0.0,0.0,0.0,0.0,0.0,0.0,0.0,0.0,0.0,0.0,0.0,0.0,0.0,0.0,0.0,0.0,0.0,0.0,0.0,0.0,0.0,0.0,0.0,0.0,0.0,0.0,0.0,0.0,0.0,0.0,0.0,0.0,0.0,0.0,0.0,0.0,0.0,0.0,0.0,0.0,0.0,0.0,0.0,0.0,0.0,0.0,0.0,0.0,0.0,0.0,0.0,0.0,0.0,0.0,0.0,0.0,0.0,0.0,0.0,0.0,0.0,0.0,0.0,0.0,0.0,0.0,0.0,0.0,0.0,0.0,0.0,0.0,0.0,0.0,0.0,0.0,0.0,0.0,0.0,0.0,0.0,0.0,0.0,0.0,0.0,0.0,0.0,0.0,0.0,0.0,0.0,0.0,0.0,0.0,0.0,0.0,0.0,0.0,0.0,0.0,0.0,0.0,0.0,0.0,0.0,0.0,0.0,0.0,0.0,0.0,0.0,0.0,0.0,0.0,0.0,0.0,0.0,0.0,0.0,0.0,0.0,0.0,0.0,0.0,0.0,0.0,0.0,0.0,0.0,0.0,0.0,0.0,0.0,0.0,0.0,0.0,0.0,0.0,0.0,0.0,0.0,0.0,0.0,0.0,0.0,0.0,0.0,0.0,0.0,0.0,0.0,0.0,0.0,0.0,0.0,0.0,0.0,0.0,0.0,0.0,0.0,0.0,0.0,0.0,0.0,0.0,0.0,0.0,0.0,0.0,0.0,0.0,0.0,0.0,0.0,0.0,0.0,0.0,0.0,0.0,0.0,0.0,0.0,0.0,0.0,0.0,0.0,0.0,0.0,0.0,0.0,0.0,0.0,0.0,0.0,0.0,0.0,0.0,0.0,0.0,0.0,0.0,0.0,0.0,0.0,0.0,0.0,0.0,0.0,0.0,0.0,0.0,0.0,0.0,0.0,0.0,0.0,0.0,0.0,0.0,0.0,0.0,0.0,0.0,0.0,0.0,0.0,0.0,0.0,0.0,0.0,0.0,0.0,0.0,0.0,0.0,0.0,0.0,0.0,0.0,0.0,0.0,0.0,0.0,0.0,0.0,0.0,0.0,0.0,0.0,0.0,0.0,0.0,0.0,0.0,0.0,0.0,0.0,0.0,0.0,0.0,0.0,0.0,0.0,0.0,0.0,0.0,0.0,0.0,0.0,0.0,0.0,0.0,0.0,0.0,0.0,0.0,0.0,0.0,0.0,0.0,0.0,0.0,0.0,0.0,0.0,0.0,0.0,0.0,0.0,0.0,0.0,0.0,0.0,0.0,0.0,0.0,0.0,0.0,0.0,0.0,0.0,0.0,0.0,0.0,0.0,0.0,0.0,0.0,0.0,0.0,0.0,0.0,0.0,0.0,0.0,0.0,0.0,0.0,0.0,0.0,0.0,0.0,0.0,0.0,0.0,0.0,0.0,0.0,0.0,0.0,0.0,0.0,0.0,0.0,0.0,0.0,0.0,0.0,0.0,0.0,0.0,0.0,0.0,0.0,0.0,0.0,0.0,0.0,0.0,0.0,0.0,0.0,0.0,0.0,0.0,0.0,0.0,0.0,0.0,0.0,0.0,0.0,0.0,0.0,0.0,0.0,0.0,0.0,0.0,0.0,0.0,0.0,0.0,0.0,0.0,0.0,0.0,0.0,0.0,0.0,0.0,0.0,0.0,0.0,0.0,0.0,0.0,0.0,0.0,0.0,0.0,0.0,0.0,0.0,0.0,0.0,0.0,0.0,0.0,0.0,0.0,0.0,0.0,0.0,0.0,0.0,0.0,0.0,0.0,0.0,0.0,0.0,0.0,0.0,0.0,0.0,0.0,0.0,0.0,0.0,0.0,0.0,0.0,0.0,0.0,0.0,0.0,0.0,0.0,0.0,0.0,0.0,0.0,0.0,-3.608,0.0,0.0,0.0,0.0,0.0,0.0,0.0,0.0,0.0,0.0,0.0,0.0,0.0,0.0,0.0,0.0,0.0,0.0,0.0,0.0,0.0,0.0,0.0,0.0,0.0,0.0,0.0,0.0,0.0,0.0,0.0,0.0,0.0,0.0,0.0,0.0,0.0,0.0,0.0,0.0,0.0,0.0,0.0,0.0,0.0,0.0,0.0,0.0,0.0,0.0,0.0,0.0,0.0,0.0,0.0,0.0,0.0,0.0,0.0,0.0,0.0,0.0,0.0,0.0,0.0,0.0,0.0,0.0,0.0,0.0,0.0,0.0,0.0,0.0,0.0,0.0,0.0,0.0,0.0,0.0,0.0,0.0,0.0,0.0,0.0,0.0,0.0,0.0,0.0,0.0,0.0,0.0,0.0,0.0,0.0,0.0,0.0,0.0,0.0,0.0,0.0,0.0,0.0,0.0,0.0,0.0,0.0,0.0,0.0,0.0,-3.7717,-3.7337,-3.8289,-3.8148,-3.6694,0.0,0.0,0.0,0.0,0.0,0.0,0.0,0.0,0.0,0.0,0.0,0.0,0.0,0.0,0.0,0.0,0.0,0.0,0.0,0.0,0.0,0.0,0.0,0.0,0.0,0.0,0.0,0.0,0.0,0.0,0.0,0.0,0.0,0.0,0.0,0.0,0.0,0.0,0.0,0.0,0.0,0.0,0.0,0.0,0.0,0.0,0.0,0.0,0.0,0.0,0.0,0.0,0.0,0.0,0.0,0.0,0.0,0.0,0.0,0.0,0.0,0.0,0.0,0.0,0.0,0.0,0.0,0.0,0.0,0.0,0.0,0.0,0.0,0.0,0.0,0.0,0.0,0.0,0.0,0.0,0.0,0.0,0.0,0.0,0.0,0.0,0.0,0.0,0.0,0.0,0.0,0.0,0.0,0.0,0.0,0.0,0.0,0.0,0.0,0.0,0.0,0.0,0.0,0.0,0.0,0.0,0.0,0.0,0.0,0.0,0.0,0.0,-3.9814,-3.9399,-3.7472,0.0,0.0,0.0,0.0,0.0,0.0,0.0,0.0,0.0,0.0,0.0,0.0,0.0,0.0,0.0,0.0,0.0,0.0,0.0,0.0,0.0,0.0,0.0,0.0,0.0,0.0,0.0,0.0,0.0,0.0,0.0,0.0,0.0,0.0,0.0,0.0,0.0,0.0,0.0,0.0,0.0,0.0,0.0,0.0,0.0,0.0,0.0,0.0,0.0,0.0,0.0,0.0,0.0,0.0,0.0,0.0,0.0,0.0,0.0,0.0,0.0,0.0,0.0,0.0,0.0,0.0,0.0,0.0,0.0,0.0,0.0,0.0,0.0,0.0,0.0,0.0,0.0,0.0,0.0,0.0,0.0,0.0,0.0,0.0,0.0,0.0,0.0,0.0,0.0,0.0,0.0,0.0,0.0,0.0,0.0,0.0,0.0,0.0,0.0,0.0,0.0,0.0,0.0,0.0,0.0,0.0,0.0,0.0,0.0,0.0,-3.9206,-4.1557,-4.1374,0.0,-3.7854,0.0,0.0,0.0,0.0,0.0,0.0,0.0,0.0,0.0,0.0,0.0,0.0,0.0,0.0,0.0,0.0,0.0,0.0,0.0,0.0,0.0,0.0,0.0,0.0,0.0,0.0,0.0,0.0,0.0,0.0,0.0,0.0,0.0,0.0,0.0,0.0,0.0,0.0,0.0,0.0,0.0,0.0,0.0,0.0,0.0,0.0,0.0,0.0,0.0,0.0,0.0,0.0,0.0,0.0,0.0,0.0,0.0,0.0,0.0,0.0,0.0,0.0,0.0,0.0,0.0,0.0,0.0,0.0,0.0,0.0,0.0,0.0,0.0,0.0,0.0,0.0,0.0,0.0,0.0,0.0,0.0,0.0,0.0,0.0,0.0,0.0,0.0,0.0,0.0,0.0,0.0,0.0,0.0,0.0,0.0,0.0,0.0,0.0,0.0,0.0,0.0,0.0,0.0,0.0,0.0,0.0,0.0,0.0,0.0,0.0,-3.9445,-4.1986,-4.1154,-3.9738,0.0,0.0,0.0,0.0,0.0,0.0,0.0,0.0,0.0,0.0,0.0,0.0,0.0,0.0,0.0,0.0,0.0,0.0,0.0,0.0,0.0,0.0,0.0,0.0,0.0,0.0,0.0,0.0,0.0,0.0,0.0,0.0,0.0,0.0,0.0,0.0,0.0,0.0,0.0,0.0,0.0,0.0,0.0,0.0,0.0,0.0,0.0,0.0,0.0,0.0,0.0,0.0,0.0,0.0,0.0,0.0,0.0,0.0,0.0,0.0,0.0,0.0,0.0,0.0,0.0,0.0,0.0,0.0,0.0,0.0,0.0,0.0,0.0,0.0,0.0,0.0,0.0,0.0,0.0,0.0,0.0,0.0,0.0,0.0,0.0,0.0,0.0,0.0,0.0,0.0,0.0,0.0,0.0,0.0,0.0,0.0,0.0,0.0,0.0,0.0,0.0,0.0,0.0,0.0,0.0,0.0,0.0,0.0,0.0,0.0,-3.8956,-4.0315,-4.277,-4.1366,-3.9743,-3.8279,0.0,0.0,0.0,0.0,0.0,0.0,0.0,0.0,0.0,0.0,0.0,0.0,0.0,0.0,0.0,0.0,0.0,0.0,0.0,0.0,0.0,0.0,0.0,0.0,0.0,0.0,0.0,0.0,0.0,0.0,0.0,0.0,0.0,0.0,0.0,0.0,0.0,0.0,0.0,0.0,0.0,0.0,0.0,0.0,0.0,0.0,0.0,0.0,0.0,0.0,0.0,0.0,0.0,0.0,0.0,0.0,0.0,0.0,0.0,0.0,0.0,0.0,0.0,0.0,0.0,0.0,0.0,0.0,0.0,0.0,0.0,0.0,0.0,0.0,0.0,0.0,0.0,0.0,0.0,0.0,0.0,0.0,0.0,0.0,0.0,0.0,0.0,0.0,0.0,0.0,0.0,0.0,0.0,0.0,0.0,0.0,0.0,0.0,0.0,0.0,0.0,0.0,0.0,0.0,0.0,0.0,0.0,0.0,-4.2732,-4.1599,-4.2315,-4.5109,-4.2755,-4.0615,0.0,0.0,0.0,0.0,0.0,0.0,0.0,0.0,0.0,0.0,0.0,0.0,0.0,0.0,0.0,0.0,0.0,0.0,0.0,0.0,0.0,0.0,0.0,0.0,0.0,0.0,0.0,0.0,0.0,0.0,0.0,0.0,0.0,0.0,0.0,0.0,0.0,0.0,0.0,0.0,0.0,0.0,0.0,0.0,0.0,0.0,0.0,0.0,0.0,0.0,0.0,0.0,0.0,0.0,0.0,0.0,0.0,0.0,0.0,0.0,0.0,0.0,0.0,0.0,0.0,0.0,0.0,0.0,0.0,0.0,0.0,0.0,0.0,0.0,0.0,0.0,0.0,0.0,0.0,0.0,0.0,0.0,0.0,0.0,0.0,0.0,0.0,0.0,0.0,0.0,0.0,0.0,0.0,0.0,0.0,0.0,0.0,0.0,0.0,0.0,0.0,0.0,0.0,0.0,0.0,0.0,0.0,0.0,0.0,-4.0014,-4.1719,-4.3296,-4.4665,-4.2633,-4.1296,0.0,0.0,0.0,0.0,0.0,0.0,0.0,0.0,0.0,0.0,0.0,0.0,0.0,0.0,0.0,0.0,0.0,0.0,0.0,0.0,0.0,0.0,0.0,0.0,0.0,0.0,0.0,0.0,0.0,0.0,0.0,0.0,0.0,0.0,0.0,0.0,0.0,0.0,0.0,0.0,0.0,0.0,0.0,0.0,0.0,0.0,0.0,0.0,0.0,0.0,0.0,0.0,0.0,0.0,0.0,0.0,0.0,0.0,0.0,0.0,0.0,0.0,0.0,0.0,0.0,0.0,0.0,0.0,0.0,0.0,0.0,0.0,0.0,0.0,0.0,0.0,0.0,0.0,0.0,0.0,0.0,0.0,0.0,0.0,0.0,0.0,0.0,0.0,0.0,0.0,0.0,0.0,0.0,0.0,0.0,0.0,0.0,0.0,0.0,0.0,0.0,0.0,0.0,0.0,0.0,0.0,0.0,0.0,0.0,-3.9936,0.0,-4.5073,-4.4813,-4.3236,-4.1836,0.0,0.0,0.0,0.0,0.0,0.0,0.0,0.0,0.0,0.0,0.0,0.0,0.0,0.0,0.0,0.0,0.0,0.0,0.0,0.0,0.0,0.0,0.0,0.0,0.0,0.0,0.0,0.0,0.0,0.0,0.0,0.0,0.0,0.0,0.0,0.0,0.0,0.0,0.0,0.0,0.0,0.0,0.0,0.0,0.0,0.0,0.0,0.0,0.0,0.0,0.0,0.0,0.0,0.0,0.0,0.0,0.0,0.0,0.0,0.0,0.0,0.0,0.0,0.0,0.0,0.0,0.0,0.0,0.0,0.0,0.0,0.0,0.0,0.0,0.0,0.0,0.0,0.0,0.0,0.0,0.0,0.0,0.0,0.0,0.0,0.0,0.0,0.0,0.0,0.0,0.0,0.0,0.0,0.0,0.0,0.0,0.0,0.0,0.0,0.0,0.0,0.0,0.0,0.0,0.0,0.0,0.0,0.0,-3.7814,-4.3218,-4.6649,-4.7501,-4.588,-4.471,-4.2297,0.0,0.0,0.0,0.0,0.0,0.0,0.0,0.0,0.0,0.0,0.0,0.0,0.0,0.0,0.0,0.0,0.0,0.0,0.0,0.0,0.0,0.0,0.0,0.0,0.0,0.0,0.0,0.0,0.0,0.0,0.0,0.0,0.0,0.0,0.0,0.0,0.0,0.0,0.0,0.0,0.0,0.0,0.0,0.0,0.0,0.0,0.0,0.0,0.0,0.0,0.0,0.0,0.0,0.0,0.0,0.0,0.0,0.0,0.0,0.0,0.0,0.0,0.0,0.0,0.0,0.0,0.0,0.0,0.0,0.0,0.0,0.0,0.0,0.0,0.0,0.0,0.0,0.0,0.0,0.0,0.0,0.0,0.0,0.0,0.0,0.0,0.0,0.0,0.0,0.0,0.0,0.0,0.0,0.0,0.0,0.0,0.0,0.0,0.0,0.0,0.0,0.0,0.0,0.0,0.0,0.0,0.0,0.0,0.0,-4.1673,-4.4971,-4.721,-4.8056,-4.503,-4.3326,0.0,0.0,0.0,0.0,0.0,0.0,0.0,0.0,0.0,0.0,0.0,0.0,0.0,0.0,0.0,0.0,0.0,0.0,0.0,0.0,0.0,0.0,0.0,0.0,0.0,0.0,0.0,0.0,0.0,0.0,0.0,0.0,0.0,0.0,0.0,0.0,0.0,0.0,0.0,0.0,0.0,0.0,0.0,0.0,0.0,0.0,0.0,0.0,0.0,0.0,0.0,0.0,0.0,0.0,0.0,0.0,0.0,0.0,0.0,0.0,0.0,0.0,0.0,0.0,0.0,0.0,0.0,0.0,0.0,0.0,0.0,0.0,0.0,0.0,0.0,0.0,0.0,0.0,0.0,0.0,0.0,0.0,0.0,0.0,0.0,0.0,0.0,0.0,0.0,0.0,0.0,0.0,0.0,0.0,0.0,0.0,0.0,0.0,0.0,0.0,0.0,0.0,0.0,0.0,0.0,0.0,0.0,0.0,0.0,-4.4085,-4.7381,-4.9351,-4.9759,-4.6876,-4.501,-4.4293,0.0,0.0,0.0,0.0,0.0,0.0,0.0,0.0,0.0,0.0,0.0,0.0,0.0,0.0,0.0,0.0,0.0,0.0,0.0,0.0,0.0,0.0,0.0,0.0,0.0,0.0,0.0,0.0,0.0,0.0,0.0,0.0,0.0,0.0,0.0,0.0,0.0,0.0,0.0,0.0,0.0,0.0,0.0,0.0,0.0,0.0,0.0,0.0,0.0,0.0,0.0,0.0,0.0,0.0,0.0,0.0,0.0,0.0,0.0,0.0,0.0,0.0,0.0,0.0,0.0,0.0,0.0,0.0,0.0,0.0,0.0,0.0,0.0,0.0,0.0,0.0,0.0,0.0,0.0,0.0,0.0,0.0,0.0,0.0,0.0,0.0,0.0,0.0,0.0,0.0,0.0,0.0,0.0,0.0,0.0,0.0,0.0,0.0,0.0,0.0,0.0,0.0,0.0,0.0,0.0,0.0,0.0,0.0,-4.9393,-5.3107,-5.3742,-5.1183,-4.9933,-4.7178,0.0,0.0,0.0,0.0,0.0,0.0,0.0,0.0,0.0,0.0,0.0,0.0,0.0,0.0,0.0,0.0,0.0,0.0,0.0,0.0,0.0,0.0,0.0,0.0,0.0,0.0,0.0,0.0,0.0,0.0,0.0,0.0,0.0,0.0,0.0,0.0,0.0,0.0,0.0,0.0,0.0,0.0,0.0,0.0,0.0,0.0,0.0,0.0,0.0,0.0,0.0,0.0,0.0,0.0,0.0,0.0,0.0,0.0,0.0,0.0,0.0,0.0,0.0,0.0,0.0,0.0,0.0,0.0,0.0,0.0,0.0,0.0,0.0,0.0,0.0,0.0,0.0,0.0,0.0,0.0,0.0,0.0,0.0,0.0,0.0,0.0,0.0,0.0,0.0,0.0,0.0,0.0,0.0,0.0,0.0,0.0,0.0,0.0,0.0,0.0,0.0,0.0,0.0,0.0,0.0,0.0,0.0,0.0,0.0,-5.1219,-5.6458,-5.8248,-5.6176,-5.1696,-4.8468,0.0,0.0,0.0,0.0,0.0,0.0,0.0,0.0,0.0,0.0,0.0,0.0,0.0,0.0,0.0,0.0,0.0,0.0,0.0,0.0,0.0,0.0,0.0,0.0,0.0,0.0,0.0,0.0,0.0,0.0,0.0,0.0,0.0,0.0,0.0,0.0,0.0,0.0,0.0,0.0,0.0,0.0,0.0,0.0,0.0,0.0,0.0,0.0,0.0,0.0,0.0,0.0,0.0,0.0,0.0,0.0,0.0,0.0,0.0,0.0,0.0,0.0,0.0,0.0,0.0,0.0,0.0,0.0,0.0,0.0,0.0,0.0,0.0,0.0,0.0,0.0,0.0,0.0,0.0,0.0,0.0,0.0,0.0,0.0,0.0,0.0,0.0,0.0,0.0,0.0,0.0,0.0,0.0,0.0,0.0,0.0,0.0,0.0,0.0,0.0,0.0,0.0,0.0,0.0,0.0,0.0,0.0,0.0,-4.9382,-5.3423,-5.8969,-6.1261,-6.0066,-5.5369,-5.1414,0.0,0.0,0.0,0.0,0.0,0.0,0.0,0.0,0.0,0.0,0.0,0.0,0.0,0.0,0.0,0.0,0.0,0.0,0.0,0.0,0.0,0.0,0.0,0.0,0.0,0.0,0.0,0.0,0.0,0.0,0.0,0.0,0.0,0.0,0.0,0.0,0.0,0.0,0.0,0.0,0.0,0.0,0.0,0.0,0.0,0.0,0.0,0.0,0.0,0.0,0.0,0.0,0.0,0.0,0.0,0.0,0.0,0.0,0.0,0.0,0.0,0.0,0.0,0.0,0.0,0.0,0.0,0.0,0.0,0.0,0.0,0.0,0.0,0.0,0.0,0.0,0.0,0.0,0.0,0.0,0.0,0.0,0.0,0.0,0.0,0.0,0.0,0.0,0.0,0.0,0.0,0.0,0.0,0.0,0.0,0.0,0.0,0.0,0.0,0.0,0.0,0.0,0.0,0.0,0.0,0.0,0.0,0.0,-5.1939,-5.5547,-6.0493,-6.2943,-6.2525,-5.9283,-5.4721,0.0,0.0,0.0,0.0,0.0,0.0,0.0,0.0,0.0,0.0,0.0,0.0,0.0,0.0,0.0,0.0,0.0,0.0,0.0,0.0,0.0,0.0,0.0,0.0,0.0,0.0,0.0,0.0,0.0,0.0,0.0,0.0,0.0,0.0,0.0,0.0,0.0,0.0,0.0,0.0,0.0,0.0,0.0,0.0,0.0,0.0,0.0,0.0,0.0,0.0,0.0,0.0,0.0,0.0,0.0,0.0,0.0,0.0,0.0,0.0,0.0,0.0,0.0,0.0,0.0,0.0,0.0,0.0,0.0,0.0,0.0,0.0,0.0,0.0,0.0,0.0,0.0,0.0,0.0,0.0,0.0,0.0,0.0,0.0,0.0,0.0,0.0,0.0,0.0,0.0,0.0,0.0,0.0,0.0,0.0,0.0,0.0,0.0,0.0,0.0,0.0,0.0,0.0,0.0,0.0,0.0,0.0,0.0,-5.135,-5.5615,-5.9702,-6.206,-6.2544,-5.8092,-5.3831,0.0,0.0,0.0,0.0,0.0,0.0,0.0,0.0,0.0,0.0,0.0,0.0,0.0,0.0,0.0,0.0,0.0,0.0,0.0,0.0,0.0,0.0,0.0,0.0,0.0,0.0,0.0,0.0,0.0,0.0,0.0,0.0,0.0,0.0,0.0,0.0,0.0,0.0,0.0,0.0,0.0,0.0,0.0,0.0,0.0,0.0,0.0,0.0,-4.4673,0.0,0.0,0.0,0.0,0.0,0.0,0.0,0.0,0.0,0.0,0.0,0.0,0.0,0.0,0.0,0.0,0.0,0.0,0.0,0.0,0.0,0.0,0.0,0.0,0.0,0.0,0.0,0.0,0.0,0.0,0.0,0.0,0.0,0.0,0.0,0.0,0.0,0.0,0.0,0.0,0.0,0.0,0.0,0.0,0.0,0.0,0.0,0.0,0.0,0.0,0.0,0.0,0.0,0.0,0.0,0.0,0.0,0.0,0.0,-5.125,-5.554,-5.884,-6.079,-6.1196,-5.8079,-5.4581,0.0,0.0,0.0,0.0,0.0,0.0,0.0,0.0,0.0,0.0,0.0,0.0,0.0,0.0,0.0,0.0,0.0,0.0,0.0,0.0,0.0,0.0,0.0,0.0,0.0,0.0,0.0,0.0,0.0,0.0,0.0,0.0,0.0,0.0,0.0,0.0,0.0,0.0,0.0,0.0,0.0,0.0,0.0,0.0,0.0,0.0,0.0,0.0,0.0,0.0,0.0,0.0,0.0,0.0,0.0,0.0,0.0,0.0,0.0,0.0,0.0,0.0,0.0,0.0,0.0,0.0,0.0,0.0,0.0,0.0,0.0,0.0,0.0,0.0,0.0,0.0,0.0,0.0,0.0,0.0,0.0,0.0,0.0,0.0,0.0,0.0,0.0,0.0,0.0,0.0,0.0,0.0,0.0,0.0,0.0,0.0,0.0,0.0,0.0,0.0,0.0,0.0,0.0,0.0,0.0,0.0,0.0,-4.7111,-5.1362,-5.5484,-5.7962,-5.929,-5.9514,-5.825,-5.5603,-5.1416,0.0,0.0,0.0,0.0,0.0,0.0,0.0,0.0,0.0,0.0,0.0,0.0,0.0,0.0,0.0,0.0,0.0,0.0,0.0,0.0,0.0,0.0,0.0,0.0,0.0,0.0,0.0,0.0,0.0,0.0,0.0,0.0,0.0,0.0,0.0,0.0,0.0,0.0,-4.1747,-4.422,0.0,0.0,0.0,0.0,0.0,0.0,0.0,0.0,-4.606,0.0,0.0,0.0,0.0,0.0,0.0,0.0,0.0,0.0,0.0,0.0,0.0,0.0,0.0,0.0,0.0,0.0,0.0,0.0,0.0,0.0,0.0,0.0,0.0,0.0,0.0,0.0,0.0,0.0,0.0,0.0,0.0,0.0,0.0,0.0,0.0,0.0,0.0,0.0,0.0,0.0,0.0,0.0,0.0,0.0,0.0,0.0,0.0,0.0,0.0,0.0,0.0,0.0,0.0,0.0,0.0,-4.5072,-4.79,-5.1375,-5.5578,-5.7079,-5.7862,-5.7875,-5.7297,-5.4963,-5.0812,0.0,0.0,0.0,0.0,0.0,0.0,0.0,0.0,0.0,0.0,0.0,0.0,0.0,0.0,0.0,0.0,0.0,0.0,0.0,0.0,0.0,0.0,0.0,0.0,0.0,0.0,0.0,0.0,0.0,0.0,0.0,0.0,0.0,0.0,0.0,0.0,0.0,0.0,0.0,-4.757,-4.9068,0.0,0.0,0.0,0.0,0.0,0.0,0.0,0.0,-4.6031,0.0,0.0,0.0,0.0,0.0,0.0,0.0,0.0,0.0,0.0,0.0,0.0,0.0,0.0,0.0,0.0,0.0,0.0,0.0,0.0,0.0,0.0,0.0,0.0,0.0,0.0,0.0,0.0,0.0,0.0,0.0,0.0,0.0,0.0,0.0,0.0,0.0,0.0,0.0,0.0,0.0,0.0,0.0,0.0,0.0,0.0,0.0,0.0,0.0,0.0,0.0,0.0,0.0,0.0,0.0,-4.4071,-4.7203,-5.0599,-5.428,-5.5365,-5.6094,-5.6464,-5.5386,-5.3017,0.0,0.0,0.0,0.0,0.0,0.0,0.0,0.0,0.0,0.0,0.0,0.0,0.0,0.0,0.0,0.0,0.0,0.0,0.0,0.0,0.0,0.0,0.0,0.0,0.0,0.0,0.0,0.0,0.0,0.0,0.0,0.0,0.0,0.0,0.0,0.0,0.0,0.0,0.0,0.0,-4.8851,-5.0923,-5.1934,0.0,0.0,0.0,0.0,0.0,0.0,-4.7555,-4.6075,0.0,0.0,0.0,0.0,0.0,0.0,0.0,0.0,0.0,0.0,0.0,0.0,0.0,0.0,0.0,0.0,0.0,0.0,0.0,0.0,0.0,0.0,0.0,0.0,0.0,0.0,0.0,0.0,0.0,0.0,0.0,0.0,0.0,0.0,0.0,0.0,0.0,0.0,0.0,0.0,0.0,0.0,0.0,0.0,0.0,0.0,0.0,0.0,0.0,0.0,0.0,0.0,0.0,0.0,0.0,-4.2889,-4.6298,-4.9591,-5.2601,-5.3665,-5.4473,-5.5078,-5.3744,-5.1414,0.0,0.0,0.0,0.0,0.0,0.0,0.0,0.0,0.0,0.0,0.0,0.0,0.0,0.0,0.0,0.0,0.0,0.0,0.0,0.0,0.0,0.0,0.0,0.0,0.0,0.0,0.0,0.0,0.0,0.0,0.0,0.0,0.0,0.0,0.0,0.0,0.0,0.0,0.0,0.0,0.0,-5.2679,-5.3378,-5.2357,0.0,0.0,0.0,0.0,-4.8714,-4.8398,0.0,0.0,0.0,0.0,0.0,0.0,0.0,0.0,0.0,0.0,0.0,0.0,0.0,0.0,0.0,0.0,0.0,0.0,0.0,0.0,0.0,0.0,0.0,0.0,0.0,0.0,0.0,0.0,0.0,0.0,0.0,0.0,0.0,0.0,0.0,0.0,0.0,0.0,0.0,0.0,0.0,0.0,0.0,0.0,0.0,0.0,0.0,0.0,0.0,0.0,0.0,0.0,0.0,0.0,0.0,0.0,-4.3333,-4.5947,-4.8489,-5.1004,-5.2564,-5.339,-5.3482,-5.3195,-5.1663,0.0,0.0,0.0,0.0,0.0,0.0,0.0,0.0,0.0,0.0,0.0,0.0,0.0,0.0,0.0,0.0,0.0,0.0,0.0,0.0,0.0,0.0,0.0,0.0,0.0,0.0,0.0,0.0,0.0,0.0,0.0,0.0,0.0,0.0,0.0,0.0,0.0,0.0,0.0,0.0,0.0,-5.4853,-5.3345,-5.3305,-5.2842,0.0,0.0,-5.1128,-5.183,-5.2809,0.0,0.0,0.0,0.0,0.0,0.0,0.0,0.0,0.0,0.0,0.0,0.0,0.0,0.0,0.0,0.0,0.0,0.0,0.0,0.0,0.0,0.0,0.0,0.0,0.0,0.0,0.0,0.0,0.0,0.0,0.0,0.0,0.0,0.0,0.0,0.0,0.0,0.0,0.0,0.0,0.0,0.0,0.0,0.0,0.0,0.0,0.0,0.0,0.0,0.0,0.0,0.0,0.0,0.0,0.0,-4.0392,-4.2808,-4.5636,-4.8324,-5.0729,-5.194,-5.2346,-5.1952,-5.0678,-4.8786,0.0,0.0,0.0,0.0,0.0,0.0,0.0,0.0,0.0,0.0,0.0,0.0,0.0,0.0,0.0,0.0,0.0,0.0,0.0,0.0,0.0,0.0,0.0,0.0,0.0,0.0,0.0,0.0,0.0,0.0,0.0,0.0,0.0,0.0,0.0,0.0,0.0,0.0,0.0,0.0,0.0,0.0,-5.4007,-5.4051,0.0,0.0,0.0,-5.1578,-5.1194,0.0,0.0,0.0,0.0,0.0,0.0,0.0,0.0,0.0,0.0,0.0,0.0,0.0,0.0,0.0,0.0,0.0,0.0,0.0,0.0,0.0,0.0,0.0,0.0,0.0,0.0,0.0,0.0,0.0,0.0,0.0,0.0,0.0,0.0,0.0,0.0,0.0,0.0,0.0,0.0,0.0,0.0,0.0,0.0,0.0,0.0,0.0,0.0,0.0,0.0,0.0,0.0,0.0,0.0,0.0,0.0,0.0,-4.2262,-4.5119,-4.7782,-5.0159,-5.0817,-5.0926,-5.044,-4.8451,0.0,0.0,0.0,0.0,0.0,0.0,0.0,0.0,0.0,0.0,0.0,0.0,0.0,0.0,0.0,0.0,0.0,0.0,0.0,0.0,0.0,0.0,0.0,0.0,0.0,0.0,0.0,-3.3794,0.0,0.0,0.0,0.0,0.0,0.0,0.0,0.0,0.0,0.0,0.0,0.0,0.0,0.0,-5.4033,-5.4271,-5.4543,-5.4821,0.0,0.0,-5.2027,-5.1116,-5.2456,-5.1664,0.0,0.0,0.0,0.0,0.0,0.0,0.0,0.0,0.0,0.0,0.0,0.0,0.0,0.0,0.0,0.0,0.0,0.0,0.0,0.0,0.0,0.0,0.0,0.0,0.0,0.0,0.0,0.0,0.0,0.0,0.0,0.0,0.0,0.0,0.0,0.0,0.0,0.0,0.0,0.0,0.0,0.0,0.0,0.0,0.0,0.0,0.0,0.0,0.0,0.0,0.0,0.0,0.0,0.0,0.0,-4.2162,-4.4201,-4.6367,-4.8576,-4.8764,-4.8856,-4.8901,-4.7316,-4.6018,0.0,0.0,0.0,0.0,0.0,0.0,0.0,0.0,0.0,0.0,0.0,0.0,0.0,0.0,0.0,0.0,0.0,0.0,0.0,0.0,0.0,0.0,0.0,0.0,0.0,0.0,0.0,0.0,0.0,0.0,0.0,0.0,0.0,0.0,0.0,0.0,0.0,0.0,0.0,0.0,0.0,-5.3262,-5.3696,-5.4577,-5.5514,0.0,-5.4546,-5.2908,-5.3375,-5.5704,-5.4831,-4.7095,0.0,0.0,0.0,0.0,0.0,0.0,0.0,0.0,0.0,0.0,0.0,0.0,0.0,0.0,0.0,0.0,0.0,0.0,0.0,0.0,0.0,0.0,0.0,0.0,0.0,0.0,0.0,0.0,0.0,0.0,0.0,0.0,0.0,0.0,0.0,0.0,0.0,0.0,0.0,0.0,0.0,0.0,0.0,0.0,0.0,0.0,0.0,0.0,0.0,0.0,0.0,0.0,0.0,-3.9364,-4.1569,-4.3525,-4.5641,-4.7907,-4.8015,-4.7855,-4.749,-4.6204,-4.448,0.0,0.0,0.0,0.0,0.0,0.0,0.0,0.0,0.0,0.0,0.0,0.0,0.0,0.0,0.0,0.0,0.0,0.0,0.0,0.0,0.0,0.0,0.0,0.0,0.0,0.0,0.0,0.0,-3.7689,-3.843,-3.9353,0.0,0.0,0.0,0.0,0.0,0.0,0.0,0.0,0.0,0.0,-5.2735,-5.3281,-5.4259,0.0,0.0,-5.404,-5.3241,-5.2906,-5.3315,-5.1916,-4.6716,-4.4893,0.0,0.0,0.0,0.0,0.0,0.0,0.0,0.0,0.0,0.0,0.0,0.0,0.0,0.0,0.0,0.0,0.0,0.0,0.0,0.0,0.0,0.0,0.0,0.0,0.0,0.0,0.0,0.0,0.0,0.0,0.0,0.0,0.0,0.0,0.0,0.0,0.0,0.0,0.0,0.0,0.0,0.0,0.0,0.0,0.0,0.0,0.0,0.0,0.0,0.0,0.0,0.0,-3.9219,-4.147,-4.3068,-4.4982,-4.7336,-4.7178,-4.686,-4.6389,-4.4906,-4.3162,0.0,0.0,0.0,0.0,0.0,0.0,0.0,0.0,0.0,0.0,0.0,0.0,0.0,0.0,0.0,0.0,0.0,0.0,0.0,0.0,0.0,0.0,0.0,0.0,0.0,0.0,0.0,0.0,-3.9016,-3.9603,-4.0563,0.0,0.0,0.0,0.0,0.0,0.0,0.0,0.0,0.0,0.0,-5.2106,-5.2838,-5.3219,-5.333,-5.3195,-5.2295,-5.1566,-5.1288,-5.05,-4.8815,-4.5504,0.0,0.0,0.0,0.0,0.0,0.0,0.0,0.0,0.0,0.0,0.0,0.0,0.0,0.0,0.0,0.0,0.0,0.0,0.0,0.0,0.0,0.0,0.0,0.0,0.0,0.0,0.0,0.0,0.0,0.0,-3.4214,0.0,0.0,0.0,0.0,0.0,0.0,0.0,0.0,0.0,0.0,0.0,0.0,0.0,0.0,0.0,0.0,0.0,0.0,0.0,0.0,0.0,0.0,-3.8589,-4.2077,-4.2857,-4.4366,-4.6464,-4.591,-4.5576,-4.5591,-4.3542,-4.2375,-4.2379,0.0,0.0,0.0,0.0,0.0,0.0,0.0,0.0,0.0,0.0,0.0,0.0,0.0,0.0,0.0,0.0,0.0,0.0,0.0,0.0,0.0,0.0,0.0,0.0,0.0,0.0,-3.801,-3.8741,-3.9603,0.0,0.0,0.0,0.0,0.0,0.0,0.0,0.0,0.0,0.0,-4.9136,-5.1234,-5.2388,-5.1244,-5.073,-5.1732,-4.9277,-4.7556,-4.8623,-4.801,-4.6412,0.0,0.0,0.0,0.0,0.0,0.0,0.0,0.0,0.0,0.0,0.0,0.0,0.0,0.0,0.0,0.0,0.0,0.0,0.0,0.0,0.0,0.0,0.0,0.0,0.0,0.0,0.0,-3.886,-3.8753,0.0,0.0,0.0,0.0,0.0,0.0,0.0,0.0,0.0,0.0,0.0,-4.0325,-4.1095,0.0,0.0,0.0,0.0,0.0,0.0,0.0,0.0,0.0,0.0,0.0,0.0,-3.8387,-4.0044,-4.1733,-4.2978,-4.3712,-4.3985,-4.3875,-4.3436,-4.2236,-4.1171,-4.0339,0.0,0.0,0.0,0.0,0.0,0.0,0.0,0.0,0.0,0.0,0.0,0.0,0.0,0.0,0.0,0.0,0.0,0.0,0.0,0.0,0.0,0.0,0.0,0.0,0.0,-3.8248,0.0,0.0,0.0,0.0,0.0,0.0,0.0,0.0,0.0,0.0,0.0,-4.539,-4.6938,-4.8548,-4.9729,-5.0004,-4.9991,-5.0096,0.0,0.0,0.0,0.0,0.0,0.0,0.0,0.0,0.0,0.0,0.0,0.0,0.0,0.0,-4.1549,-3.9184,-3.8841,-3.8883,-3.8553,0.0,0.0,0.0,0.0,0.0,0.0,0.0,0.0,0.0,0.0,0.0,0.0,0.0,0.0,-4.0602,0.0,-4.093,0.0,0.0,0.0,0.0,0.0,0.0,0.0,0.0,-4.1526,-4.2634,-4.3064,-4.3648,-4.3812,0.0,-4.2867,-4.1035,0.0,0.0,0.0,0.0,0.0,0.0,0.0,0.0,-3.865,-3.9394,-4.1052,-4.2033,-4.2286,-4.2777,-4.2777,-4.2286,-4.1593,-4.0561,-3.9202,-3.8295,-3.7308,0.0,0.0,0.0,0.0,0.0,0.0,0.0,0.0,0.0,0.0,0.0,0.0,0.0,0.0,0.0,0.0,0.0,0.0,0.0,0.0,0.0,0.0,0.0,-3.9126,0.0,0.0,0.0,0.0,0.0,0.0,0.0,0.0,0.0,-4.2241,-4.4487,-4.6396,-4.6965,-4.8098,-4.8731,-4.8291,0.0,0.0,0.0,0.0,0.0,0.0,0.0,-4.3748,-4.3365,-4.2528,-4.243,-4.3943,-4.451,-4.4605,-4.4098,0.0,0.0,-4.0224,-3.9886,-3.989,-3.9586,-3.9763,-3.9986,-4.013,-4.0368,-4.0561,0.0,0.0,0.0,0.0,0.0,0.0,0.0,0.0,-4.2152,-4.2167,0.0,-4.1984,0.0,0.0,0.0,0.0,0.0,-3.9887,0.0,0.0,-4.4793,-4.6112,-4.5097,-4.5501,-4.572,-4.5686,-4.4942,-4.4164,-4.3284,-4.0561,0.0,0.0,0.0,0.0,0.0,0.0,-3.9343,-4.0003,-4.0798,-4.1542,-4.2168,-4.2236,-4.2236,-4.2168,-4.1525,-4.0493,-3.9123,-3.9086,-3.852,-3.7058,-3.6474,0.0,0.0,0.0,0.0,0.0,0.0,0.0,0.0,0.0,0.0,0.0,0.0,0.0,0.0,0.0,0.0,0.0,0.0,0.0,0.0,-3.9093,0.0,0.0,0.0,0.0,0.0,0.0,0.0,0.0,0.0,0.0,-4.2489,-4.562,-4.7691,-4.6608,0.0,0.0,0.0,0.0,-4.5143,-4.4909,-4.3764,-4.2996,-4.2775,-4.3298,-4.3356,-4.2054,0.0,0.0,-4.4854,-4.4685,-4.4211,-4.2664,-4.2919,-4.3269,-4.3135,-4.1948,-4.1277,-4.152,-4.098,-4.0649,-4.0913,-4.1379,-4.1758,-5.0405,0.0,0.0,0.0,0.0,-4.447,-4.5262,-4.7164,-4.6071,-4.5302,-4.4753,-4.4698,0.0,0.0,0.0,0.0,0.0,0.0,-4.204,-4.2858,-4.4517,-4.5631,-4.6316,-4.6421,-4.6481,-4.6464,-4.5737,-4.5263,-4.4959,-4.3098,-4.1238,-3.9462,0.0,0.0,0.0,0.0,-3.9089,-3.936,-4.0561,-4.1052,-4.0713,-4.1221,-4.1255,-4.073,-4.051,-4.0189,-3.9833,-3.9325,-3.8851,-3.8393,-3.698,0.0,0.0,0.0,0.0,0.0,0.0,0.0,0.0,0.0,0.0,0.0,0.0,0.0,0.0,0.0,0.0,0.0,0.0,0.0,-3.9009,-3.9076,-3.8874,0.0,0.0,0.0,0.0,0.0,0.0,0.0,0.0,0.0,-4.3551,-4.4859,-4.5781,0.0,0.0,-4.5751,-4.493,-4.5076,-4.5353,-4.5784,-4.5093,0.0,-4.5604,-4.4296,-4.332,-4.3645,-4.515,-4.6134,-4.5732,-4.5848,-4.5581,-4.4505,-4.3519,-4.2709,-4.2121,-4.2354,-4.2608,-4.2716,-4.2252,-4.1895,-4.1941,-4.1746,-4.152,-5.567,-5.2787,-4.9424,-4.8376,-4.875,-4.7753,-4.8428,-5.0068,-4.8822,-4.7903,-4.7206,-4.7165,-4.5048,-4.1612,-4.1596,0.0,0.0,0.0,-4.2838,-4.4478,-4.4902,-4.5693,-4.6735,-4.6786,-4.6786,-4.6752,-4.6058,-4.5703,-4.5686,-4.3804,-4.225,-4.0967,0.0,0.0,-3.8396,-3.9056,-3.9276,-3.9073,-4.0138,-4.0544,-4.0087,-4.0527,-4.0544,-4.0104,-4.0087,-4.0087,-4.0087,-3.9665,-3.9292,-3.8988,-3.7866,-3.6437,0.0,0.0,0.0,0.0,0.0,0.0,0.0,0.0,0.0,0.0,0.0,-3.2675,-3.2342,0.0,0.0,0.0,-3.5613,-3.7516,-3.8797,-3.8781,0.0,0.0,0.0,0.0,0.0,0.0,0.0,-4.1163,-4.246,-4.3403,-4.3655,-4.4181,-4.4732,-4.5194,-4.5169,-4.4799,-4.4098,0.0,-4.4959,-4.5369,-4.5035,-4.5018,-4.573,-4.4781,-4.427,-4.5223,-4.5561,-4.5951,-4.6294,-4.5953,-4.5406,-4.4721,-4.3138,-4.1617,-4.1145,-4.1444,-4.1983,-4.2447,-4.2237,-4.1908,-4.1639,-4.1459,-4.1235,-5.9887,-5.8702,-5.3026,-5.0905,-5.1245,-5.0964,-5.1098,-5.1412,-5.056,-4.987,-4.9419,-4.9073,-4.758,-4.5103,-4.2893,0.0,-4.2734,-4.2751,-4.3817,-4.5686,-4.5635,-4.6007,-4.6701,-4.6633,-4.6616,-4.6599,-4.5923,-4.5585,-4.5399,-4.3293,-4.2196,-4.21,-4.1441,-4.0426,-3.9191,-3.9681,-3.9698,-3.9106,-3.9681,-4.0003,-4.0087,-4.0087,-4.0087,-4.0087,-4.0087,-4.0087,-4.0087,-4.0087,-3.9783,-3.9123,-3.8857,-3.7453,-3.4693,0.0,0.0,0.0,0.0,0.0,0.0,0.0,0.0,0.0,0.0,0.0,0.0,0.0,0.0,0.0,-3.527,0.0,-3.76,-3.8292,0.0,0.0,0.0,-3.9481,-3.9677,-4.0946,-4.1816,-4.1787,0.0,0.0,-4.2992,-4.3494,-4.4222,-4.5033,-4.5252,-4.4984,-4.4198,-4.4279,-4.432,-4.4255,-4.4172,-4.4155,-4.4229,-4.4539,-4.5074,-4.5855,-4.528,-4.4891,-4.5765,-4.497,-4.3925,-4.3512,-4.1758,-4.0186,-4.0216,-3.9679,-3.9649,-4.0801,-4.1055,-4.092,-4.0397,-4.0546,-4.0502,-5.9373,-5.8996,-5.6345,-5.5035,-5.4525,-5.3888,-5.3346,-5.2881,-5.1502,-5.0604,-4.9887,-4.8663,-4.7505,-4.6367,-4.5241,-4.4795,-4.4948,-4.4948,-4.5179,-4.5669,-4.5111,-4.5246,-4.5923,-4.5365,-4.5111,-4.5094,-4.4925,-4.4553,-4.3961,-4.3365,-4.2179,-4.0542,-4.0289,-4.0036,-3.9682,-3.9295,-3.9278,-3.9682,-3.9295,-3.9412,-4.0054,-4.0087,-4.0087,-4.0087,-4.0087,-4.0087,-4.0087,-4.0087,-4.0053,-3.9817,-3.8653,-3.765,-3.6917,-3.497,0.0,0.0,0.0,0.0,0.0,0.0,0.0,0.0,0.0,-3.3787,-3.2066,0.0,-3.4422,0.0,-3.4301,-3.5916,-3.7447,-3.7806,0.0,0.0,-3.962,-4.0244,-3.9744,-4.0481,-4.1047,-4.1046,-4.1359,-4.1782,-4.2265,-4.2471,-4.2677,-4.3027,-4.3872,-4.4356,-4.4131,-4.4716,-4.4949,-4.4354,-4.4333,-4.4255,-4.3664,-4.3225,-4.3145,-4.3318,-4.3064,-4.28,-4.2599,-4.2211,-4.1525,-4.0259,-3.9579,-3.8886,-3.8292,-3.7973,-3.7988,-3.8317,-3.8751,-3.9065,-3.8886,-3.8631,-3.8272,-5.9226,-5.904,-5.7529,-5.6438,-5.5667,-5.4939,-5.4374,-5.3892,-5.2394,-5.1285,-5.0507,-4.9052,-4.8003,-4.7276,-4.687,-4.6498,-4.6177,-4.5855,-4.5703,-4.5635,-4.4553,-4.4468,-4.5162,-4.4434,-4.4248,-4.4553,-4.4215,-4.3842,-4.3386,-4.276,-4.1743,-4.0509,-4.0155,-3.9952,-3.9867,-3.8774,-3.8405,-3.8858,-3.8824,-3.9227,-4.0037,-4.0087,-3.9935,-3.9547,-3.953,-3.9176,-3.8469,-3.8452,-3.8386,-3.8254,-3.7452,-3.6653,-3.5893,-3.4607,-3.3255,0.0,0.0,0.0,0.0,0.0,0.0,0.0,0.0,0.0,0.0,0.0,-3.4426,-3.3913,-3.4565,-3.5545,-3.6961,-3.7502,-3.7929,-3.8358,-3.9516,-4.0316,-4.0337,-4.0725,-4.1121,-4.1429,-4.1476,-4.1655,-4.2142,-4.2196,-4.2179,-4.2303,-4.285,-4.3334,-4.3351,-4.3743,-4.3883,-4.3495,-4.3483,-4.3436,-4.2963,-4.2303,-4.1914,-4.2185,-4.2016,-4.1668,-4.1236,-4.0885,-4.0188,-3.895,-3.8185,-3.7542,-3.7121,-3.6746,-3.6567,-3.6611,-3.6851,-3.718,-3.7479,-3.7464,-3.73,-5.9061,-5.8941,-5.7474,-5.6421,-5.5649,-5.4817,-5.4389,-5.4212,-5.266,-5.1606,-5.0862,-4.9576,-4.8646,-4.8054,-4.7953,-4.7496,-4.6752,-4.6024,-4.5652,-4.5483,-4.4181,-4.3876,-4.4401,-4.3724,-4.3707,-4.4248,-4.3606,-4.3234,-4.3098,-4.183,-4.1102,-4.0848,-4.0273,-3.9851,-3.9564,-3.817,-3.7484,-3.7484,-3.8253,-3.9041,-3.9766,-3.9614,-3.9109,-3.8386,-3.8353,-3.7698,-3.6343,-3.636,-3.625,-3.6025,-3.5976,-3.5398,-3.4034,-3.4111,-3.3163,0.0,-3.167,0.0,0.0,0.0,0.0,0.0,0.0,0.0,0.0,-3.3305,-3.4091,-3.5475,-3.5248,-3.5369,-3.6415,-3.7342,-3.8026,-3.8334,-3.9288,-4.0202,-4.0932,-4.1153,-4.1407,-4.1948,-4.2016,-4.1999,-4.1948,-4.1999,-4.1999,-4.1914,-4.1931,-4.2016,-4.2033,-4.2252,-4.2422,-4.2185,-4.2066,-4.1982,-4.1914,-4.1457,-4.1255,-4.1762,-4.1457,-4.1009,-4.067,-4.0102,-3.9338,-3.8368,-3.7223,-3.6439,-3.6357,-3.5908,-3.5549,-3.5594,-3.5639,-3.5818,-3.6297,-3.6746,-3.6776,-5.8217,-5.8152,-5.7257,-5.6438,-5.5596,-5.4276,-5.3335,-5.2646,-5.1146,-5.0101,-4.9407,-4.9137,-4.8934,-4.8765,-4.8173,-4.7496,-4.6769,-4.6041,-4.5382,-4.4773,-4.4485,-4.4113,-4.3639,-4.3487,-4.3166,-4.2726,-4.2574,-4.2202,-4.1627,-4.1339,-4.0527,-3.9261,-3.9093,-3.8689,-3.7969,0.0,0.0,0.0,-3.7765,-3.798,-3.8113,-3.6888,-3.6122,-3.5971,-3.5971,0.0,-3.5555,-3.6092,-3.6267,-3.6025,-3.5967,0.0,0.0,0.0,0.0,0.0,0.0,0.0,0.0,0.0,0.0,0.0,-3.3271,-3.3391,-3.3077,-3.3643,-3.453,-3.5531,-3.5213,-3.5338,-3.6507,-3.7354,-3.8092,-3.8778,-4.0041,-4.0763,-4.0392,-4.0832,-4.1052,-4.0544,-4.051,-4.051,-4.0561,-4.0544,-4.0527,-4.0578,-4.0493,-4.0493,-4.0544,-4.1525,-4.2033,-4.1525,-4.0967,-4.0544,-4.0493,-4.0409,-4.0409,-4.046,-4.0426,-3.9859,-3.8885,-3.8412,-3.7705,-3.6466,-3.5874,-3.5669,-3.5669,-3.5579,-3.5415,-3.5474,-3.5474,-3.5549,-3.5669,-3.5774,-3.5804,-5.7978,0.0,-5.7184,-5.6438,0.0,-5.3701,-5.2516,-5.1674,-5.0574,-4.9678,-4.9018,-4.9018,-4.8815,-4.8443,-4.8088,-4.731,-4.6227,-4.5872,-4.5297,-4.4553,-4.3792,-4.3436,-4.3403,-4.2675,-4.232,-4.2269,-4.1914,-4.1576,-4.1204,-4.0849,-4.0257,-3.9412,-3.9462,-3.9244,-3.8823,-3.8756,-3.8571,-3.8119,-3.8218,-3.8435,-3.8854,-3.8113,-3.7444,-3.7059,-3.7043,0.0,0.0,0.0,0.0,0.0,0.0,0.0,0.0,-3.3964,0.0,-3.3761,-3.3398,-3.2894,-3.2181,-3.2588,-3.2657,-3.2312,-3.3495,-3.4178,-3.3849,-3.4167,-3.4725,-3.5533,-3.5687,-3.5968,-3.6569,-3.7674,-3.8469,-3.8924,-3.9962,-4.0476,-4.0189,-4.0409,-4.0493,-4.0172,-4.0087,-4.0087,-4.0087,-4.0087,-4.0087,-4.0087,-4.0087,-4.007,-4.0138,-4.0696,-4.1035,-4.0679,-4.0375,-4.0087,-4.0087,-4.0087,-4.007,-4.0087,-4.0087,-3.9627,-3.8541,-3.7786,-3.6949,-3.5769,-3.5027,-3.4517,-3.4517,-3.4517,-3.4517,-3.4502,-3.4517,-3.4517,-3.4547,-3.5026,-3.5385,-5.7978,-5.7932,-5.7351,-5.6545,-5.5525,-5.3457,-5.1899,-5.0777,0.0,0.0,0.0,-4.8866,-4.8477,-4.7919,-4.7648,-4.687,-4.5737,-4.5568,-4.5179,-4.4536,-4.3284,-4.2895,-4.3149,-4.1965,-4.1559,-4.1863,-4.1288,-4.1001,-4.0984,-4.0375,-4.0087,-4.0087,-4.0087,-4.0087,-4.0087,-4.0087,-3.9733,-3.9042,-3.8756,-3.8974,-3.9665,-3.9378,-3.8906,-3.8201,-3.8184,-3.7278,-3.5375,-3.6041,-3.5396,-3.3337,-3.3834,-3.4006,-3.3521,-3.3453,-3.3625,-3.3891,-3.3893,-3.347,-3.2554,-3.2615,-3.2435,-3.1898,-3.3609,-3.4809,-3.5019,-3.5047,-3.5226,-3.5672,-3.6228,-3.6661,-3.6783,-3.7946,-3.8799,-3.9086,-3.9731,-4.0087,-4.0087,-4.0087,-4.0104,-4.0087,-4.0087,-4.0087,-4.0087,-4.0087,-4.0003,-3.9901,-3.9699,-3.9581,-3.9446,-3.9615,-3.9884,-3.9665,-3.9529,-3.9614,-3.9665,-3.9614,-3.9698,-3.9563,-3.9614,-3.9396,-3.857,-3.7552,-3.6518,-3.5525,-3.4379,-3.3819,-3.3591,-3.3589,-3.3499,-3.3499,-3.3499,-3.3499,-3.3604,-3.4367,-3.4891,-5.7978,-5.7997,-5.7886,-5.7029,-5.56,-5.4005,-5.1807,-4.9323,-4.9204,-4.9103,-4.8968,-4.8342,-4.802,-4.7851,-4.6583,-4.5889,-4.5669,-4.5026,-4.4671,-4.457,-4.435,-4.3606,-4.2472,-4.2236,-4.1525,-4.0443,-4.029,-4.024,-4.0223,-4.0138,-4.0087,-4.0087,-4.0087,-4.0087,-4.0087,-4.0087,-4.002,-3.9901,-3.8552,-3.7913,-3.7997,-3.6673,-3.592,-3.582,-3.5887,-3.5656,-3.5337,-3.6058,-3.586,-3.4691,-3.5267,-3.5071,-3.3951,-3.3817,-3.3531,-3.2811,-3.2721,-3.2421,-3.1749,-3.2198,-3.2721,-3.3231,-3.404,-3.5096,-3.6388,-3.7023,-3.7065,-3.6554,-3.6553,-3.6904,-3.7515,-3.7799,-3.8498,-3.9612,-4.0003,-4.007,-4.0003,-4.0003,-3.9986,-3.9969,-4.0087,-4.002,-3.9952,-3.9969,-3.9715,-3.9226,-3.8807,-3.7942,-3.7219,-3.8018,-3.877,-3.8379,-3.821,-3.821,-3.8379,-3.8244,-3.8345,-3.821,-3.8294,-3.8035,-3.7364,-3.6787,-3.6039,-3.4883,-3.4321,-3.3981,-3.3517,-3.3499,-3.338,-3.335,-3.3335,-3.338,-3.335,-3.3604,-3.3739,-5.7978,-5.7932,-5.7565,-5.6503,-5.4962,-5.2654,-5.0635,-4.9035,-4.9018,-4.9018,-4.8883,-4.78,-4.731,-4.7225,-4.6194,-4.5483,-4.5077,-4.4739,-4.435,-4.3961,-4.3944,-4.3132,-4.1796,-4.1694,-4.1119,-4.0121,-4.0087,-4.0087,-4.0087,-4.0087,-4.0087,-4.0087,-4.0087,-4.0087,-4.0087,-4.0087,-4.0087,-4.007,-3.9361,-3.9006,-3.8989,-3.8299,-3.7879,-3.7879,-3.7896,-3.7694,-3.7323,-3.8014,-3.7636,-3.5999,-3.5877,-3.5419,-3.4383,-3.359,-3.3096,-3.3036,-3.3051,-3.2766,-3.2108,-3.1945,-3.2579,-3.4038,-3.4406,-3.5406,-3.7279,-3.688,-3.6444,-3.6101,-3.6428,-3.6789,-3.7205,-3.7613,-3.8116,-3.8837,-3.8903,-3.8886,-3.8903,-3.8903,-3.8903,-3.8903,-3.8903,-3.8903,-3.8886,-3.8903,-3.8819,-3.8398,-3.8086,-3.7352,-3.5983,-3.6854,-3.766,-3.7401,-3.7614,-3.7858,-3.7889,-3.7922,-3.7922,-3.7922,-3.7549,-3.7203,-3.6701,-3.6007,-3.4863,-3.4151,-3.3495,-3.2804,-3.2452,-3.2422,-3.2422,-3.2422,-3.2422,-3.2422,-3.2422,-3.2437,-3.2557,-5.7978,-5.7932,-5.72,-5.5772,-5.3881,-5.1236,-4.9678,-4.9018,-4.8815,-4.8866,-4.8815,-4.7614,-4.6938,-4.6718,-4.6041,-4.5297,-4.4637,-4.457,-4.4147,-4.3453,-4.3403,-4.2642,-4.1322,-4.1204,-4.0815,-4.0155,-4.0087,-4.0087,-4.0087,-4.0087,-4.0087,-4.0087,-4.0087,-4.0087,-4.0087,-4.0087,-4.0087,-4.0087,-4.0087,-4.0087,-4.0087,-4.0087,-4.007,-4.0087,-4.0054,-3.9732,-3.9089,-3.9698,-3.9093,-3.6916,-3.6307,-3.5578,-3.4674,-3.3469,-3.2901,-3.3245,-3.3275,-3.2991,-3.2347,-3.1998,-3.2486,-3.4048,-3.4519,-3.5379,-3.6816,-3.6204,-3.5674,-3.5862,-3.6401,-3.6697,-3.6781,-3.722,-3.7696,-3.7858,-3.7922,-3.799,-3.7922,-3.7922,-3.7922,-3.7922,-3.7922,-3.7956,-3.7922,-3.7922,-3.7711,-3.7234,-3.7034,-3.6323,-3.5198,-3.5399,-3.5795,-3.6059,-3.6718,-3.7266,-3.7398,-3.7172,-3.7043,-3.7175,-3.6506,-3.6023,-3.5687,-3.458,-3.3725,-3.3426,-3.2614,-3.1947,-3.1612,-3.1511,-3.1556,-3.1616,-3.1631,-3.1556,-3.1586,-3.13,-3.142,-5.7978,-5.7868,-5.707,-5.5142,-5.2448,-5.0746,-4.9661,-4.8968,-4.8325,-4.8392,-4.8883,-4.8173,-4.7411,-4.6735,-4.6007,-4.5263,-4.4587,-4.457,-4.4147,-4.3436,-4.3403,-4.2625,-4.1255,-4.1204,-4.0815,-4.0155,-4.0087,-4.0087,-4.0087,-4.0087,-4.0087,-4.0087,-4.0087,-4.0087,-4.0087,-4.0087,-4.0087,-4.0087,-4.0087,-4.0087,-4.0087,-4.0087,-4.0087,-4.0087,-4.0087,-3.9732,-3.9056,-3.9681,-3.9042,-3.6981,-3.6691,-3.6022,-3.4632,-3.3788,-3.314,-3.2647,-3.2602,-3.2317,-3.1689,-3.2135,-3.2578,-3.2827,-3.3931,-3.466,-3.5,-3.5365,-3.5869,-3.6405,-3.6615,-3.6651,-3.6699,-3.6752,-3.707,-3.7621,-3.7753,-3.7922,-3.7804,-3.7922,-3.7922,-3.7922,-3.7624,-3.7905,-3.7624,-3.7607,-3.7002,-3.5389,-3.4816,-3.405,-3.2858,-3.2989,-3.338,-3.3482,-3.4506,-3.5689,-3.5802,-3.5315,-3.5309,-3.5083,-3.4447,-3.4191,-3.4018,-3.3866,-3.345,-3.2755,-3.2561,-3.212,-3.1607,-3.1467,-3.148,-3.1255,-3.1285,-3.145,-3.136,-3.0657,-3.0432,-5.7721,-5.7153,-5.598,-5.3779,-5.107,-4.9841,-4.9272,-4.8968,-4.8697,-4.8748,-4.8883,-4.824,-4.7496,-4.6718,-4.5568,-4.4857,-4.4587,-4.457,-4.391,-4.2878,-4.32,-4.2405,-4.0713,-4.1018,-4.0815,-4.0138,-4.0087,-4.0087,-4.0087,-4.0087,-4.0087,-4.0087,-4.0087,-4.0087,-4.0087,-4.0087,-4.0087,-4.0087,-4.0087,-4.0087,-4.0087,-4.0087,-4.0087,-4.0087,-4.0087,-3.9732,-3.9106,-3.9292,-3.8606,-3.6884,-3.6011,-3.5102,-3.411,-3.2968,-3.2213,-3.1958,-3.1928,-3.1644,-3.0971,-3.1554,-3.1952,-3.2044,-3.2872,-3.3735,-3.4544,-3.483,-3.5288,-3.5914,-3.6064,-3.6064,-3.6081,-3.6064,-3.6175,-3.6506,-3.6552,-3.6523,-3.6552,-3.6569,-3.6397,-3.6016,-3.5952,-3.5969,-3.5969,-3.5969,-3.5432,-3.4304,-3.371,-3.3082,-3.2312,-3.2391,-3.2523,-3.267,-3.3356,-3.4074,-3.4712,-3.5155,-3.4922,-3.4592,-3.4037,-3.3547,-3.2977,-3.2571,-3.2272,-3.1977,-3.1916,-3.1678,-3.0998,-3.0911,-3.0866,-3.0657,-3.0387,-3.0387,-3.0372,-2.9953,-2.9939,-5.7207,-5.6273,-5.4665,-5.249,-5.0022,-4.9283,-4.9018,-4.9018,-4.9018,-4.89,-4.8629,-4.7936,-4.7192,-4.6413,-4.5348,-4.4671,-4.4299,-4.4248,-4.3453,-4.2168,-4.2557,-4.183,-4.0257,-4.0612,-4.0612,-4.0155,-4.0087,-4.0087,-4.0087,-4.0087,-4.0087,-4.0087,-4.0087,-4.0087,-4.0087,-4.0087,-4.0087,-4.0087,-4.0087,-4.0087,-4.0087,-4.0087,-4.0087,-4.007,-3.9884,-3.9428,-3.8734,-3.8503,-3.7719,-3.624,-3.5062,-3.4146,-3.341,-3.2209,-3.1467,-3.1467,-3.1467,-3.1258,-3.0821,-3.1396,-3.181,-3.1897,-3.2645,-3.3531,-3.4399,-3.4783,-3.5098,-3.552,-3.5639,-3.5628,-3.5639,-3.5639,-3.5532,-3.5379,-3.547,-3.547,-3.5148,-3.5161,-3.5018,-3.4233,-3.4104,-3.3941,-3.3858,-3.3761,-3.3535,-3.3093,-3.2812,-3.2746,-3.2362,-3.212,-3.1939,-3.2085,-3.2315,-3.2951,-3.3819,-3.4195,-3.4429,-3.386,-3.3093,-3.2351,-3.1959,-3.1293,-3.0971,-3.0835,-3.0953,-3.0881,-3.0417,-3.0238,-3.0148,-2.9729,-2.9475,-2.9445,-2.9714,-2.9355,-2.9146,-5.6381,-5.5377,-5.3322,-5.145,-4.993,-4.9273,-4.9018,-4.9018,-4.9018,-4.8629,-4.797,-4.7225,-4.6464,-4.5805,-4.5602,-4.484,-4.3639,-4.3538,-4.2777,-4.1474,-4.139,-4.0899,-4.0121,-4.0121,-4.0121,-4.0087,-4.0087,-4.0087,-4.0087,-4.0087,-4.0087,-4.0087,-4.0087,-4.0087,-4.0087,-4.0087,-4.0087,-4.0087,-4.0087,-4.0087,-4.0087,-4.0087,-4.007,-3.9969,-3.9428,-3.8751,-3.7993,-3.7253,-3.6257,-3.4757,-3.4128,-3.3395,-3.2686,-3.1925,-3.1467,-3.1467,-3.1467,-3.1452,-3.1477,-3.2003,-3.2431,-3.2602,-3.3451,-3.4431,-3.4479,-3.5052,-3.5424,-3.556,-3.5639,-3.5639,-3.5509,-3.5481,-3.5253,-3.4736,-3.5191,-3.4861,-3.3855,-3.4202,-3.3973,-3.2998,-3.2689,-3.2481,-3.1903,-3.1726,-3.1867,-3.1663,-3.1208,-3.0979,-3.1334,-3.0975,-3.0654,-3.0866,-3.1517,-3.251,-3.2657,-3.3096,-3.2736,-3.2128,-3.1675,-3.0719,-3.0117,-2.9669,-2.9729,-2.9774,-2.9939,-2.9939,-2.9714,-2.9564,-2.949,-2.9205,-2.8846,-2.8831,-2.9011,-2.8293,-2.8158,-5.5483,-5.3351,-5.1563,-5.0218,-4.9376,-4.9107,-4.9018,-4.9018,-4.9018,-4.8612,-4.7868,-4.7107,-4.638,-4.5686,-4.5196,-4.4688,-4.413,-4.3656,-4.2861,-4.1914,-4.1424,-4.0798,-4.0138,-4.0087,-4.0087,-4.0087,-4.0087,-4.0087,-4.0087,-4.0087,-4.0087,-4.0087,-4.0087,-4.0087,-4.0087,-4.0087,-4.0087,-4.0087,-4.0087,-4.0087,-4.0087,-4.0087,-3.9868,-3.9411,-3.914,-3.843,-3.7229,-3.652,-3.5431,-3.402,-3.3345,-3.2684,-3.1996,-3.164,-3.1467,-3.1467,-3.1467,-3.1287,-3.1001,-3.1498,-3.1697,-3.1414,-3.2538,-3.3598,-3.3987,-3.4544,-3.5098,-3.547,-3.5622,-3.547,-3.5009,-3.4952,-3.4704,-3.4088,-3.3795,-3.3518,-3.3079,-3.2773,-3.2321,-3.1523,-3.1325,-3.12,-3.0979,-3.0948,-3.0958,-3.0907,-3.0385,-3.0098,-3.0108,-2.9729,-2.9433,-2.9725,-2.9955,-3.016,-3.0582,-3.1871,-3.2257,-3.1365,-3.0658,-3.0342,-2.9803,-2.9484,-2.9475,-2.94,-2.9385,-2.922,-2.9086,-2.8652,-2.8622,-2.8427,-2.8098,-2.8233,-2.8299,-2.7859,-2.7769,-5.4212,-5.1917,-5.0782,-4.9838,-4.9029,-4.8765,-4.8646,-4.8612,-4.8392,-4.7885,-4.7192,-4.665,-4.6024,-4.5297,-4.4553,-4.4198,-4.4113,-4.3403,-4.2523,-4.1593,-4.1068,-4.0578,-4.0155,-4.0087,-4.0087,-4.0087,-4.0087,-4.0087,-4.0087,-4.0087,-4.0087,-4.0087,-4.0087,-4.0087,-4.0087,-4.0087,-4.0087,-4.0087,-4.0087,-4.0087,-4.007,-3.9834,-3.9377,-3.8717,-3.8413,-3.7725,-3.6474,-3.5531,-3.4505,-3.3366,-3.2625,-3.2007,-3.1597,-3.1739,-3.1739,-3.1524,-3.1739,-3.1558,-3.0956,-3.127,-3.1387,-3.1218,-3.202,-3.2949,-3.3786,-3.4333,-3.4795,-3.5138,-3.5009,-3.46,-3.3748,-3.3383,-3.3193,-3.2912,-3.2528,-3.2058,-3.1691,-3.1462,-3.0867,-3.013,-2.9715,-2.9623,-2.9623,-2.9607,-2.97,-2.9899,-2.9388,-2.9079,-2.94,-2.9041,-2.8681,-2.9114,-2.919,-2.9083,-2.9196,-3.0066,-3.07,-3.0052,-2.9858,-2.9598,-2.9388,-2.9147,-2.9041,-2.9049,-2.8876,-2.8682,-2.8353,-2.7889,-2.7679,-2.759,-2.7664,-2.7844,-2.7769,-2.7664,-2.7649,-5.2426,-5.1138,-5.1086,-5.0115,-4.8853,-4.824,-4.7953,-4.78,-4.7208,-4.6616,-4.6024,-4.5737,-4.5263,-4.4536,-4.3775,-4.3403,-4.3183,-4.2608,-4.1627,-4.0476,-4.0223,-4.0155,-4.0087,-4.0087,-4.0087,-4.0087,-4.0087,-4.0087,-4.0087,-4.0087,-4.0087,-4.0087,-4.0087,-4.0087,-4.0087,-4.0087,-4.0087,-4.0087,-4.0087,-4.0054,-3.9986,-3.9411,-3.8717,-3.7922,-3.7216,-3.6494,-3.5663,-3.4392,-3.3455,-3.2711,-3.1951,-3.1524,-3.1682,-3.212,-3.2216,-3.1811,-3.2176,-3.216,-3.1537,-3.1495,-3.1781,-3.2109,-3.2532,-3.3093,-3.3987,-3.4463,-3.4565,-3.4325,-3.3989,-3.3165,-3.1886,-3.1193,-3.1039,-3.1357,-3.1372,-3.088,-3.0143,-3.0216,-3.0043,-2.8897,-2.8282,-2.77,-2.7655,-2.7921,-2.8228,-2.8493,-2.8276,-2.821,-2.9011,-2.8757,-2.8592,-2.8725,-2.8779,-2.8652,-2.8347,-2.8118,-2.8445,-2.8625,-2.868,-2.8621,-2.8372,-2.8113,-2.8188,-2.8158,-2.8188,-2.8023,-2.8038,-2.7649,-2.7634,-2.756,-2.756,-2.756,-2.756,-2.756,-2.756,-5.1616,-5.0396,-5.0344,-4.92,-4.764,-4.7767,-4.7648,-4.7158,-4.687,-4.6397,-4.5703,-4.5162,-4.4519,-4.3741,-4.298,-4.2371,-4.1897,-4.1627,-4.1288,-4.0798,-4.0307,-4.0087,-4.0087,-4.0087,-4.0087,-4.0087,-4.0087,-4.0087,-4.0087,-4.0087,-4.0087,-4.0087,-4.0087,-4.0087,-4.0087,-4.0087,-4.0087,-4.0087,-4.0087,-3.9851,-3.9394,-3.9123,-3.8396,-3.7199,-3.6446,-3.5531,-3.436,-3.3797,-3.3303,-3.2602,-3.1894,-3.1739,-3.2104,-3.2007,-3.1966,-3.2176,-3.1966,-3.1796,-3.1582,-3.1524,-3.1582,-3.1894,-3.2272,-3.2749,-3.3287,-3.4022,-3.407,-3.3463,-3.3395,-3.2905,-3.1196,-3.024,-2.9983,-3.0134,-2.9797,-2.947,-2.8989,-2.8746,-2.8384,-2.8036,-2.7694,-2.759,-2.756,-2.756,-2.7664,-2.7859,-2.7709,-2.791,-2.8053,-2.8158,-2.8142,-2.8461,-2.8415,-2.8393,-2.8179,-2.7959,-2.7956,-2.8081,-2.809,-2.8083,-2.7739,-2.756,-2.756,-2.756,-2.756,-2.756,-2.756,-2.756,-2.756,-2.756,-2.756,-2.756,-2.756,-2.756,-2.756,-5.1391,-5.0339,-4.9785,-4.8626,-4.7158,-4.7157,-4.6836,-4.6363,-4.6075,-4.5703,-4.5179,-4.4485,-4.3893,-4.3267,-4.2354,-4.1644,-4.1204,-4.0933,-4.0781,-4.0747,-4.0341,-4.0087,-4.0087,-4.0087,-4.0087,-4.0087,-4.0087,-4.0087,-4.0087,-4.0087,-4.0087,-4.0087,-4.0087,-4.0087,-4.0087,-4.0087,-4.0087,-4.0087,-4.007,-3.9715,-3.914,-3.8988,-3.8181,-3.6628,-3.5958,-3.4868,-3.3403,-3.3251,-3.2879,-3.2272,-3.1739,-3.1739,-3.2104,-3.2007,-3.2007,-3.2064,-3.2064,-3.1853,-3.1582,-3.1467,-3.164,-3.1879,-3.1875,-3.2091,-3.2494,-3.3157,-3.2626,-3.208,-3.1934,-3.1468,-3.0022,-2.9228,-2.888,-2.8862,-2.8509,-2.8233,-2.8143,-2.7844,-2.767,-2.7604,-2.7575,-2.756,-2.756,-2.756,-2.756,-2.756,-2.756,-2.756,-2.756,-2.7604,-2.791,-2.8057,-2.792,-2.7951,-2.8088,-2.7894,-2.761,-2.767,-2.7715,-2.7709,-2.759,-2.756,-2.756,-2.756,-2.756,-2.756,-2.756,-2.756,-2.756,-2.756,-2.756,-2.756,-2.756,-2.756,-2.756,-5.1529,-5.0649,-4.9399,-4.8259,-4.7231,-4.6294,-4.5788,-4.5534,-4.4993,-4.4654,-4.4384,-4.3707,-4.3284,-4.2929,-4.1694,-4.1085,-4.1018,-4.0476,-4.0206,-4.0189,-4.0087,-4.0087,-4.0087,-4.0087,-4.0087,-4.0087,-4.0087,-4.0087,-4.0087,-4.0087,-4.0087,-4.0087,-4.0087,-4.0087,-4.0087,-4.0087,-4.0037,-3.9918,-3.9952,-3.958,-3.8886,-3.8653,-3.7834,-3.5828,-3.5415,-3.4465,-3.3005,-3.2586,-3.2216,-3.164,-3.1524,-3.1597,-3.1739,-3.2201,-3.1982,-3.1588,-3.2124,-3.1779,-3.1459,-3.121,-3.1438,-3.1864,-3.1162,-3.0952,-3.1876,-3.1498,-3.0948,-3.0497,-3.0179,-2.9479,-2.8662,-2.8069,-2.7795,-2.7655,-2.7724,-2.7679,-2.759,-2.7625,-2.7625,-2.756,-2.756,-2.756,-2.756,-2.756,-2.756,-2.756,-2.756,-2.756,-2.756,-2.756,-2.756,-2.7625,-2.7675,-2.771,-2.7845,-2.781,-2.756,-2.756,-2.756,-2.756,-2.756,-2.756,-2.756,-2.756,-2.756,-2.756,-2.756,-2.756,-2.756,-2.756,-2.756,-2.756,-2.756,-2.756,-2.756,-5.0965,-4.9412,-4.8954,-4.7491,-4.5657,-4.5557,-4.5365,-4.4891,-4.4671,-4.4215,-4.3673,-4.2912,-4.232,-4.1711,-4.0849,-4.0375,-4.0341,-4.0189,-4.0087,-4.0087,-4.0087,-4.0087,-4.0087,-4.0087,-4.0087,-4.0087,-4.0087,-4.0087,-4.0087,-4.0087,-4.0087,-4.0087,-4.0087,-4.0087,-4.0087,-4.0087,-3.9766,-3.9343,-3.9292,-3.8937,-3.8113,-3.7118,-3.6324,-3.5729,-3.4278,-3.3291,-3.2547,-3.2048,-3.1739,-3.1524,-3.1467,-3.1754,-3.2043,-3.1551,-3.1253,-3.1381,-3.0797,-3.0392,-3.0188,-3.0163,-3.0228,-3.0362,-3.0117,-3.0036,-3.0327,-3.0531,-3.0048,-2.9504,-2.9319,-2.9061,-2.8096,-2.771,-2.761,-2.756,-2.756,-2.756,-2.756,-2.756,-2.756,-2.756,-2.756,-2.756,-2.756,-2.756,-2.756,-2.756,-2.756,-2.756,-2.756,-2.756,-2.756,-2.756,-2.7625,-2.761,-2.761,-2.761,-2.756,-2.756,-2.756,-2.756,-2.756,-2.756,-2.756,-2.756,-2.756,-2.756,-2.756,-2.756,-2.756,-2.756,-2.756,-2.756,-2.756,-2.756,-2.756,-5.0909,-4.9145,-4.8833,-4.7435,-4.5476,-4.5569,-4.5035,-4.4236,-4.4062,-4.3656,-4.2895,-4.2151,-4.161,-4.1153,-4.0426,-4.0087,-4.0087,-4.0087,-4.0087,-4.0087,-4.0087,-4.0087,-4.0087,-4.0087,-4.0087,-4.0087,-4.0087,-4.0087,-4.0087,-4.0087,-4.0087,-4.0087,-4.0087,-4.0087,-4.0087,-4.0054,-3.9715,-3.914,-3.8954,-3.84,-3.7032,-3.6489,-3.5444,-3.4726,-3.341,-3.2857,-3.2237,-3.1739,-3.1467,-3.1467,-3.1509,-3.1562,-3.1622,-3.1011,-3.0609,-3.0785,-2.9976,-2.9609,-2.9594,-2.9594,-2.9594,-2.952,-2.937,-2.9175,-2.9192,-2.9346,-2.887,-2.8393,-2.8571,-2.8323,-2.7831,-2.756,-2.756,-2.756,-2.756,-2.756,-2.756,-2.756,-2.756,-2.756,-2.756,-2.756,-2.756,-2.756,-2.756,-2.756,-2.756,-2.756,-2.756,-2.756,-2.756,-2.756,-2.756,-2.756,-2.756,-2.756,-2.756,-2.756,-2.756,-2.756,-2.756,-2.756,-2.756,-2.756,-2.756,-2.756,-2.756,-2.756,-2.756,-2.756,-2.756,-2.7545,-2.758,-2.756,-2.756,-5.1055,-4.9545,-4.8804,-4.7643,-4.6262,-4.5648,-4.4707,-4.3711,-4.3538,-4.3064,-4.232,-4.1542,-4.1204,-4.1052,-4.0341,-4.0087,-4.0087,-4.0087,-4.0087,-4.0087,-4.0087,-4.0087,-4.0087,-4.0087,-4.0087,-4.0087,-4.0087,-4.0087,-4.0087,-4.0087,-4.0087,-4.0087,-4.0087,-4.0087,-4.0087,-4.007,-3.9631,-3.8756,-3.8521,-3.7553,-3.6075,-3.5689,-3.4864,-3.3552,-3.3113,-3.2481,-3.1709,-3.1302,-3.1287,-3.1285,-3.1435,-3.1255,-3.0788,-3.0597,-3.0218,-2.9748,-2.9439,-2.919,-2.931,-2.9175,-2.928,-2.9131,-2.8727,-2.8517,-2.8449,-2.8156,-2.7855,-2.776,-2.7575,-2.7705,-2.764,-2.756,-2.756,-2.756,-2.756,-2.756,-2.756,-2.756,-2.756,-2.756,-2.756,-2.756,-2.756,-2.756,-2.756,-2.756,-2.756,-2.756,-2.756,-2.756,-2.756,-2.756,-2.756,-2.756,-2.756,-2.756,-2.756,-2.756,-2.756,-2.756,-2.756,-2.756,-2.756,-2.756,-2.756,-2.756,-2.756,-2.756,-2.756,-2.756,-2.756,-2.755,-2.7505,-2.758,-2.756,-5.1146,-4.9655,-4.8422,-4.7029,-4.5717,-4.5052,-4.4618,-4.4231,-4.3639,-4.2929,-4.2236,-4.1508,-4.0882,-4.0341,-4.0172,-4.0087,-4.0087,-4.0087,-4.0087,-4.0087,-4.0087,-4.0087,-4.0087,-4.0087,-4.0087,-4.0087,-4.0087,-4.0087,-4.0087,-4.0087,-4.0087,-4.0087,-4.0087,-4.0087,-4.0087,-3.9969,-3.9093,-3.7669,-3.7319,-3.6485,-3.5017,-3.4059,-3.3669,-3.316,-3.2516,-3.1603,-3.0938,-3.0731,-3.0492,-3.0372,-3.0881,-3.1255,-3.0971,-3.0253,-2.9729,-2.937,-2.8547,-2.8068,-2.8038,-2.8113,-2.8075,-2.8098,-2.8023,-2.7784,-2.7784,-2.7709,-2.756,-2.756,-2.756,-2.756,-2.756,-2.756,-2.756,-2.756,-2.756,-2.756,-2.756,-2.756,-2.756,-2.756,-2.756,-2.756,-2.756,-2.756,-2.756,-2.756,-2.756,-2.756,-2.756,-2.756,-2.756,-2.756,-2.756,-2.756,-2.756,-2.756,-2.756,-2.756,-2.756,-2.756,-2.756,-2.744,-2.7395,-2.747,-2.756,-2.756,-2.756,-2.756,-2.756,-2.756,-2.753,-2.7415,-2.734,-2.7475,-2.753,-5.0511,-4.9089,-4.8717,-4.7568,-4.6035,-4.5545,-4.4919,-4.402,-4.3217,-4.2472,-4.1728,-4.1001,-4.046,-4.0087,-4.0087,-4.0087,-4.0087,-4.0087,-4.0087,-4.0087,-4.0087,-4.0087,-4.0087,-4.0087,-4.0087,-4.0087,-4.0087,-4.0087,-4.0087,-4.0087,-4.0087,-4.0087,-4.007,-4.0087,-3.9986,-3.9732,-3.8623,-3.7119,-3.6422,-3.5473,-3.3836,-3.3076,-3.2475,-3.2588,-3.189,-3.1153,-3.0597,-3.0507,-3.0178,-2.9924,-3.0238,-3.0627,-3.0492,-2.9699,-2.919,-2.8921,-2.8203,-2.7604,-2.7575,-2.756,-2.7604,-2.756,-2.756,-2.756,-2.756,-2.756,-2.756,-2.756,-2.756,-2.756,-2.756,-2.756,-2.756,-2.756,-2.756,-2.756,-2.756,-2.756,-2.756,-2.756,-2.756,-2.756,-2.756,-2.7485,-2.7485,-2.7455,-2.752,-2.7535,-2.756,-2.756,-2.756,-2.756,-2.756,-2.756,-2.756,-2.756,-2.756,-2.756,-2.756,-2.756,-2.756,-2.738,-2.7186,-2.7335,-2.758,-2.756,-2.756,-2.756,-2.7515,-2.75,-2.7395,-2.7235,-2.713,-2.7156,-2.7305,-4.9903,-4.8545,-4.9182,-4.8261,-4.6529,-4.6217,-4.5126,-4.3435,-4.2627,-4.1982,-4.117,-4.0409,-4.0155,-4.0087,-4.0087,-4.0087,-4.0087,-4.0087,-4.0087,-4.0087,-4.0087,-4.0087,-4.0087,-4.0087,-4.0087,-4.0087,-4.0087,-4.0087,-4.0087,-4.0054,-3.9969,-3.9918,-3.9884,-3.9665,-3.9563,-3.8975,-3.7836,-3.6401,-3.5603,-3.445,-3.2843,-3.2398,-3.2094,-3.1742,-3.1612,-3.118,-3.0657,-3.0447,-3.0163,-2.9505,-2.943,-2.9445,-2.9295,-2.8966,-2.8592,-2.8592,-2.7964,-2.7619,-2.756,-2.756,-2.756,-2.756,-2.756,-2.756,-2.756,-2.756,-2.756,-2.756,-2.756,-2.756,-2.756,-2.756,-2.756,-2.756,-2.756,-2.756,-2.756,-2.756,-2.756,-2.756,-2.7545,-2.753,-2.738,-2.7245,-2.7355,-2.737,-2.737,-2.737,-2.7335,-2.732,-2.7171,-2.7081,-2.6991,-2.7096,-2.7126,-2.7171,-2.7215,-2.7186,-2.726,-2.7156,-2.7141,-2.6826,-2.6647,-2.7275,-2.755,-2.7455,-2.738,-2.737,-2.7355,-2.7365,-2.7066,-2.6632,-2.6662,-2.6856,-2.7036,-5.0233,-4.9349,-4.8938,-4.7807,-4.6309,-4.5813,-4.4746,-4.3304,-4.2567,-4.1863,-4.1153,-4.0426,-4.0087,-4.0087,-4.0087,-4.0087,-4.0087,-4.0087,-4.0087,-4.0087,-4.0087,-4.0087,-4.0087,-4.0087,-4.0054,-4.0087,-4.002,-3.9986,-4.0003,-4.0054,-3.9597,-3.9276,-3.9174,-3.8954,-3.8351,-3.7519,-3.6669,-3.5461,-3.4601,-3.3388,-3.2201,-3.1796,-3.1679,-3.1407,-3.1422,-3.1091,-3.0582,-3.0402,-2.9968,-2.8921,-2.8786,-2.8771,-2.8742,-2.8607,-2.8547,-2.8457,-2.7949,-2.756,-2.756,-2.756,-2.756,-2.756,-2.756,-2.756,-2.756,-2.756,-2.756,-2.756,-2.756,-2.756,-2.756,-2.756,-2.756,-2.756,-2.756,-2.756,-2.756,-2.756,-2.756,-2.756,-2.7515,-2.738,-2.7156,-2.6901,-2.6752,-2.6602,-2.6437,-2.6393,-2.6378,-2.6363,-2.6288,-2.6243,-2.6213,-2.6408,-2.6587,-2.6647,-2.6677,-2.6542,-2.6482,-2.6228,-2.6138,-2.5929,-2.6078,-2.6707,-2.7036,-2.7021,-2.6991,-2.7115,-2.7265,-2.738,-2.6767,-2.6033,-2.6422,-2.6782,-2.6677,-4.9058,-4.8286,-4.7959,-4.6966,-4.5696,-4.5339,-4.4624,-4.3545,-4.263,-4.2004,-4.1442,-4.0628,-4.0087,-4.0087,-4.0087,-4.0087,-4.0087,-4.0087,-4.0087,-4.0087,-4.0087,-4.0087,-4.0054,-4.0054,-3.9817,-3.9614,-3.9512,-3.9495,-3.9462,-3.9073,-3.8819,-3.8565,-3.8447,-3.8244,-3.7824,-3.7227,-3.6008,-3.4832,-3.3985,-3.2912,-3.1655,-3.1452,-3.1375,-3.1135,-3.1168,-3.0821,-2.9789,-2.9909,-2.9355,-2.8353,-2.8068,-2.8068,-2.8083,-2.8113,-2.8233,-2.8382,-2.7949,-2.756,-2.756,-2.756,-2.756,-2.756,-2.756,-2.756,-2.756,-2.756,-2.7545,-2.758,-2.756,-2.756,-2.756,-2.7515,-2.756,-2.756,-2.7545,-2.7545,-2.756,-2.756,-2.756,-2.756,-2.7545,-2.7305,-2.6797,-2.6527,-2.6228,-2.5944,-2.563,-2.551,-2.545,-2.548,-2.551,-2.5644,-2.5704,-2.6019,-2.6138,-2.6078,-2.6093,-2.5974,-2.5734,-2.5465,-2.5345,-2.5241,-2.557,-2.6123,-2.6333,-2.6273,-2.6916,-2.7096,-2.7245,-2.72,-2.6393,-2.5869,-2.6393,-2.6662,-2.6422,-4.759,-4.6874,-4.6874,-4.6097,-4.5055,-4.4967,-4.4516,-4.3643,-4.273,-4.2059,-4.1708,-4.0774,-4.0204,-4.0121,-4.0087,-4.0087,-4.0087,-4.0087,-4.0087,-4.0087,-4.007,-4.0037,-3.9868,-3.9783,-3.9462,-3.8802,-3.8481,-3.865,-3.8684,-3.8345,-3.7922,-3.7719,-3.7686,-3.755,-3.7199,-3.6488,-3.563,-3.4836,-3.3794,-3.2718,-3.1671,-3.118,-3.0911,-3.0402,-3.0866,-3.0342,-2.925,-2.9415,-2.9056,-2.8263,-2.7874,-2.7769,-2.7604,-2.7575,-2.7829,-2.8188,-2.7859,-2.7634,-2.756,-2.756,-2.756,-2.756,-2.756,-2.756,-2.756,-2.758,-2.7505,-2.734,-2.7355,-2.7171,-2.7021,-2.7111,-2.72,-2.732,-2.732,-2.741,-2.753,-2.756,-2.756,-2.756,-2.756,-2.7245,-2.6737,-2.5869,-2.551,-2.527,-2.4971,-2.4747,-2.4702,-2.4807,-2.4896,-2.5106,-2.5315,-2.5674,-2.5719,-2.548,-2.5465,-2.5375,-2.5076,-2.4747,-2.4702,-2.4672,-2.5076,-2.539,-2.5151,-2.5241,-2.6168,-2.6782,-2.6482,-2.6123,-2.5674,-2.5659,-2.6019,-2.5944,-2.563,-4.6764,-4.6049,-4.6049,-4.5535,-4.4784,-4.4877,-4.4133,-4.2987,-4.2825,-4.2093,-4.1302,-4.0896,-4.0497,-4.0204,-4.0087,-4.0087,-4.0087,-4.0087,-4.0087,-4.0087,-4.007,-3.9766,-3.9242,-3.9123,-3.8734,-3.8091,-3.7449,-3.7499,-3.7719,-3.7753,-3.7466,-3.7026,-3.6857,-3.6637,-3.6013,-3.5626,-3.4837,-3.4399,-3.3287,-3.1974,-3.0809,-3.0178,-2.9894,-2.9759,-2.9819,-2.9714,-2.922,-2.9295,-2.9041,-2.8487,-2.8382,-2.8143,-2.7694,-2.756,-2.759,-2.7664,-2.7604,-2.756,-2.756,-2.756,-2.756,-2.756,-2.756,-2.756,-2.747,-2.7395,-2.7051,-2.5914,-2.6348,-2.6497,-2.6183,-2.5989,-2.6183,-2.6602,-2.6946,-2.72,-2.741,-2.729,-2.732,-2.726,-2.7171,-2.7006,-2.6662,-2.5644,-2.4731,-2.4507,-2.4328,-2.4133,-2.4044,-2.4193,-2.4448,-2.4717,-2.4762,-2.5076,-2.5211,-2.4986,-2.4822,-2.4747,-2.4492,-2.4148,-2.4163,-2.4208,-2.4268,-2.4433,-2.4223,-2.4373,-2.5226,-2.557,-2.539,-2.53,-2.5181,-2.5315,-2.554,-2.527,-2.4836,-4.5535,-4.5241,-4.5241,-4.4764,-4.405,-4.4108,-4.3779,-4.3195,-4.2883,-4.2483,-4.1846,-4.1213,-4.0642,-4.0171,-4.0087,-4.0087,-4.0087,-4.0087,-4.0087,-4.0087,-4.002,-3.9681,-3.9157,-3.8903,-3.8464,-3.7381,-3.6941,-3.6637,-3.6772,-3.6637,-3.6383,-3.6248,-3.6084,-3.5765,-3.5224,-3.5144,-3.4185,-3.3022,-3.1626,-3.0637,-3.0093,-2.9699,-2.9385,-2.9056,-2.9355,-2.9116,-2.8712,-2.8861,-2.8667,-2.8158,-2.8008,-2.7904,-2.7649,-2.756,-2.7575,-2.7575,-2.7575,-2.756,-2.756,-2.756,-2.756,-2.761,-2.758,-2.741,-2.7156,-2.6961,-2.6677,-2.5734,-2.5869,-2.5839,-2.5749,-2.5974,-2.6243,-2.6527,-2.6587,-2.6991,-2.725,-2.7006,-2.6931,-2.6856,-2.6767,-2.6587,-2.6378,-2.5704,-2.4896,-2.4612,-2.4283,-2.3879,-2.3774,-2.3804,-2.4088,-2.4433,-2.4403,-2.4403,-2.4492,-2.4433,-2.4178,-2.4103,-2.4088,-2.3819,-2.3729,-2.3759,-2.3894,-2.3909,-2.3864,-2.4118,-2.4522,-2.4747,-2.4911,-2.4881,-2.4837,-2.4986,-2.5061,-2.4522,-2.4238,-4.4415,-4.4415,-4.4415,-4.4048,-4.3497,-4.3479,-4.3497,-4.3444,-4.3123,-4.2844,-4.24,-4.1481,-4.0659,-4.0221,-4.0087,-4.0087,-4.0087,-4.0087,-4.0087,-4.0087,-3.9969,-3.9512,-3.8903,-3.8565,-3.7905,-3.6502,-3.6434,-3.6197,-3.5876,-3.5723,-3.5774,-3.5639,-3.574,-3.5304,-3.4911,-3.4781,-3.4152,-3.1941,-3.0492,-2.9705,-2.9334,-2.9101,-2.8757,-2.8622,-2.8652,-2.8592,-2.788,-2.8023,-2.7993,-2.7754,-2.7634,-2.7634,-2.756,-2.756,-2.756,-2.756,-2.756,-2.756,-2.756,-2.756,-2.756,-2.7565,-2.7385,-2.7066,-2.6722,-2.6497,-2.6063,-2.533,-2.533,-2.527,-2.5226,-2.5465,-2.56,-2.5854,-2.6273,-2.6722,-2.704,-2.6602,-2.6348,-2.6288,-2.6198,-2.6123,-2.5899,-2.56,-2.5181,-2.4837,-2.4328,-2.3714,-2.3595,-2.3595,-2.3774,-2.4103,-2.4059,-2.3984,-2.3999,-2.3939,-2.367,-2.3595,-2.3595,-2.3595,-2.3595,-2.3595,-2.3684,-2.364,-2.3595,-2.3729,-2.4073,-2.4283,-2.4462,-2.4343,-2.4298,-2.4537,-2.4477,-2.3954,-2.3729,-4.3571,-4.3571,-4.3589,-4.3571,-4.3479,-4.3479,-4.3479,-4.3479,-4.3444,-4.3142,-4.2559,-4.149,-4.072,-4.0254,-4.0121,-4.0087,-4.0087,-4.0087,-4.0087,-4.0087,-3.9969,-3.9276,-3.8565,-3.7939,-3.733,-3.6028,-3.5876,-3.5791,-3.5639,-3.5639,-3.5639,-3.5639,-3.5577,-3.5161,-3.4541,-3.4023,-3.3273,-3.1379,-3.0058,-2.9103,-2.8628,-2.8218,-2.7829,-2.7769,-2.7724,-2.7634,-2.756,-2.776,-2.779,-2.756,-2.756,-2.756,-2.756,-2.756,-2.756,-2.756,-2.756,-2.756,-2.756,-2.756,-2.7545,-2.743,-2.7021,-2.6572,-2.6243,-2.5899,-2.539,-2.4837,-2.4807,-2.4507,-2.4148,-2.3909,-2.4822,-2.5091,-2.5615,-2.5899,-2.6063,-2.5899,-2.5689,-2.5674,-2.563,-2.5555,-2.548,-2.5196,-2.5166,-2.4791,-2.4208,-2.3595,-2.3595,-2.3595,-2.3595,-2.3729,-2.3714,-2.367,-2.367,-2.3595,-2.3595,-2.3595,-2.3595,-2.3595,-2.3595,-2.3595,-2.3595,-2.3595,-2.3595,-2.3595,-2.361,-2.3879,-2.3984,-2.3774,-2.3789,-2.4073,-2.4133,-2.3789,-2.364,-4.3479,-4.3479,-4.3479,-4.3479,-4.3479,-4.3479,-4.3479,-4.3479,-4.3479,-4.3214,-4.2655,-4.181,-4.1133,-4.0625,-4.0204,-4.0087,-4.0087,-4.0087,-4.007,-4.0087,-3.9918,-3.9191,-3.8379,-3.7686,-3.7127,-3.5926,-3.5639,-3.5639,-3.5639,-3.5532,-3.5253,-3.5207,-3.5316,-3.48,-3.4105,-3.2644,-3.1446,-3.0849,-2.9403,-2.8218,-2.8041,-2.7784,-2.756,-2.756,-2.756,-2.756,-2.756,-2.756,-2.756,-2.756,-2.756,-2.7545,-2.758,-2.758,-2.7545,-2.753,-2.758,-2.756,-2.756,-2.7515,-2.7395,-2.6871,-2.6378,-2.5884,-2.5644,-2.5151,-2.4672,-2.4358,-2.4343,-2.4223,-2.3804,-2.4328,-2.5076,-2.4866,-2.4896,-2.5151,-2.5196,-2.5091,-2.5016,-2.5001,-2.5001,-2.4925,-2.4851,-2.4807,-2.4806,-2.4761,-2.4133,-2.3595,-2.3595,-2.3595,-2.3595,-2.3595,-2.3595,-2.3595,-2.3595,-2.3595,-2.3595,-2.3595,-2.3595,-2.3595,-2.3595,-2.3595,-2.3595,-2.3595,-2.3595,-2.3595,-2.3595,-2.3595,-2.3595,-2.361,-2.361,-2.367,-2.364,-2.3595,-2.3595,-4.3479,-4.3479,-4.3479,-4.3479,-4.3479,-4.3479,-4.3479,-4.3479,-4.3479,-4.3214,-4.2637,-4.1884,-4.1253,-4.0804,-4.0368,-3.9918,-3.9851,-3.9901,-3.9884,-3.9884,-3.9766,-3.914,-3.8362,-3.7686,-3.7127,-3.596,-3.5577,-3.5577,-3.5253,-3.5299,-3.4847,-3.4592,-3.464,-3.4153,-3.3022,-3.1052,-2.9796,-2.9505,-2.8657,-2.764,-2.759,-2.7575,-2.756,-2.756,-2.756,-2.756,-2.756,-2.756,-2.756,-2.756,-2.7545,-2.7505,-2.7475,-2.746,-2.744,-2.746,-2.7505,-2.7545,-2.7545,-2.7305,-2.7096,-2.6677,-2.5764,-2.5285,-2.4956,-2.4612,-2.4118,-2.4163,-2.4253,-2.4148,-2.3655,-2.4223,-2.4507,-2.4253,-2.4358,-2.4567,-2.4537,-2.4462,-2.4373,-2.4313,-2.4313,-2.4283,-2.4313,-2.4253,-2.4298,-2.4328,-2.3999,-2.3595,-2.3595,-2.3595,-2.3595,-2.3595,-2.3595,-2.3595,-2.3595,-2.3595,-2.3595,-2.3595,-2.3595,-2.3595,-2.3595,-2.3595,-2.3595,-2.3595,-2.3595,-2.3595,-2.3595,-2.3595,-2.3595,-2.3595,-2.3595,-2.3595,-2.3595,-2.3595,-2.3595,-4.3479,-4.3479,-4.3479,-4.3479,-4.3479,-4.3479,-4.3461,-4.3332,-4.3296,-4.305,-4.2479,-4.1279,-4.0717,-4.0591,-4.0058,-3.9494,-3.9208,-3.9563,-3.9631,-3.936,-3.9614,-3.9056,-3.8379,-3.7719,-3.7127,-3.5977,-3.5577,-3.5316,-3.4736,-3.4783,-3.4333,-3.3735,-3.3582,-3.3391,-3.2517,-3.0661,-2.9364,-2.8704,-2.806,-2.779,-2.756,-2.756,-2.756,-2.756,-2.756,-2.756,-2.756,-2.756,-2.7515,-2.738,-2.7395,-2.7141,-2.6692,-2.713,-2.7081,-2.6797,-2.7245,-2.747,-2.7565,-2.6995,-2.6632,-2.6482,-2.5674,-2.5091,-2.5121,-2.4627,-2.3939,-2.4118,-2.4118,-2.3834,-2.367,-2.3744,-2.3894,-2.3864,-2.3984,-2.4014,-2.4014,-2.3999,-2.3954,-2.3939,-2.3774,-2.3655,-2.3655,-2.367,-2.3699,-2.3699,-2.364,-2.3595,-2.3595,-2.3595,-2.3595,-2.3595,-2.3595,-2.3595,-2.3595,-2.3595,-2.3595,-2.3595,-2.3595,-2.3595,-2.3595,-2.3595,-2.3595,-2.3595,-2.3595,-2.3595,-2.3595,-2.3595,-2.3595,-2.3595,-2.3595,-2.3595,-2.3595,-2.3595,-2.3595,-4.3479,-4.3479,-4.3479,-4.3479,-4.3479,-4.3479,-4.3204,-4.2653,-4.2213,-4.2093,-4.2032,-4.0653,-3.9888,-3.973,-3.9157,-3.8582,-3.8447,-3.8396,-3.8481,-3.9056,-3.9259,-3.8734,-3.8125,-3.7652,-3.7043,-3.6011,-3.5577,-3.5253,-3.464,-3.4544,-3.3836,-3.3198,-3.2548,-3.2422,-3.2112,-3.101,-2.9894,-2.9265,-2.8622,-2.8068,-2.7634,-2.756,-2.756,-2.756,-2.756,-2.756,-2.756,-2.756,-2.7395,-2.7081,-2.7021,-2.6647,-2.6093,-2.6333,-2.6393,-2.6437,-2.6886,-2.6901,-2.6767,-2.6378,-2.6198,-2.6108,-2.5732,-2.4999,-2.4866,-2.4642,-2.4283,-2.406,-2.403,-2.3777,-2.3744,-2.4089,-2.4179,-2.3759,-2.3729,-2.3729,-2.3714,-2.3699,-2.3684,-2.3699,-2.3595,-2.3595,-2.3595,-2.3595,-2.3595,-2.3595,-2.3595,-2.3595,-2.3595,-2.3595,-2.3595,-2.3595,-2.3595,-2.3595,-2.3595,-2.3595,-2.3595,-2.3595,-2.3595,-2.3595,-2.3595,-2.3595,-2.3595,-2.3595,-2.3595,-2.3595,-2.3595,-2.3595,-2.3595,-2.3595,-2.3595,-2.3595,-2.3595,-2.3595,-2.3595,-4.3479,-4.3479,-4.3479,-4.3479,-4.3442,-4.3204,-4.2635,-4.1827,-4.1075,-4.1046,-4.1123,-3.981,-3.9158,-3.8961,-3.8397,-3.7922,-3.7922,-3.7939,-3.8007,-3.8599,-3.8616,-3.8108,-3.7702,-3.7466,-3.6721,-3.591,-3.5532,-3.5207,-3.4235,-3.4235,-3.3479,-3.236,-3.1554,-3.1485,-3.1329,-3.0624,-2.9609,-2.8876,-2.8158,-2.7934,-2.7664,-2.756,-2.756,-2.756,-2.756,-2.756,-2.756,-2.7455,-2.726,-2.6782,-2.6467,-2.6123,-2.56,-2.5525,-2.5659,-2.5899,-2.6153,-2.6303,-2.6408,-2.5701,-2.5667,-2.6032,-2.5401,-2.454,-2.3885,-2.3598,-2.354,-2.3482,-2.3722,-2.3591,-2.3462,-2.3856,-2.3493,-2.3039,-2.3187,-2.3172,-2.3275,-2.3275,-2.345,-2.345,-2.3508,-2.3551,-2.3595,-2.3595,-2.3595,-2.3595,-2.3595,-2.3595,-2.3551,-2.3595,-2.3595,-2.3595,-2.3595,-2.3595,-2.3595,-2.3595,-2.3595,-2.3595,-2.3595,-2.3595,-2.3595,-2.3595,-2.3595,-2.3595,-2.3595,-2.3595,-2.3595,-2.3595,-2.3595,-2.3595,-2.3595,-2.3595,-2.3595,-2.3595,-2.3595,-4.3479,-4.3479,-4.3442,-4.3442,-4.3351,-4.2635,-4.1827,-4.1024,-4.0198,-3.9987,-4.0167,-3.8836,-3.8251,-3.8417,-3.7967,-3.7652,-3.7584,-3.7618,-3.7736,-3.7821,-3.7872,-3.7381,-3.711,-3.6874,-3.64,-3.5926,-3.547,-3.4958,-3.3786,-3.3375,-3.261,-3.1667,-3.0938,-3.0694,-3.0333,-2.9838,-2.8996,-2.8382,-2.8098,-2.7859,-2.7634,-2.756,-2.747,-2.7455,-2.752,-2.747,-2.7425,-2.7385,-2.7021,-2.6677,-2.6393,-2.5644,-2.5241,-2.5226,-2.497,-2.4939,-2.5237,-2.5652,-2.5712,-2.4791,-2.4517,-2.459,-2.4104,-2.3003,-2.269,-2.2853,-2.285,-2.2746,-2.2746,-2.27,-2.2672,-2.2407,-2.2091,-2.2179,-2.2438,-2.2575,-2.2725,-2.2905,-2.3172,-2.3304,-2.3363,-2.345,-2.3551,-2.3595,-2.3595,-2.3595,-2.3551,-2.3421,-2.3465,-2.3551,-2.3595,-2.3595,-2.3595,-2.3595,-2.3595,-2.3551,-2.3595,-2.3595,-2.3595,-2.3595,-2.3595,-2.3595,-2.3595,-2.3595,-2.3595,-2.3595,-2.3595,-2.3595,-2.3595,-2.3595,-2.3595,-2.3595,-2.3595,-2.3595,-2.3595,-4.3479,-4.3424,-4.2892,-4.2965,-4.324,-4.2011,-4.1313,-4.0914,-3.9334,-3.881,-3.9373,-3.769,-3.7195,-3.7032,-3.6502,-3.6361,-3.6349,-3.6366,-3.6688,-3.6891,-3.7144,-3.6975,-3.6823,-3.6654,-3.6265,-3.5876,-3.5424,-3.4911,-3.3617,-3.2848,-3.1778,-3.0833,-3.0477,-2.9998,-2.943,-2.8966,-2.8547,-2.8263,-2.8053,-2.7889,-2.7649,-2.756,-2.735,-2.719,-2.7385,-2.726,-2.6961,-2.6886,-2.6512,-2.6019,-2.545,-2.4717,-2.4088,-2.4103,-2.4,-2.4017,-2.4159,-2.4163,-2.3863,-2.347,-2.3125,-2.2798,-2.236,-2.2972,-2.2784,-2.2619,-2.2336,-2.2128,-2.1969,-2.1975,-2.1884,-2.1648,-2.1403,-2.152,-2.1771,-2.196,-2.21,-2.2285,-2.256,-2.2651,-2.2741,-2.3231,-2.3377,-2.3595,-2.3595,-2.3595,-2.3508,-2.3319,-2.3231,-2.3377,-2.326,-2.326,-2.326,-2.3172,-2.345,-2.3493,-2.3551,-2.3595,-2.3595,-2.3595,-2.3595,-2.3595,-2.3595,-2.3595,-2.3595,-2.3595,-2.3595,-2.3595,-2.3595,-2.3595,-2.3595,-2.3595,-2.3595,-2.3595,-2.3595,-4.2745,-4.2892,-4.2158,-4.1937,-4.1864,-4.1056,-4.0469,-3.9946,-3.8751,-3.8339,-3.8186,-3.7232,-3.6481,-3.6122,-3.5841,-3.5876,-3.618,-3.5943,-3.6129,-3.6671,-3.6485,-3.6332,-3.6315,-3.6299,-3.6028,-3.574,-3.5424,-3.4894,-3.3486,-3.1997,-3.0836,-3.0537,-3.0148,-2.9355,-2.8771,-2.8382,-2.8023,-2.7904,-2.7874,-2.7874,-2.7694,-2.7485,-2.7156,-2.6752,-2.7036,-2.6752,-2.6318,-2.6228,-2.5869,-2.5345,-2.4686,-2.4313,-2.3759,-2.364,-2.3659,-2.3691,-2.345,-2.3279,-2.2958,-2.2246,-2.1722,-2.1242,-2.1054,-2.138,-2.1863,-2.181,-2.1586,-2.135,-2.1345,-2.1302,-2.1183,-2.1113,-2.0983,-2.089,-2.1135,-2.1342,-2.1472,-2.1615,-2.1758,-2.1838,-2.2239,-2.2785,-2.3157,-2.3421,-2.3551,-2.3508,-2.3319,-2.3009,-2.2965,-2.3009,-2.2756,-2.2546,-2.2606,-2.2651,-2.2935,-2.3172,-2.3231,-2.3334,-2.3508,-2.3551,-2.3551,-2.3595,-2.3595,-2.3595,-2.3595,-2.3595,-2.3595,-2.3595,-2.3595,-2.3595,-2.3595,-2.3595,-2.3595,-2.3595,-2.3595,-4.1552,-4.2158,-4.1405,-4.0689,-3.9882,-3.99,-3.9515,-3.8713,-3.8614,-3.8119,-3.7376,-3.7076,-3.644,-3.581,-3.5639,-3.5943,-3.6062,-3.5859,-3.5876,-3.6637,-3.6079,-3.5808,-3.5757,-3.5526,-3.5549,-3.5577,-3.5244,-3.4579,-3.323,-3.172,-3.0567,-3.0328,-2.934,-2.8622,-2.8353,-2.7949,-2.7545,-2.7126,-2.726,-2.735,-2.729,-2.7245,-2.7126,-2.6482,-2.6363,-2.6228,-2.5749,-2.548,-2.5315,-2.4836,-2.4507,-2.4238,-2.3834,-2.3436,-2.3479,-2.3141,-2.2672,-2.2283,-2.1893,-2.1262,-2.1141,-2.0797,-2.0489,-2.0526,-2.0797,-2.0939,-2.072,-2.0669,-2.0669,-2.0669,-2.0591,-2.0462,-2.0359,-2.037,-2.0521,-2.067,-2.0769,-2.1002,-2.128,-2.1472,-2.1993,-2.2543,-2.3157,-2.3465,-2.3595,-2.345,-2.3319,-2.3009,-2.2543,-2.2543,-2.2346,-2.1979,-2.25,-2.2606,-2.2271,-2.2529,-2.2785,-2.2979,-2.3231,-2.3508,-2.3551,-2.3595,-2.3595,-2.3595,-2.3595,-2.3595,-2.3595,-2.3595,-2.3595,-2.3595,-2.3595,-2.3595,-2.3595,-2.3595,-2.3595,-4.1222,-4.1387,-4.1185,-4.0304,-3.9166,-3.9643,-3.9423,-3.8695,-3.8249,-3.772,-3.7135,-3.6381,-3.5924,-3.5667,-3.5639,-3.5842,-3.5808,-3.5825,-3.5757,-3.591,-3.5673,-3.5639,-3.547,-3.5104,-3.52,-3.5283,-3.4961,-3.4068,-3.2636,-3.1175,-2.9939,-2.9175,-2.8547,-2.8353,-2.7934,-2.7575,-2.726,-2.6557,-2.6632,-2.6497,-2.6108,-2.5989,-2.5794,-2.5525,-2.5405,-2.545,-2.5211,-2.5285,-2.5076,-2.4716,-2.4612,-2.4253,-2.3655,-2.3157,-2.2692,-2.2194,-2.1705,-2.1274,-2.0841,-2.0462,-2.0361,-2.0246,-2.0015,-1.9976,-1.9962,-1.9999,-2.0024,-2.0037,-2.0049,-2.0049,-2.0024,-1.9899,-1.9798,-1.9901,-1.994,-2.0042,-2.0105,-2.0434,-2.0769,-2.1245,-2.171,-2.2377,-2.3039,-2.3421,-2.3551,-2.3595,-2.3566,-2.3187,-2.2239,-2.1913,-2.1819,-2.1758,-2.2786,-2.2846,-2.2132,-2.1913,-2.2221,-2.2558,-2.2875,-2.3187,-2.3508,-2.3595,-2.3595,-2.3595,-2.3595,-2.3595,-2.3595,-2.3595,-2.3595,-2.3595,-2.3595,-2.3595,-2.3595,-2.3595,-2.3595,-4.0249,-4.0543,-4.0561,-3.9863,-3.8927,-3.9184,-3.8797,-3.7936,-3.7646,-3.7127,-3.6461,-3.6059,-3.581,-3.5667,-3.5639,-3.5622,-3.5622,-3.5639,-3.5656,-3.5639,-3.5639,-3.5639,-3.5318,-3.4783,-3.5148,-3.5189,-3.4197,-3.3125,-3.1763,-3.0354,-2.9101,-2.8577,-2.8368,-2.7979,-2.761,-2.75,-2.7066,-2.6198,-2.6168,-2.5659,-2.5061,-2.5121,-2.5211,-2.497,-2.4791,-2.4777,-2.4492,-2.4552,-2.4418,-2.4253,-2.4148,-2.3763,-2.326,-2.2889,-2.2221,-2.1561,-2.0979,-2.0497,-2.0055,-1.9798,-1.9798,-1.9798,-1.9798,-1.9861,-1.9861,-1.9899,-1.9899,-1.9899,-1.9899,-1.9911,-1.9911,-1.9811,-1.9798,-1.985,-1.985,-1.9901,-1.9952,-2.0042,-2.0283,-2.0421,-2.1086,-2.1946,-2.2606,-2.3319,-2.3319,-2.2995,-2.3054,-2.262,-2.1819,-2.139,-2.1245,-2.1232,-2.2039,-2.1979,-2.0988,-2.1099,-2.169,-2.2081,-2.2452,-2.3009,-2.3421,-2.3551,-2.3595,-2.3595,-2.3595,-2.3595,-2.3595,-2.3595,-2.3595,-2.3595,-2.3595,-2.3595,-2.3595,-2.3595,-2.3595,-3.9166,-3.9698,-3.9753,-3.935,-3.8731,-3.8627,-3.7981,-3.6973,-3.6897,-3.6268,-3.5318,-3.5693,-3.5754,-3.5722,-3.5487,-3.5537,-3.5588,-3.5622,-3.5639,-3.5639,-3.5639,-3.5453,-3.5053,-3.4621,-3.437,-3.3624,-3.2593,-3.1678,-3.0588,-2.9431,-2.8742,-2.8412,-2.7993,-2.758,-2.7535,-2.734,-2.6811,-2.5824,-2.5315,-2.4792,-2.4642,-2.4672,-2.4702,-2.4567,-2.4403,-2.4178,-2.3789,-2.3714,-2.3729,-2.3568,-2.354,-2.3112,-2.2678,-2.2314,-2.1752,-2.1077,-2.0633,-2.0245,-1.9952,-1.9798,-1.9798,-1.9798,-1.9798,-1.9798,-1.9798,-1.9798,-1.9798,-1.9798,-1.9798,-1.9798,-1.9798,-1.9798,-1.9798,-1.9798,-1.9798,-1.9798,-1.9798,-1.985,-1.9901,-1.9991,-2.0792,-2.1649,-2.2271,-2.298,-2.2935,-2.2575,-2.21,-2.1486,-2.1064,-2.0966,-2.0868,-2.057,-2.0706,-2.037,-1.994,-2.0534,-2.1272,-2.1595,-2.2021,-2.2725,-2.3319,-2.3508,-2.3595,-2.3595,-2.3595,-2.3595,-2.3595,-2.3595,-2.3595,-2.3595,-2.3595,-2.3595,-2.3595,-2.3595,-2.3595,-3.8781,-3.8927,-3.8927,-3.8836,-3.8609,-3.8249,-3.7579,-3.6728,-3.5942,-3.5183,-3.4483,-3.4096,-3.4414,-3.5509,-3.4928,-3.4928,-3.5436,-3.5554,-3.5639,-3.5639,-3.5487,-3.5165,-3.457,-3.3667,-3.2418,-3.137,-3.03,-2.9348,-2.9388,-2.8888,-2.8293,-2.788,-2.7739,-2.729,-2.6826,-2.6602,-2.6213,-2.5315,-2.4837,-2.4462,-2.3939,-2.3909,-2.3864,-2.3819,-2.3774,-2.3714,-2.3729,-2.4163,-2.4014,-2.3658,-2.3157,-2.262,-2.21,-2.1643,-2.114,-2.0746,-2.0359,-2.0105,-1.985,-1.9798,-1.9798,-1.9798,-1.9798,-1.9798,-1.9798,-1.9798,-1.9798,-1.9798,-1.9798,-1.9798,-1.9798,-1.9798,-1.9798,-1.9798,-1.9798,-1.9798,-1.9798,-1.994,-2.0042,-2.0557,-2.1266,-2.1852,-2.2253,-2.2575,-2.2529,-2.2146,-2.1819,-2.1245,-2.0746,-2.0646,-2.0497,-2.0194,-1.985,-1.9798,-1.985,-2.0295,-2.0894,-2.1161,-2.1677,-2.2665,-2.3319,-2.3508,-2.3595,-2.3595,-2.3595,-2.3595,-2.3595,-2.3595,-2.3595,-2.3595,-2.3595,-2.3595,-2.3595,-2.3595,-2.3595]},{"header":{"parameterUnit":"m.s-1","parameterCategory":1,"la1":31.0,"la2":29.5877,"lo1":-88.7671,"lo2":-86.6584,"dy":0.0162,"dx":0.0185,"nx":115,"ny":88,"refTime":"2023-06-25T00:00:00:Z","depth":0,"parameterNumber":3,"parameterNumberName":"V-component_of_WINDS"},"data":[0.0,0.0,0.0,0.0,0.0,0.0,0.0,0.0,0.0,0.0,0.0,0.0,0.0,0.0,0.0,0.0,0.0,0.0,0.0,0.0,0.0,0.0,0.0,0.0,0.0,0.0,0.0,0.0,0.0,0.0,0.0,0.0,0.0,0.0,0.0,0.0,0.0,0.0,0.0,0.0,0.0,0.0,0.0,0.0,0.0,0.0,0.0,0.0,0.0,0.0,0.0,0.0,0.0,0.0,0.0,0.0,0.0,0.0,0.0,0.0,0.0,0.0,0.0,0.0,0.0,0.0,0.0,0.0,0.0,0.0,0.0,0.0,0.0,0.0,0.0,0.0,0.0,0.0,0.0,0.0,0.0,0.0,0.0,0.0,0.0,0.0,0.0,0.0,0.0,0.0,0.0,0.0,0.0,0.0,0.0,0.0,0.0,0.0,0.0,0.0,0.0,0.0,0.0,0.0,0.0,0.0,0.0,0.0,0.0,0.0,0.0,0.0,0.0,0.0,0.0,0.0,0.0,0.0,0.0,0.0,0.0,0.0,0.0,0.0,0.0,0.0,0.0,0.0,0.0,0.0,0.0,0.0,0.0,0.0,0.0,0.0,0.0,0.0,0.0,0.0,0.0,0.0,0.0,0.0,0.0,0.0,0.0,0.0,0.0,0.0,0.0,0.0,0.0,0.0,0.0,0.0,0.0,0.0,0.0,0.0,0.0,0.0,0.0,0.0,0.0,0.0,0.0,0.0,0.0,0.0,0.0,0.0,0.0,0.0,0.0,0.0,0.0,0.0,0.0,0.0,0.0,0.0,0.0,0.0,0.0,0.0,0.0,0.0,0.0,0.0,0.0,0.0,0.0,0.0,0.0,0.0,0.0,0.0,0.0,0.0,0.0,0.0,0.0,0.0,0.0,0.0,0.0,0.0,0.0,0.0,0.0,0.0,0.0,0.0,0.0,0.0,0.0,0.0,0.0,0.0,0.0,0.0,0.0,0.0,0.0,0.0,0.0,0.0,0.0,0.0,0.0,0.0,0.0,0.0,0.0,0.0,0.0,0.0,0.0,0.0,0.0,0.0,0.0,0.0,0.0,0.0,0.0,0.0,0.0,0.0,0.0,0.0,0.0,0.0,0.0,0.0,0.0,0.0,0.0,0.0,0.0,0.0,0.0,0.0,0.0,0.0,0.0,0.0,0.0,0.0,0.0,0.0,0.0,0.0,0.0,0.0,0.0,0.0,0.0,0.0,0.0,0.0,0.0,0.0,0.0,0.0,0.0,0.0,0.0,0.0,0.0,0.0,0.0,0.0,0.0,0.0,0.0,0.0,0.0,0.0,0.0,0.0,0.0,0.0,0.0,0.0,0.0,0.0,0.0,0.0,0.0,0.0,0.0,0.0,0.0,0.0,0.0,0.0,0.0,0.0,0.0,0.0,0.0,0.0,0.0,0.0,0.0,0.0,0.0,0.0,0.0,0.0,0.0,0.0,0.0,0.0,0.0,0.0,0.0,0.0,0.0,0.0,0.0,0.0,0.0,0.0,0.0,0.0,0.0,0.0,0.0,0.0,0.0,0.0,0.0,0.0,0.0,0.0,0.0,0.0,0.0,0.0,0.0,0.0,0.0,0.0,0.0,0.0,0.0,0.0,0.0,0.0,0.0,0.0,0.0,0.0,0.0,0.0,0.0,0.0,0.0,0.0,0.0,0.0,0.0,0.0,0.0,0.0,0.0,0.0,0.0,0.0,0.0,0.0,0.0,0.0,0.0,0.0,0.0,0.0,0.0,0.0,0.0,0.0,0.0,0.0,0.0,0.0,0.0,0.0,0.0,0.0,0.0,0.0,0.0,0.0,0.0,0.0,0.0,0.0,0.0,0.0,0.0,0.0,0.0,0.0,0.0,0.0,0.0,0.0,0.0,0.0,0.0,0.0,0.0,0.0,0.0,0.0,0.0,0.0,0.0,0.0,0.0,0.0,0.0,0.0,0.0,0.0,0.0,0.0,0.0,0.0,0.0,0.0,0.0,0.0,0.0,0.0,0.0,0.0,0.0,0.0,0.0,0.0,0.0,0.0,0.0,0.0,0.0,0.0,0.0,0.0,0.0,0.0,0.0,0.0,0.0,0.0,0.0,0.0,0.0,0.0,0.0,0.0,0.0,0.0,0.0,0.0,0.0,0.0,0.0,0.0,0.0,0.0,0.0,0.0,0.0,0.0,0.0,0.0,0.0,0.0,0.0,0.0,0.0,0.0,0.0,0.0,0.0,0.0,0.0,0.0,0.0,0.0,0.0,0.0,0.0,0.0,0.0,0.0,0.0,0.0,0.0,0.0,0.0,0.0,0.0,0.0,0.0,0.0,0.0,0.0,0.0,0.0,0.0,0.0,0.0,0.0,0.0,0.0,0.0,0.0,0.0,0.0,0.0,0.0,0.0,0.0,0.0,0.0,0.0,0.0,0.0,0.0,0.0,0.0,0.0,0.0,0.0,0.0,0.0,0.0,0.0,0.0,0.0,0.0,0.0,0.0,0.0,0.0,0.0,0.0,0.0,0.0,0.0,0.0,0.0,0.0,0.0,0.0,0.0,0.0,0.0,0.0,0.0,0.0,0.0,0.0,0.0,0.0,0.0,0.0,0.0,0.0,0.0,0.0,0.0,0.0,0.0,0.0,0.0,0.0,0.0,0.0,0.0,0.0,0.0,0.0,0.0,0.0,0.0,0.0,0.0,0.0,0.0,0.0,0.0,0.0,0.0,0.0,0.0,0.0,0.0,0.0,0.0,0.0,0.0,0.0,0.0,0.0,0.0,0.0,0.0,0.0,0.0,0.0,0.0,0.0,0.0,0.0,0.0,0.0,0.0,0.0,0.0,0.0,0.0,0.0,0.0,0.0,0.0,0.0,0.0,0.0,0.0,0.0,0.0,0.0,0.0,0.0,0.0,0.0,0.0,0.0,0.0,0.0,0.0,0.0,0.0,0.0,0.0,0.0,0.0,0.0,0.0,0.0,0.0,0.0,0.0,0.0,0.0,0.0,0.0,0.0,0.0,0.0,0.0,0.0,0.0,0.0,0.0,0.0,0.0,0.0,0.0,0.0,0.0,0.0,0.0,0.0,0.0,0.0,0.0,0.0,0.0,0.0,0.0,0.0,0.0,0.0,0.0,0.0,0.0,0.0,0.0,0.0,0.0,0.0,0.0,0.0,0.0,0.0,0.0,0.0,0.0,0.0,0.0,0.0,0.0,0.0,0.0,0.0,0.0,0.0,0.0,0.0,0.0,0.0,0.0,0.0,0.0,0.0,0.0,0.0,0.0,0.0,0.0,0.0,0.0,0.0,0.0,0.0,0.0,0.0,0.0,0.0,0.0,0.0,0.0,0.0,0.0,0.0,0.0,0.0,0.0,0.0,0.0,0.0,0.0,0.0,0.0,0.0,0.0,0.0,0.0,0.0,0.0,0.0,0.0,0.0,0.0,0.0,0.0,0.0,0.0,0.0,0.0,0.0,0.0,0.0,0.0,0.0,0.0,0.0,0.0,0.0,0.0,0.0,0.0,0.0,0.0,0.0,0.0,0.0,0.0,0.0,0.0,0.0,0.0,0.0,0.0,0.0,0.0,0.0,0.0,0.0,0.0,0.0,0.0,0.0,0.0,0.0,0.0,0.0,0.0,0.0,0.0,0.0,0.0,0.0,0.0,0.0,0.0,0.0,0.0,0.0,0.0,0.0,0.0,0.0,0.0,0.0,0.0,0.0,0.0,0.0,0.0,0.0,0.0,0.0,0.0,0.0,0.0,0.0,0.0,0.0,0.0,0.0,0.0,0.0,0.0,0.0,0.0,0.0,0.0,0.0,0.0,0.0,0.0,0.0,0.0,0.0,0.0,0.0,0.0,0.0,0.0,0.0,0.0,0.0,0.0,0.0,0.0,0.0,0.0,0.0,0.0,0.0,0.0,0.0,0.0,0.0,0.0,0.0,0.0,0.0,0.0,0.0,0.0,0.0,0.0,0.0,0.0,0.0,0.0,0.0,0.0,0.0,0.0,0.0,0.0,0.0,0.0,0.0,0.0,0.0,0.0,0.0,0.0,0.0,0.0,0.0,0.0,0.0,0.0,0.0,0.0,0.0,0.0,0.0,0.0,0.0,0.0,0.0,0.0,0.0,0.0,0.0,0.0,0.0,0.0,0.0,0.0,0.0,0.0,0.0,0.0,0.0,0.0,0.0,0.0,0.0,0.0,0.0,0.0,0.0,0.0,0.0,0.0,0.0,0.0,0.0,0.0,0.0,0.0,0.0,-1.0006,0.0,0.0,0.0,0.0,0.0,0.0,0.0,0.0,0.0,0.0,0.0,0.0,0.0,0.0,0.0,0.0,0.0,0.0,0.0,0.0,0.0,0.0,0.0,0.0,0.0,0.0,0.0,0.0,0.0,0.0,0.0,0.0,0.0,0.0,0.0,0.0,0.0,0.0,0.0,0.0,0.0,0.0,0.0,0.0,0.0,0.0,0.0,0.0,0.0,0.0,0.0,0.0,0.0,0.0,0.0,0.0,0.0,0.0,0.0,0.0,0.0,0.0,0.0,0.0,0.0,0.0,0.0,0.0,0.0,0.0,0.0,0.0,0.0,0.0,0.0,0.0,0.0,0.0,0.0,0.0,0.0,0.0,0.0,0.0,0.0,0.0,0.0,0.0,0.0,0.0,0.0,0.0,0.0,0.0,0.0,0.0,0.0,0.0,0.0,0.0,0.0,0.0,0.0,0.0,0.0,0.0,0.0,0.0,0.0,0.0,-0.699,-0.7004,-0.8576,-0.9511,-0.9832,0.0,0.0,0.0,0.0,0.0,0.0,0.0,0.0,0.0,0.0,0.0,0.0,0.0,0.0,0.0,0.0,0.0,0.0,0.0,0.0,0.0,0.0,0.0,0.0,0.0,0.0,0.0,0.0,0.0,0.0,0.0,0.0,0.0,0.0,0.0,0.0,0.0,0.0,0.0,0.0,0.0,0.0,0.0,0.0,0.0,0.0,0.0,0.0,0.0,0.0,0.0,0.0,0.0,0.0,0.0,0.0,0.0,0.0,0.0,0.0,0.0,0.0,0.0,0.0,0.0,0.0,0.0,0.0,0.0,0.0,0.0,0.0,0.0,0.0,0.0,0.0,0.0,0.0,0.0,0.0,0.0,0.0,0.0,0.0,0.0,0.0,0.0,0.0,0.0,0.0,0.0,0.0,0.0,0.0,0.0,0.0,0.0,0.0,0.0,0.0,0.0,0.0,0.0,0.0,0.0,0.0,0.0,0.0,0.0,0.0,0.0,0.0,-0.8463,-0.9823,-1.0392,0.0,0.0,0.0,0.0,0.0,0.0,0.0,0.0,0.0,0.0,0.0,0.0,0.0,0.0,0.0,0.0,0.0,0.0,0.0,0.0,0.0,0.0,0.0,0.0,0.0,0.0,0.0,0.0,0.0,0.0,0.0,0.0,0.0,0.0,0.0,0.0,0.0,0.0,0.0,0.0,0.0,0.0,0.0,0.0,0.0,0.0,0.0,0.0,0.0,0.0,0.0,0.0,0.0,0.0,0.0,0.0,0.0,0.0,0.0,0.0,0.0,0.0,0.0,0.0,0.0,0.0,0.0,0.0,0.0,0.0,0.0,0.0,0.0,0.0,0.0,0.0,0.0,0.0,0.0,0.0,0.0,0.0,0.0,0.0,0.0,0.0,0.0,0.0,0.0,0.0,0.0,0.0,0.0,0.0,0.0,0.0,0.0,0.0,0.0,0.0,0.0,0.0,0.0,0.0,0.0,0.0,0.0,0.0,0.0,0.0,-0.6034,-0.5748,-0.8042,0.0,-1.2117,0.0,0.0,0.0,0.0,0.0,0.0,0.0,0.0,0.0,0.0,0.0,0.0,0.0,0.0,0.0,0.0,0.0,0.0,0.0,0.0,0.0,0.0,0.0,0.0,0.0,0.0,0.0,0.0,0.0,0.0,0.0,0.0,0.0,0.0,0.0,0.0,0.0,0.0,0.0,0.0,0.0,0.0,0.0,0.0,0.0,0.0,0.0,0.0,0.0,0.0,0.0,0.0,0.0,0.0,0.0,0.0,0.0,0.0,0.0,0.0,0.0,0.0,0.0,0.0,0.0,0.0,0.0,0.0,0.0,0.0,0.0,0.0,0.0,0.0,0.0,0.0,0.0,0.0,0.0,0.0,0.0,0.0,0.0,0.0,0.0,0.0,0.0,0.0,0.0,0.0,0.0,0.0,0.0,0.0,0.0,0.0,0.0,0.0,0.0,0.0,0.0,0.0,0.0,0.0,0.0,0.0,0.0,0.0,0.0,0.0,-0.5193,-0.5341,-0.7628,-1.0,0.0,0.0,0.0,0.0,0.0,0.0,0.0,0.0,0.0,0.0,0.0,0.0,0.0,0.0,0.0,0.0,0.0,0.0,0.0,0.0,0.0,0.0,0.0,0.0,0.0,0.0,0.0,0.0,0.0,0.0,0.0,0.0,0.0,0.0,0.0,0.0,0.0,0.0,0.0,0.0,0.0,0.0,0.0,0.0,0.0,0.0,0.0,0.0,0.0,0.0,0.0,0.0,0.0,0.0,0.0,0.0,0.0,0.0,0.0,0.0,0.0,0.0,0.0,0.0,0.0,0.0,0.0,0.0,0.0,0.0,0.0,0.0,0.0,0.0,0.0,0.0,0.0,0.0,0.0,0.0,0.0,0.0,0.0,0.0,0.0,0.0,0.0,0.0,0.0,0.0,0.0,0.0,0.0,0.0,0.0,0.0,0.0,0.0,0.0,0.0,0.0,0.0,0.0,0.0,0.0,0.0,0.0,0.0,0.0,0.0,-0.418,-0.4682,-0.5821,-0.7667,-0.9817,-1.2069,0.0,0.0,0.0,0.0,0.0,0.0,0.0,0.0,0.0,0.0,0.0,0.0,0.0,0.0,0.0,0.0,0.0,0.0,0.0,0.0,0.0,0.0,0.0,0.0,0.0,0.0,0.0,0.0,0.0,0.0,0.0,0.0,0.0,0.0,0.0,0.0,0.0,0.0,0.0,0.0,0.0,0.0,0.0,0.0,0.0,0.0,0.0,0.0,0.0,0.0,0.0,0.0,0.0,0.0,0.0,0.0,0.0,0.0,0.0,0.0,0.0,0.0,0.0,0.0,0.0,0.0,0.0,0.0,0.0,0.0,0.0,0.0,0.0,0.0,0.0,0.0,0.0,0.0,0.0,0.0,0.0,0.0,0.0,0.0,0.0,0.0,0.0,0.0,0.0,0.0,0.0,0.0,0.0,0.0,0.0,0.0,0.0,0.0,0.0,0.0,0.0,0.0,0.0,0.0,0.0,0.0,0.0,0.0,-0.4115,-0.3639,-0.4728,-0.7346,-0.8408,-1.0032,0.0,0.0,0.0,0.0,0.0,0.0,0.0,0.0,0.0,0.0,0.0,0.0,0.0,0.0,0.0,0.0,0.0,0.0,0.0,0.0,0.0,0.0,0.0,0.0,0.0,0.0,0.0,0.0,0.0,0.0,0.0,0.0,0.0,0.0,0.0,0.0,0.0,0.0,0.0,0.0,0.0,0.0,0.0,0.0,0.0,0.0,0.0,0.0,0.0,0.0,0.0,0.0,0.0,0.0,0.0,0.0,0.0,0.0,0.0,0.0,0.0,0.0,0.0,0.0,0.0,0.0,0.0,0.0,0.0,0.0,0.0,0.0,0.0,0.0,0.0,0.0,0.0,0.0,0.0,0.0,0.0,0.0,0.0,0.0,0.0,0.0,0.0,0.0,0.0,0.0,0.0,0.0,0.0,0.0,0.0,0.0,0.0,0.0,0.0,0.0,0.0,0.0,0.0,0.0,0.0,0.0,0.0,0.0,0.0,-0.4206,-0.3833,-0.4742,-0.6775,-0.7902,-0.9534,0.0,0.0,0.0,0.0,0.0,0.0,0.0,0.0,0.0,0.0,0.0,0.0,0.0,0.0,0.0,0.0,0.0,0.0,0.0,0.0,0.0,0.0,0.0,0.0,0.0,0.0,0.0,0.0,0.0,0.0,0.0,0.0,0.0,0.0,0.0,0.0,0.0,0.0,0.0,0.0,0.0,0.0,0.0,0.0,0.0,0.0,0.0,0.0,0.0,0.0,0.0,0.0,0.0,0.0,0.0,0.0,0.0,0.0,0.0,0.0,0.0,0.0,0.0,0.0,0.0,0.0,0.0,0.0,0.0,0.0,0.0,0.0,0.0,0.0,0.0,0.0,0.0,0.0,0.0,0.0,0.0,0.0,0.0,0.0,0.0,0.0,0.0,0.0,0.0,0.0,0.0,0.0,0.0,0.0,0.0,0.0,0.0,0.0,0.0,0.0,0.0,0.0,0.0,0.0,0.0,0.0,0.0,0.0,0.0,-0.4197,0.0,-0.4837,-0.6298,-0.7527,-0.9275,0.0,0.0,0.0,0.0,0.0,0.0,0.0,0.0,0.0,0.0,0.0,0.0,0.0,0.0,0.0,0.0,0.0,0.0,0.0,0.0,0.0,0.0,0.0,0.0,0.0,0.0,0.0,0.0,0.0,0.0,0.0,0.0,0.0,0.0,0.0,0.0,0.0,0.0,0.0,0.0,0.0,0.0,0.0,0.0,0.0,0.0,0.0,0.0,0.0,0.0,0.0,0.0,0.0,0.0,0.0,0.0,0.0,0.0,0.0,0.0,0.0,0.0,0.0,0.0,0.0,0.0,0.0,0.0,0.0,0.0,0.0,0.0,0.0,0.0,0.0,0.0,0.0,0.0,0.0,0.0,0.0,0.0,0.0,0.0,0.0,0.0,0.0,0.0,0.0,0.0,0.0,0.0,0.0,0.0,0.0,0.0,0.0,0.0,0.0,0.0,0.0,0.0,0.0,0.0,0.0,0.0,0.0,0.0,-0.6328,-0.4161,-0.4389,-0.5097,-0.6142,-0.7482,-0.9087,0.0,0.0,0.0,0.0,0.0,0.0,0.0,0.0,0.0,0.0,0.0,0.0,0.0,0.0,0.0,0.0,0.0,0.0,0.0,0.0,0.0,0.0,0.0,0.0,0.0,0.0,0.0,0.0,0.0,0.0,0.0,0.0,0.0,0.0,0.0,0.0,0.0,0.0,0.0,0.0,0.0,0.0,0.0,0.0,0.0,0.0,0.0,0.0,0.0,0.0,0.0,0.0,0.0,0.0,0.0,0.0,0.0,0.0,0.0,0.0,0.0,0.0,0.0,0.0,0.0,0.0,0.0,0.0,0.0,0.0,0.0,0.0,0.0,0.0,0.0,0.0,0.0,0.0,0.0,0.0,0.0,0.0,0.0,0.0,0.0,0.0,0.0,0.0,0.0,0.0,0.0,0.0,0.0,0.0,0.0,0.0,0.0,0.0,0.0,0.0,0.0,0.0,0.0,0.0,0.0,0.0,0.0,0.0,0.0,-0.484,-0.5223,-0.6215,-0.7719,-0.8041,-0.9407,0.0,0.0,0.0,0.0,0.0,0.0,0.0,0.0,0.0,0.0,0.0,0.0,0.0,0.0,0.0,0.0,0.0,0.0,0.0,0.0,0.0,0.0,0.0,0.0,0.0,0.0,0.0,0.0,0.0,0.0,0.0,0.0,0.0,0.0,0.0,0.0,0.0,0.0,0.0,0.0,0.0,0.0,0.0,0.0,0.0,0.0,0.0,0.0,0.0,0.0,0.0,0.0,0.0,0.0,0.0,0.0,0.0,0.0,0.0,0.0,0.0,0.0,0.0,0.0,0.0,0.0,0.0,0.0,0.0,0.0,0.0,0.0,0.0,0.0,0.0,0.0,0.0,0.0,0.0,0.0,0.0,0.0,0.0,0.0,0.0,0.0,0.0,0.0,0.0,0.0,0.0,0.0,0.0,0.0,0.0,0.0,0.0,0.0,0.0,0.0,0.0,0.0,0.0,0.0,0.0,0.0,0.0,0.0,0.0,-0.6687,-0.6554,-0.7265,-0.8662,-0.8477,-0.9567,-1.218,0.0,0.0,0.0,0.0,0.0,0.0,0.0,0.0,0.0,0.0,0.0,0.0,0.0,0.0,0.0,0.0,0.0,0.0,0.0,0.0,0.0,0.0,0.0,0.0,0.0,0.0,0.0,0.0,0.0,0.0,0.0,0.0,0.0,0.0,0.0,0.0,0.0,0.0,0.0,0.0,0.0,0.0,0.0,0.0,0.0,0.0,0.0,0.0,0.0,0.0,0.0,0.0,0.0,0.0,0.0,0.0,0.0,0.0,0.0,0.0,0.0,0.0,0.0,0.0,0.0,0.0,0.0,0.0,0.0,0.0,0.0,0.0,0.0,0.0,0.0,0.0,0.0,0.0,0.0,0.0,0.0,0.0,0.0,0.0,0.0,0.0,0.0,0.0,0.0,0.0,0.0,0.0,0.0,0.0,0.0,0.0,0.0,0.0,0.0,0.0,0.0,0.0,0.0,0.0,0.0,0.0,0.0,0.0,-0.9154,-0.8411,-0.8272,-0.891,-0.8692,-0.9598,0.0,0.0,0.0,0.0,0.0,0.0,0.0,0.0,0.0,0.0,0.0,0.0,0.0,0.0,0.0,0.0,0.0,0.0,0.0,0.0,0.0,0.0,0.0,0.0,0.0,0.0,0.0,0.0,0.0,0.0,0.0,0.0,0.0,0.0,0.0,0.0,0.0,0.0,0.0,0.0,0.0,0.0,0.0,0.0,0.0,0.0,0.0,0.0,0.0,0.0,0.0,0.0,0.0,0.0,0.0,0.0,0.0,0.0,0.0,0.0,0.0,0.0,0.0,0.0,0.0,0.0,0.0,0.0,0.0,0.0,0.0,0.0,0.0,0.0,0.0,0.0,0.0,0.0,0.0,0.0,0.0,0.0,0.0,0.0,0.0,0.0,0.0,0.0,0.0,0.0,0.0,0.0,0.0,0.0,0.0,0.0,0.0,0.0,0.0,0.0,0.0,0.0,0.0,0.0,0.0,0.0,0.0,0.0,0.0,-0.9377,-0.9701,-1.0009,-1.0285,-0.9698,-1.0302,0.0,0.0,0.0,0.0,0.0,0.0,0.0,0.0,0.0,0.0,0.0,0.0,0.0,0.0,0.0,0.0,0.0,0.0,0.0,0.0,0.0,0.0,0.0,0.0,0.0,0.0,0.0,0.0,0.0,0.0,0.0,0.0,0.0,0.0,0.0,0.0,0.0,0.0,0.0,0.0,0.0,0.0,0.0,0.0,0.0,0.0,0.0,0.0,0.0,0.0,0.0,0.0,0.0,0.0,0.0,0.0,0.0,0.0,0.0,0.0,0.0,0.0,0.0,0.0,0.0,0.0,0.0,0.0,0.0,0.0,0.0,0.0,0.0,0.0,0.0,0.0,0.0,0.0,0.0,0.0,0.0,0.0,0.0,0.0,0.0,0.0,0.0,0.0,0.0,0.0,0.0,0.0,0.0,0.0,0.0,0.0,0.0,0.0,0.0,0.0,0.0,0.0,0.0,0.0,0.0,0.0,0.0,0.0,-0.9935,-1.0022,-1.0531,-1.1354,-1.2084,-1.1265,-1.1281,0.0,0.0,0.0,0.0,0.0,0.0,0.0,0.0,0.0,0.0,0.0,0.0,0.0,0.0,0.0,0.0,0.0,0.0,0.0,0.0,0.0,0.0,0.0,0.0,0.0,0.0,0.0,0.0,0.0,0.0,0.0,0.0,0.0,0.0,0.0,0.0,0.0,0.0,0.0,0.0,0.0,0.0,0.0,0.0,0.0,0.0,0.0,0.0,0.0,0.0,0.0,0.0,0.0,0.0,0.0,0.0,0.0,0.0,0.0,0.0,0.0,0.0,0.0,0.0,0.0,0.0,0.0,0.0,0.0,0.0,0.0,0.0,0.0,0.0,0.0,0.0,0.0,0.0,0.0,0.0,0.0,0.0,0.0,0.0,0.0,0.0,0.0,0.0,0.0,0.0,0.0,0.0,0.0,0.0,0.0,0.0,0.0,0.0,0.0,0.0,0.0,0.0,0.0,0.0,0.0,0.0,0.0,0.0,-1.0685,-1.0671,-1.1212,-1.2235,-1.3861,-1.2872,-1.2508,0.0,0.0,0.0,0.0,0.0,0.0,0.0,0.0,0.0,0.0,0.0,0.0,0.0,0.0,0.0,0.0,0.0,0.0,0.0,0.0,0.0,0.0,0.0,0.0,0.0,0.0,0.0,0.0,0.0,0.0,0.0,0.0,0.0,0.0,0.0,0.0,0.0,0.0,0.0,0.0,0.0,0.0,0.0,0.0,0.0,0.0,0.0,0.0,0.0,0.0,0.0,0.0,0.0,0.0,0.0,0.0,0.0,0.0,0.0,0.0,0.0,0.0,0.0,0.0,0.0,0.0,0.0,0.0,0.0,0.0,0.0,0.0,0.0,0.0,0.0,0.0,0.0,0.0,0.0,0.0,0.0,0.0,0.0,0.0,0.0,0.0,0.0,0.0,0.0,0.0,0.0,0.0,0.0,0.0,0.0,0.0,0.0,0.0,0.0,0.0,0.0,0.0,0.0,0.0,0.0,0.0,0.0,0.0,-1.0447,-1.0308,-1.2011,-1.3333,-1.3866,-1.3012,-1.3297,0.0,0.0,0.0,0.0,0.0,0.0,0.0,0.0,0.0,0.0,0.0,0.0,0.0,0.0,0.0,0.0,0.0,0.0,0.0,0.0,0.0,0.0,0.0,0.0,0.0,0.0,0.0,0.0,0.0,0.0,0.0,0.0,0.0,0.0,0.0,0.0,0.0,0.0,0.0,0.0,0.0,0.0,0.0,0.0,0.0,0.0,0.0,0.0,-1.637,0.0,0.0,0.0,0.0,0.0,0.0,0.0,0.0,0.0,0.0,0.0,0.0,0.0,0.0,0.0,0.0,0.0,0.0,0.0,0.0,0.0,0.0,0.0,0.0,0.0,0.0,0.0,0.0,0.0,0.0,0.0,0.0,0.0,0.0,0.0,0.0,0.0,0.0,0.0,0.0,0.0,0.0,0.0,0.0,0.0,0.0,0.0,0.0,0.0,0.0,0.0,0.0,0.0,0.0,0.0,0.0,0.0,0.0,0.0,-1.2422,-1.2695,-1.3855,-1.5016,-1.6111,-1.5291,-1.5137,0.0,0.0,0.0,0.0,0.0,0.0,0.0,0.0,0.0,0.0,0.0,0.0,0.0,0.0,0.0,0.0,0.0,0.0,0.0,0.0,0.0,0.0,0.0,0.0,0.0,0.0,0.0,0.0,0.0,0.0,0.0,0.0,0.0,0.0,0.0,0.0,0.0,0.0,0.0,0.0,0.0,0.0,0.0,0.0,0.0,0.0,0.0,0.0,0.0,0.0,0.0,0.0,0.0,0.0,0.0,0.0,0.0,0.0,0.0,0.0,0.0,0.0,0.0,0.0,0.0,0.0,0.0,0.0,0.0,0.0,0.0,0.0,0.0,0.0,0.0,0.0,0.0,0.0,0.0,0.0,0.0,0.0,0.0,0.0,0.0,0.0,0.0,0.0,0.0,0.0,0.0,0.0,0.0,0.0,0.0,0.0,0.0,0.0,0.0,0.0,0.0,0.0,0.0,0.0,0.0,0.0,0.0,-1.4516,-1.4607,-1.5387,-1.5802,-1.7001,-1.8765,-1.8227,-1.7398,-1.6582,0.0,0.0,0.0,0.0,0.0,0.0,0.0,0.0,0.0,0.0,0.0,0.0,0.0,0.0,0.0,0.0,0.0,0.0,0.0,0.0,0.0,0.0,0.0,0.0,0.0,0.0,0.0,0.0,0.0,0.0,0.0,0.0,0.0,0.0,0.0,0.0,0.0,0.0,-1.0894,-1.0412,0.0,0.0,0.0,0.0,0.0,0.0,0.0,0.0,-1.8844,0.0,0.0,0.0,0.0,0.0,0.0,0.0,0.0,0.0,0.0,0.0,0.0,0.0,0.0,0.0,0.0,0.0,0.0,0.0,0.0,0.0,0.0,0.0,0.0,0.0,0.0,0.0,0.0,0.0,0.0,0.0,0.0,0.0,0.0,0.0,0.0,0.0,0.0,0.0,0.0,0.0,0.0,0.0,0.0,0.0,0.0,0.0,0.0,0.0,0.0,0.0,0.0,0.0,0.0,0.0,0.0,-1.6072,-1.4873,-1.4489,-1.4892,-1.6772,-1.7828,-1.8248,-1.945,-1.9734,-1.8746,0.0,0.0,0.0,0.0,0.0,0.0,0.0,0.0,0.0,0.0,0.0,0.0,0.0,0.0,0.0,0.0,0.0,0.0,0.0,0.0,0.0,0.0,0.0,0.0,0.0,0.0,0.0,0.0,0.0,0.0,0.0,0.0,0.0,0.0,0.0,0.0,0.0,0.0,0.0,-1.2858,-1.3378,0.0,0.0,0.0,0.0,0.0,0.0,0.0,0.0,-2.3835,0.0,0.0,0.0,0.0,0.0,0.0,0.0,0.0,0.0,0.0,0.0,0.0,0.0,0.0,0.0,0.0,0.0,0.0,0.0,0.0,0.0,0.0,0.0,0.0,0.0,0.0,0.0,0.0,0.0,0.0,0.0,0.0,0.0,0.0,0.0,0.0,0.0,0.0,0.0,0.0,0.0,0.0,0.0,0.0,0.0,0.0,0.0,0.0,0.0,0.0,0.0,0.0,0.0,0.0,0.0,-1.6917,-1.6369,-1.6441,-1.7114,-1.8391,-1.9041,-1.9167,-1.9886,-1.9822,0.0,0.0,0.0,0.0,0.0,0.0,0.0,0.0,0.0,0.0,0.0,0.0,0.0,0.0,0.0,0.0,0.0,0.0,0.0,0.0,0.0,0.0,0.0,0.0,0.0,0.0,0.0,0.0,0.0,0.0,0.0,0.0,0.0,0.0,0.0,0.0,0.0,0.0,0.0,0.0,-1.4702,-1.5205,-1.6499,0.0,0.0,0.0,0.0,0.0,0.0,-2.3194,-2.4757,0.0,0.0,0.0,0.0,0.0,0.0,0.0,0.0,0.0,0.0,0.0,0.0,0.0,0.0,0.0,0.0,0.0,0.0,0.0,0.0,0.0,0.0,0.0,0.0,0.0,0.0,0.0,0.0,0.0,0.0,0.0,0.0,0.0,0.0,0.0,0.0,0.0,0.0,0.0,0.0,0.0,0.0,0.0,0.0,0.0,0.0,0.0,0.0,0.0,0.0,0.0,0.0,0.0,0.0,0.0,-1.7875,-1.7656,-1.805,-1.9145,-1.9533,-1.9826,-2.0047,-1.9827,-1.9479,0.0,0.0,0.0,0.0,0.0,0.0,0.0,0.0,0.0,0.0,0.0,0.0,0.0,0.0,0.0,0.0,0.0,0.0,0.0,0.0,0.0,0.0,0.0,0.0,0.0,0.0,0.0,0.0,0.0,0.0,0.0,0.0,0.0,0.0,0.0,0.0,0.0,0.0,0.0,0.0,0.0,-1.7244,-1.8771,-1.8669,0.0,0.0,0.0,0.0,-2.2716,-2.4527,0.0,0.0,0.0,0.0,0.0,0.0,0.0,0.0,0.0,0.0,0.0,0.0,0.0,0.0,0.0,0.0,0.0,0.0,0.0,0.0,0.0,0.0,0.0,0.0,0.0,0.0,0.0,0.0,0.0,0.0,0.0,0.0,0.0,0.0,0.0,0.0,0.0,0.0,0.0,0.0,0.0,0.0,0.0,0.0,0.0,0.0,0.0,0.0,0.0,0.0,0.0,0.0,0.0,0.0,0.0,0.0,-1.8729,-1.7753,-1.7649,-1.8564,-1.9132,-1.9432,-1.9466,-1.9625,-1.9703,0.0,0.0,0.0,0.0,0.0,0.0,0.0,0.0,0.0,0.0,0.0,0.0,0.0,0.0,0.0,0.0,0.0,0.0,0.0,0.0,0.0,0.0,0.0,0.0,0.0,0.0,0.0,0.0,0.0,0.0,0.0,0.0,0.0,0.0,0.0,0.0,0.0,0.0,0.0,0.0,0.0,-1.9694,-2.1824,-2.1402,-2.135,0.0,0.0,-2.6051,-2.6266,-2.8972,0.0,0.0,0.0,0.0,0.0,0.0,0.0,0.0,0.0,0.0,0.0,0.0,0.0,0.0,0.0,0.0,0.0,0.0,0.0,0.0,0.0,0.0,0.0,0.0,0.0,0.0,0.0,0.0,0.0,0.0,0.0,0.0,0.0,0.0,0.0,0.0,0.0,0.0,0.0,0.0,0.0,0.0,0.0,0.0,0.0,0.0,0.0,0.0,0.0,0.0,0.0,0.0,0.0,0.0,0.0,-1.8089,-1.8613,-1.7747,-1.7589,-1.8464,-1.8905,-1.9441,-2.0203,-1.9708,-1.9711,0.0,0.0,0.0,0.0,0.0,0.0,0.0,0.0,0.0,0.0,0.0,0.0,0.0,0.0,0.0,0.0,0.0,0.0,0.0,0.0,0.0,0.0,0.0,0.0,0.0,0.0,0.0,0.0,0.0,0.0,0.0,0.0,0.0,0.0,0.0,0.0,0.0,0.0,0.0,0.0,0.0,0.0,-2.237,-2.3222,0.0,0.0,0.0,-2.7137,-2.665,0.0,0.0,0.0,0.0,0.0,0.0,0.0,0.0,0.0,0.0,0.0,0.0,0.0,0.0,0.0,0.0,0.0,0.0,0.0,0.0,0.0,0.0,0.0,0.0,0.0,0.0,0.0,0.0,0.0,0.0,0.0,0.0,0.0,0.0,0.0,0.0,0.0,0.0,0.0,0.0,0.0,0.0,0.0,0.0,0.0,0.0,0.0,0.0,0.0,0.0,0.0,0.0,0.0,0.0,0.0,0.0,0.0,-1.8596,-1.7887,-1.7984,-1.8878,-1.9126,-1.9932,-2.1281,-2.0317,0.0,0.0,0.0,0.0,0.0,0.0,0.0,0.0,0.0,0.0,0.0,0.0,0.0,0.0,0.0,0.0,0.0,0.0,0.0,0.0,0.0,0.0,0.0,0.0,0.0,0.0,0.0,-1.912,0.0,0.0,0.0,0.0,0.0,0.0,0.0,0.0,0.0,0.0,0.0,0.0,0.0,0.0,-2.3214,-2.3598,-2.5001,-2.6295,0.0,0.0,-2.7955,-2.7465,-2.9527,-3.0432,0.0,0.0,0.0,0.0,0.0,0.0,0.0,0.0,0.0,0.0,0.0,0.0,0.0,0.0,0.0,0.0,0.0,0.0,0.0,0.0,0.0,0.0,0.0,0.0,0.0,0.0,0.0,0.0,0.0,0.0,0.0,0.0,0.0,0.0,0.0,0.0,0.0,0.0,0.0,0.0,0.0,0.0,0.0,0.0,0.0,0.0,0.0,0.0,0.0,0.0,0.0,0.0,0.0,0.0,0.0,-1.8772,-1.8535,-1.8969,-2.0121,-2.0074,-2.0864,-2.2544,-2.2064,-2.1703,0.0,0.0,0.0,0.0,0.0,0.0,0.0,0.0,0.0,0.0,0.0,0.0,0.0,0.0,0.0,0.0,0.0,0.0,0.0,0.0,0.0,0.0,0.0,0.0,0.0,0.0,0.0,0.0,0.0,0.0,0.0,0.0,0.0,0.0,0.0,0.0,0.0,0.0,0.0,0.0,0.0,-2.3853,-2.6772,-2.7062,-2.8286,0.0,-3.0391,-2.9479,-3.0045,-3.1837,-3.2137,-2.886,0.0,0.0,0.0,0.0,0.0,0.0,0.0,0.0,0.0,0.0,0.0,0.0,0.0,0.0,0.0,0.0,0.0,0.0,0.0,0.0,0.0,0.0,0.0,0.0,0.0,0.0,0.0,0.0,0.0,0.0,0.0,0.0,0.0,0.0,0.0,0.0,0.0,0.0,0.0,0.0,0.0,0.0,0.0,0.0,0.0,0.0,0.0,0.0,0.0,0.0,0.0,0.0,0.0,-1.9841,-2.0051,-1.9836,-2.0321,-2.133,-2.1377,-2.2061,-2.3548,-2.2535,-2.2056,0.0,0.0,0.0,0.0,0.0,0.0,0.0,0.0,0.0,0.0,0.0,0.0,0.0,0.0,0.0,0.0,0.0,0.0,0.0,0.0,0.0,0.0,0.0,0.0,0.0,0.0,0.0,0.0,-2.0999,-2.1193,-2.1256,0.0,0.0,0.0,0.0,0.0,0.0,0.0,0.0,0.0,0.0,-2.6292,-2.7884,-2.9002,0.0,0.0,-3.0574,-3.0122,-3.0238,-3.0781,-3.0581,-2.8768,-2.778,0.0,0.0,0.0,0.0,0.0,0.0,0.0,0.0,0.0,0.0,0.0,0.0,0.0,0.0,0.0,0.0,0.0,0.0,0.0,0.0,0.0,0.0,0.0,0.0,0.0,0.0,0.0,0.0,0.0,0.0,0.0,0.0,0.0,0.0,0.0,0.0,0.0,0.0,0.0,0.0,0.0,0.0,0.0,0.0,0.0,0.0,0.0,0.0,0.0,0.0,0.0,0.0,-2.0634,-2.113,-2.1122,-2.1697,-2.2705,-2.2629,-2.3236,-2.4666,-2.3501,-2.2829,0.0,0.0,0.0,0.0,0.0,0.0,0.0,0.0,0.0,0.0,0.0,0.0,0.0,0.0,0.0,0.0,0.0,0.0,0.0,0.0,0.0,0.0,0.0,0.0,0.0,0.0,0.0,0.0,-2.2186,-2.2179,-2.2138,0.0,0.0,0.0,0.0,0.0,0.0,0.0,0.0,0.0,0.0,-2.7851,-2.8838,-2.9804,-3.048,-3.0558,-2.9889,-2.9472,-2.976,-2.9599,-2.9186,-2.8572,0.0,0.0,0.0,0.0,0.0,0.0,0.0,0.0,0.0,0.0,0.0,0.0,0.0,0.0,0.0,0.0,0.0,0.0,0.0,0.0,0.0,0.0,0.0,0.0,0.0,0.0,0.0,0.0,0.0,0.0,-1.8192,0.0,0.0,0.0,0.0,0.0,0.0,0.0,0.0,0.0,0.0,0.0,0.0,0.0,0.0,0.0,0.0,0.0,0.0,0.0,0.0,0.0,0.0,-2.139,-2.1787,-2.2191,-2.2973,-2.4188,-2.3899,-2.4489,-2.619,-2.5012,-2.422,-2.3977,0.0,0.0,0.0,0.0,0.0,0.0,0.0,0.0,0.0,0.0,0.0,0.0,0.0,0.0,0.0,0.0,0.0,0.0,0.0,0.0,0.0,0.0,0.0,0.0,0.0,0.0,-2.1505,-2.1919,-2.2179,0.0,0.0,0.0,0.0,0.0,0.0,0.0,0.0,0.0,0.0,-2.5989,-2.8108,-2.9489,-2.9288,-2.9437,-3.0777,-2.8594,-2.7318,-2.8784,-2.8705,-2.8441,0.0,0.0,0.0,0.0,0.0,0.0,0.0,0.0,0.0,0.0,0.0,0.0,0.0,0.0,0.0,0.0,0.0,0.0,0.0,0.0,0.0,0.0,0.0,0.0,0.0,0.0,0.0,-2.0014,-2.0389,0.0,0.0,0.0,0.0,0.0,0.0,0.0,0.0,0.0,0.0,0.0,-2.088,-2.1851,0.0,0.0,0.0,0.0,0.0,0.0,0.0,0.0,0.0,0.0,0.0,0.0,-2.1829,-2.2311,-2.3252,-2.3946,-2.4355,-2.4507,-2.4823,-2.5078,-2.4385,-2.365,-2.2823,0.0,0.0,0.0,0.0,0.0,0.0,0.0,0.0,0.0,0.0,0.0,0.0,0.0,0.0,0.0,0.0,0.0,0.0,0.0,0.0,0.0,0.0,0.0,0.0,0.0,-2.2306,0.0,0.0,0.0,0.0,0.0,0.0,0.0,0.0,0.0,0.0,0.0,-2.3755,-2.5089,-2.6911,-2.8279,-2.9015,-2.9154,-2.9362,0.0,0.0,0.0,0.0,0.0,0.0,0.0,0.0,0.0,0.0,0.0,0.0,0.0,0.0,-3.4099,-3.1589,-3.1734,-3.2052,-3.1499,0.0,0.0,0.0,0.0,0.0,0.0,0.0,0.0,0.0,0.0,0.0,0.0,0.0,0.0,-2.1362,0.0,-2.1993,0.0,0.0,0.0,0.0,0.0,0.0,0.0,0.0,-2.208,-2.2908,-2.3139,-2.3946,-2.4536,0.0,-2.4501,-2.3573,0.0,0.0,0.0,0.0,0.0,0.0,0.0,0.0,-2.2314,-2.2744,-2.3701,-2.4268,-2.4414,-2.4697,-2.4697,-2.4414,-2.4014,-2.33,-2.2293,-2.1556,-2.1,0.0,0.0,0.0,0.0,0.0,0.0,0.0,0.0,0.0,0.0,0.0,0.0,0.0,0.0,0.0,0.0,0.0,0.0,0.0,0.0,0.0,0.0,0.0,-2.2932,0.0,0.0,0.0,0.0,0.0,0.0,0.0,0.0,0.0,-2.2935,-2.4406,-2.5718,-2.6302,-2.7629,-2.8562,-2.873,0.0,0.0,0.0,0.0,0.0,0.0,0.0,-2.6809,-2.6835,-2.7355,-2.7686,-2.786,-3.0306,-3.2111,-3.1746,0.0,0.0,-3.3158,-3.332,-3.362,-3.307,-3.3071,-3.3109,-3.2934,-3.2982,-3.2993,0.0,0.0,0.0,0.0,0.0,0.0,0.0,0.0,-2.2649,-2.2539,0.0,-2.2795,0.0,0.0,0.0,0.0,0.0,-2.211,0.0,0.0,-2.5342,-2.6222,-2.4998,-2.5875,-2.6396,-2.6377,-2.5947,-2.5498,-2.499,-2.3418,0.0,0.0,0.0,0.0,0.0,0.0,-2.2715,-2.3096,-2.3555,-2.3984,-2.4346,-2.4385,-2.4385,-2.4346,-2.3975,-2.3379,-2.2588,-2.2339,-2.1794,-2.0966,-2.17,0.0,0.0,0.0,0.0,0.0,0.0,0.0,0.0,0.0,0.0,0.0,0.0,0.0,0.0,0.0,0.0,0.0,0.0,0.0,0.0,-2.2913,0.0,0.0,0.0,0.0,0.0,0.0,0.0,0.0,0.0,0.0,-2.4531,-2.5942,-2.712,-2.7317,0.0,0.0,0.0,0.0,-2.7259,-2.7791,-2.6819,-2.6091,-2.6599,-2.6794,-2.696,-2.7441,0.0,0.0,-2.997,-3.1289,-3.2121,-3.1426,-3.3987,-3.6307,-3.6194,-3.5511,-3.4944,-3.4532,-3.4234,-3.3808,-3.3427,-3.3658,-3.3966,-1.9601,0.0,0.0,0.0,0.0,-2.3026,-2.4575,-2.6144,-2.5538,-2.5112,-2.4935,-2.5032,0.0,0.0,0.0,0.0,0.0,0.0,-2.3423,-2.4002,-2.5315,-2.608,-2.6338,-2.6666,-2.6836,-2.6826,-2.6406,-2.6133,-2.5957,-2.4883,-2.3809,-2.2783,0.0,0.0,0.0,0.0,-2.2568,-2.2725,-2.3418,-2.3701,-2.3506,-2.3799,-2.3818,-2.3516,-2.3389,-2.3203,-2.2882,-2.259,-2.2318,-2.2055,-2.211,0.0,0.0,0.0,0.0,0.0,0.0,0.0,0.0,0.0,0.0,0.0,0.0,0.0,0.0,0.0,0.0,0.0,0.0,0.0,-2.3208,-2.3248,-2.3243,0.0,0.0,0.0,0.0,0.0,0.0,0.0,0.0,0.0,-2.6039,-2.6821,-2.7372,0.0,0.0,-2.7762,-2.7533,-2.7218,-2.7251,-2.7783,-2.7228,0.0,-2.6596,-2.6354,-2.6158,-2.6225,-2.7398,-2.8409,-2.8576,-2.9632,-3.0745,-3.1308,-3.2794,-3.4125,-3.5032,-3.5697,-3.5911,-3.5843,-3.5454,-3.4998,-3.4882,-3.4719,-3.4532,-2.0814,-2.0263,-2.0725,-2.1286,-2.2217,-2.3939,-2.5614,-2.7185,-2.7342,-2.7102,-2.6708,-2.6821,-2.5487,-2.2947,-2.3057,0.0,0.0,0.0,-2.4236,-2.5421,-2.5664,-2.6248,-2.6982,-2.7012,-2.7012,-2.6992,-2.6592,-2.6387,-2.6377,-2.5418,-2.4516,-2.3652,0.0,0.0,-2.2168,-2.2549,-2.2676,-2.2559,-2.3174,-2.3408,-2.3144,-2.3398,-2.3408,-2.3154,-2.3144,-2.3144,-2.3144,-2.29,-2.2685,-2.251,-2.2416,-2.2329,0.0,0.0,0.0,0.0,0.0,0.0,0.0,0.0,0.0,0.0,0.0,-2.5528,-2.4261,0.0,0.0,0.0,-2.2907,-2.3443,-2.4008,-2.3998,0.0,0.0,0.0,0.0,0.0,0.0,0.0,-2.4856,-2.6403,-2.7253,-2.636,-2.681,-2.7144,-2.7021,-2.714,-2.7185,-2.6759,0.0,-2.6881,-2.7261,-2.706,-2.6783,-2.6535,-2.6378,-2.6207,-2.6241,-2.6437,-2.6932,-2.7542,-2.8994,-3.0339,-3.1169,-3.2359,-3.3551,-3.422,-3.4776,-3.5228,-3.5617,-3.5441,-3.5165,-3.4939,-3.4788,-3.46,-2.1797,-2.1511,-2.0621,-2.0826,-2.1884,-2.4309,-2.5895,-2.6906,-2.8315,-2.8503,-2.7676,-2.8048,-2.692,-2.4745,-2.3898,0.0,-2.4301,-2.4311,-2.5043,-2.6377,-2.6348,-2.6562,-2.6963,-2.6924,-2.6914,-2.6904,-2.6514,-2.6318,-2.6211,-2.5248,-2.4608,-2.4307,-2.3926,-2.334,-2.2627,-2.291,-2.292,-2.2578,-2.291,-2.3096,-2.3144,-2.3144,-2.3144,-2.3144,-2.3144,-2.3144,-2.3144,-2.3144,-2.2969,-2.2588,-2.2774,-2.2839,-2.2746,0.0,0.0,0.0,0.0,0.0,0.0,0.0,0.0,0.0,0.0,0.0,0.0,0.0,0.0,0.0,-2.3678,0.0,-2.4652,-2.4986,0.0,0.0,0.0,-2.4313,-2.3841,-2.4725,-2.525,-2.5108,0.0,0.0,-2.5832,-2.6134,-2.644,-2.6527,-2.6656,-2.6763,-2.6557,-2.6344,-2.6237,-2.646,-2.641,-2.64,-2.6314,-2.6366,-2.6419,-2.6475,-2.6143,-2.5918,-2.6823,-2.8649,-3.033,-3.0751,-3.2333,-3.3571,-3.3596,-3.3294,-3.3269,-3.4236,-3.4449,-3.4336,-3.3897,-3.4022,-3.3985,-2.161,-2.1619,-2.2479,-2.3503,-2.4992,-2.6868,-2.8514,-2.9767,-2.9585,-2.9069,-2.8513,-2.8096,-2.7289,-2.6367,-2.5857,-2.5732,-2.582,-2.582,-2.6084,-2.6367,-2.6045,-2.6123,-2.6514,-2.6191,-2.6045,-2.6035,-2.5937,-2.5723,-2.5381,-2.5163,-2.4598,-2.3762,-2.3614,-2.3466,-2.3258,-2.3031,-2.3021,-2.3258,-2.3031,-2.2985,-2.3125,-2.3144,-2.3144,-2.3144,-2.3144,-2.3144,-2.3144,-2.3144,-2.3008,-2.2988,-2.3571,-2.3412,-2.2292,-2.2928,0.0,0.0,0.0,0.0,0.0,0.0,0.0,0.0,0.0,-2.6516,-2.4495,0.0,-2.5587,0.0,-2.3574,-2.4569,-2.6099,-2.5261,0.0,0.0,-2.4757,-2.4301,-2.3881,-2.5295,-2.5899,-2.4785,-2.5844,-2.6235,-2.5145,-2.5142,-2.5139,-2.4967,-2.5843,-2.652,-2.6516,-2.6603,-2.6477,-2.6257,-2.5984,-2.5809,-2.5464,-2.5208,-2.5036,-2.501,-2.4863,-2.5085,-2.6104,-2.6762,-2.7746,-2.9519,-3.0233,-3.0931,-3.1847,-3.1863,-3.1876,-3.2152,-3.2516,-3.278,-3.2629,-3.2416,-3.2114,-2.1557,-2.1781,-2.3097,-2.454,-2.6106,-2.7692,-2.8911,-2.9719,-2.9794,-2.9609,-2.916,-2.832,-2.7715,-2.7295,-2.706,-2.6846,-2.666,-2.6475,-2.6387,-2.6348,-2.5723,-2.5674,-2.6074,-2.5654,-2.5547,-2.5723,-2.5527,-2.5312,-2.5049,-2.4687,-2.4222,-2.3624,-2.3418,-2.3416,-2.3484,-2.2954,-2.2848,-2.3003,-2.2869,-2.2876,-2.3115,-2.3144,-2.3057,-2.2948,-2.2938,-2.2847,-2.2547,-2.2537,-2.2611,-2.2758,-2.3176,-2.3238,-2.2867,-2.3123,-2.2855,0.0,0.0,0.0,0.0,0.0,0.0,0.0,0.0,0.0,0.0,0.0,-2.6297,-2.5094,-2.546,-2.6302,-2.7475,-2.6259,-2.5463,-2.563,-2.4812,-2.4105,-2.3879,-2.4713,-2.5076,-2.4526,-2.5169,-2.5401,-2.47,-2.4608,-2.4598,-2.4424,-2.5115,-2.5526,-2.5535,-2.5638,-2.5592,-2.5366,-2.5232,-2.5078,-2.4805,-2.4424,-2.4199,-2.4355,-2.4258,-2.4544,-2.5892,-2.6551,-2.7491,-2.9218,-2.9833,-3.0266,-3.0873,-3.0834,-3.0683,-3.0721,-3.0922,-3.1198,-3.1449,-3.1436,-3.1298,-2.1496,-2.1598,-2.3075,-2.4532,-2.6098,-2.763,-2.8464,-2.8674,-2.9642,-2.9795,-2.9365,-2.8623,-2.8086,-2.7744,-2.7685,-2.7422,-2.6992,-2.6572,-2.6357,-2.626,-2.5508,-2.5332,-2.5635,-2.5244,-2.5234,-2.5547,-2.5176,-2.4961,-2.4883,-2.415,-2.373,-2.3702,-2.3252,-2.3124,-2.3305,-2.2822,-2.2523,-2.2523,-2.2645,-2.2768,-2.2959,-2.2871,-2.2808,-2.2611,-2.2591,-2.2317,-2.1729,-2.1739,-2.1997,-2.2402,-2.259,-2.2988,-2.372,-2.3334,-2.3329,0.0,-2.3757,0.0,0.0,0.0,0.0,0.0,0.0,0.0,0.0,-2.5672,-2.6635,-2.7591,-2.8037,-2.8387,-2.845,-2.7255,-2.6257,-2.5735,-2.455,-2.3799,-2.3751,-2.376,-2.3906,-2.4219,-2.4258,-2.4248,-2.4219,-2.4248,-2.4248,-2.4199,-2.4209,-2.4258,-2.4268,-2.4394,-2.4492,-2.4355,-2.4287,-2.4238,-2.4199,-2.3935,-2.3818,-2.4111,-2.3935,-2.4277,-2.591,-2.6922,-2.806,-2.9308,-3.0008,-3.044,-3.0507,-3.0131,-2.9829,-2.9867,-2.9905,-3.0055,-3.0457,-3.0834,-3.0859,-2.1189,-2.1309,-2.2988,-2.454,-2.6073,-2.7357,-2.8658,-2.9786,-2.9381,-2.8926,-2.8525,-2.8369,-2.8252,-2.8154,-2.7812,-2.7422,-2.7002,-2.6582,-2.6201,-2.585,-2.5684,-2.5469,-2.5195,-2.5107,-2.4922,-2.4668,-2.458,-2.4365,-2.4033,-2.3867,-2.3516,-2.3011,-2.2913,-2.279,-2.2702,0.0,0.0,0.0,-2.2357,-2.2261,-2.2227,-2.1729,-2.149,-2.14,-2.14,0.0,-2.1258,-2.1579,-2.2007,-2.2402,-2.3581,0.0,0.0,0.0,0.0,0.0,0.0,0.0,0.0,0.0,0.0,0.0,-2.6943,-2.6919,-2.6311,-2.6761,-2.759,-2.8901,-2.8642,-2.8362,-2.814,-2.7139,-2.6058,-2.5062,-2.4297,-2.3653,-2.332,-2.3574,-2.3701,-2.3408,-2.3389,-2.3389,-2.3418,-2.329,-2.3398,-2.3428,-2.3379,-2.3379,-2.3408,-2.3975,-2.4268,-2.3975,-2.3652,-2.3408,-2.3379,-2.333,-2.333,-2.3359,-2.334,-2.4068,-2.586,-2.6523,-2.752,-2.9267,-2.9836,-2.993,-2.993,-2.9854,-2.9716,-2.9767,-2.9767,-2.9829,-2.993,-3.0018,-3.0043,-2.1102,0.0,-2.2959,-2.454,0.0,-2.7067,-2.8366,-2.9834,-2.9199,-2.8682,-2.8301,-2.8301,-2.8184,-2.7969,-2.7764,-2.7314,-2.6689,-2.6484,-2.6152,-2.5723,-2.5283,-2.5078,-2.5059,-2.4639,-2.4434,-2.4404,-2.4199,-2.4004,-2.3789,-2.3584,-2.3242,-2.2985,-2.2899,-2.2886,-2.2755,-2.2829,-2.272,-2.2679,-2.2512,-2.2527,-2.2546,-2.2227,-2.2056,-2.1939,-2.1929,0.0,0.0,0.0,0.0,0.0,0.0,0.0,0.0,-2.571,0.0,-2.5557,-2.6093,-2.6165,-2.5712,-2.639,-2.6801,-2.6636,-2.6883,-2.7186,-2.7656,-2.7916,-2.8498,-2.9422,-2.877,-2.8228,-2.806,-2.6625,-2.5462,-2.4798,-2.4012,-2.3369,-2.3203,-2.333,-2.3379,-2.3193,-2.3144,-2.3144,-2.3144,-2.3144,-2.3144,-2.3144,-2.3144,-2.3135,-2.3174,-2.3496,-2.3691,-2.3486,-2.331,-2.3144,-2.3144,-2.3144,-2.3135,-2.3144,-2.3144,-2.381,-2.5389,-2.5848,-2.6599,-2.8198,-2.8746,-2.8963,-2.8963,-2.8963,-2.8963,-2.895,-2.8963,-2.8963,-2.8988,-2.939,-2.9691,-2.1102,-2.1229,-2.2591,-2.4294,-2.604,-2.6507,-2.7741,-2.9316,0.0,0.0,0.0,-2.8213,-2.7988,-2.7666,-2.751,-2.706,-2.6406,-2.6309,-2.6084,-2.5713,-2.499,-2.4766,-2.4912,-2.4228,-2.3994,-2.417,-2.3838,-2.3672,-2.3662,-2.331,-2.3144,-2.3144,-2.3144,-2.3144,-2.3144,-2.3144,-2.3055,-2.2883,-2.2715,-2.2729,-2.29,-2.285,-2.2689,-2.2502,-2.2492,-2.2068,-2.1255,-2.1549,-2.2118,-2.2805,-2.3254,-2.4368,-2.619,-2.6372,-2.6627,-2.7201,-2.7324,-2.7225,-2.6955,-2.7005,-2.6976,-2.6766,-2.6615,-2.6952,-2.8105,-2.8381,-2.8781,-2.9406,-2.8688,-2.8004,-2.7844,-2.6202,-2.4957,-2.4542,-2.3637,-2.3144,-2.3144,-2.3144,-2.3154,-2.3144,-2.3144,-2.3144,-2.3144,-2.3144,-2.3096,-2.3037,-2.3152,-2.3315,-2.3352,-2.3219,-2.3027,-2.29,-2.2822,-2.2871,-2.29,-2.2871,-2.292,-2.2842,-2.2871,-2.3322,-2.4336,-2.4973,-2.5689,-2.7014,-2.7592,-2.7878,-2.8061,-2.8185,-2.8109,-2.8109,-2.8109,-2.8109,-2.8197,-2.8837,-2.9277,-2.1102,-2.1109,-2.1355,-2.3186,-2.5927,-2.5326,-2.6397,-2.8476,-2.8408,-2.835,-2.8271,-2.791,-2.7725,-2.7627,-2.6894,-2.6494,-2.6367,-2.5996,-2.5791,-2.5732,-2.5605,-2.5176,-2.4521,-2.4385,-2.3975,-2.335,-2.3262,-2.3232,-2.3223,-2.3174,-2.3144,-2.3144,-2.3144,-2.3144,-2.3144,-2.3144,-2.3105,-2.3037,-2.2483,-2.2221,-2.2271,-2.171,-2.137,-2.131,-2.135,-2.1318,-2.1128,-2.1559,-2.2408,-2.3731,-2.4238,-2.5364,-2.7127,-2.7262,-2.7274,-2.7288,-2.7335,-2.7085,-2.664,-2.7017,-2.7457,-2.7761,-2.7077,-2.6447,-2.6075,-2.653,-2.7302,-2.8176,-2.8048,-2.7683,-2.6883,-2.6345,-2.5241,-2.3684,-2.3212,-2.3135,-2.3096,-2.3096,-2.3086,-2.3076,-2.3144,-2.3105,-2.3066,-2.3076,-2.293,-2.2761,-2.3088,-2.394,-2.4055,-2.3412,-2.2497,-2.2158,-2.206,-2.206,-2.2158,-2.208,-2.2139,-2.206,-2.2109,-2.2629,-2.3575,-2.4004,-2.4769,-2.6406,-2.6815,-2.7151,-2.7875,-2.8109,-2.8009,-2.7984,-2.7971,-2.8009,-2.7984,-2.8197,-2.831,-2.1102,-2.1229,-2.2097,-2.3694,-2.5629,-2.654,-2.7492,-2.831,-2.8301,-2.8301,-2.8223,-2.7598,-2.7314,-2.7266,-2.667,-2.626,-2.6025,-2.583,-2.5605,-2.5381,-2.5371,-2.4902,-2.4131,-2.4072,-2.374,-2.3164,-2.3144,-2.3144,-2.3144,-2.3144,-2.3144,-2.3144,-2.3144,-2.3144,-2.3144,-2.3144,-2.3144,-2.3135,-2.284,-2.2634,-2.2624,-2.2335,-2.2201,-2.2201,-2.2211,-2.2093,-2.1876,-2.228,-2.2838,-2.3602,-2.4314,-2.5381,-2.6863,-2.7201,-2.7526,-2.772,-2.7733,-2.7494,-2.6942,-2.6924,-2.6618,-2.6,-2.5576,-2.4791,-2.3635,-2.4993,-2.5995,-2.647,-2.5984,-2.5403,-2.486,-2.431,-2.3587,-2.2536,-2.2461,-2.2451,-2.2461,-2.2461,-2.2461,-2.2461,-2.2461,-2.2461,-2.2451,-2.2461,-2.2412,-2.2281,-2.2659,-2.3114,-2.3592,-2.2695,-2.2073,-2.2473,-2.2267,-2.1967,-2.1875,-2.1894,-2.1894,-2.1894,-2.2339,-2.2798,-2.3381,-2.3946,-2.4983,-2.5851,-2.6287,-2.6682,-2.7231,-2.7205,-2.7205,-2.7205,-2.7205,-2.7205,-2.7205,-2.7218,-2.7318,-2.1102,-2.1229,-2.2388,-2.3817,-2.5268,-2.7819,-2.8682,-2.8301,-2.8184,-2.8213,-2.8184,-2.749,-2.71,-2.6973,-2.6582,-2.6152,-2.5771,-2.5732,-2.5488,-2.5088,-2.5059,-2.4619,-2.3857,-2.3789,-2.3564,-2.3184,-2.3144,-2.3144,-2.3144,-2.3144,-2.3144,-2.3144,-2.3144,-2.3144,-2.3144,-2.3144,-2.3144,-2.3144,-2.3144,-2.3144,-2.3144,-2.3144,-2.3135,-2.3144,-2.3125,-2.2939,-2.2568,-2.292,-2.3143,-2.3405,-2.4375,-2.5495,-2.6486,-2.7103,-2.7607,-2.7896,-2.7921,-2.7682,-2.7143,-2.6494,-2.561,-2.4511,-2.3946,-2.3195,-2.2231,-2.3287,-2.4404,-2.4647,-2.4093,-2.3604,-2.3545,-2.292,-2.2205,-2.1967,-2.1894,-2.1934,-2.1894,-2.1894,-2.1894,-2.1894,-2.1894,-2.1914,-2.1894,-2.1894,-2.2103,-2.2483,-2.2362,-2.2587,-2.3186,-2.2661,-2.2585,-2.2642,-2.2281,-2.1624,-2.1592,-2.1787,-2.1929,-2.1897,-2.2701,-2.3171,-2.3509,-2.4438,-2.5183,-2.5418,-2.5826,-2.6218,-2.6408,-2.6559,-2.6596,-2.6647,-2.6659,-2.6596,-2.6622,-2.6264,-2.6364,-2.1102,-2.1062,-2.1196,-2.2279,-2.4736,-2.7696,-2.8672,-2.8271,-2.79,-2.7939,-2.8223,-2.7812,-2.7373,-2.6982,-2.6562,-2.6133,-2.5742,-2.5732,-2.5488,-2.5078,-2.5059,-2.4609,-2.3818,-2.3789,-2.3564,-2.3184,-2.3144,-2.3144,-2.3144,-2.3144,-2.3144,-2.3144,-2.3144,-2.3144,-2.3144,-2.3144,-2.3144,-2.3144,-2.3144,-2.3144,-2.3144,-2.3144,-2.3144,-2.3144,-2.3144,-2.2939,-2.2549,-2.291,-2.3228,-2.3559,-2.4749,-2.5813,-2.6574,-2.7484,-2.7808,-2.7394,-2.7356,-2.7118,-2.659,-2.5676,-2.5111,-2.4849,-2.332,-2.2294,-2.1977,-2.146,-2.1873,-2.3081,-2.3551,-2.3349,-2.3492,-2.3301,-2.2716,-2.183,-2.1797,-2.1894,-2.1826,-2.1894,-2.1894,-2.1894,-2.1942,-2.1885,-2.1942,-2.1932,-2.2453,-2.3535,-2.3373,-2.3731,-2.5099,-2.4634,-2.37,-2.2904,-2.1772,-2.0918,-2.0879,-2.143,-2.185,-2.2029,-2.28,-2.3389,-2.3709,-2.3824,-2.397,-2.5362,-2.5325,-2.5664,-2.6171,-2.6521,-2.6414,-2.6226,-2.6251,-2.6389,-2.6314,-2.5724,-2.5536,-2.1009,-2.1085,-2.2759,-2.4792,-2.7012,-2.8199,-2.8447,-2.8271,-2.8115,-2.8144,-2.8223,-2.7851,-2.7422,-2.6973,-2.6309,-2.5898,-2.5742,-2.5732,-2.5352,-2.4756,-2.4941,-2.4482,-2.3506,-2.3682,-2.3564,-2.3174,-2.3144,-2.3144,-2.3144,-2.3144,-2.3144,-2.3144,-2.3144,-2.3144,-2.3144,-2.3144,-2.3144,-2.3144,-2.3144,-2.3144,-2.3144,-2.3144,-2.3144,-2.3144,-2.3144,-2.2939,-2.2578,-2.2685,-2.2968,-2.3384,-2.429,-2.5153,-2.5938,-2.6697,-2.703,-2.6816,-2.6791,-2.6553,-2.5988,-2.5896,-2.553,-2.4588,-2.4103,-2.3294,-2.2113,-2.1659,-2.1624,-2.1686,-2.1777,-2.1777,-2.1787,-2.1777,-2.1629,-2.1183,-2.1103,-2.1193,-2.1103,-2.1113,-2.1332,-2.1855,-2.1924,-2.1934,-2.1934,-2.1934,-2.2464,-2.3466,-2.3604,-2.4146,-2.5358,-2.4519,-2.3521,-2.2876,-2.2183,-2.1395,-2.0651,-2.0708,-2.14,-2.2038,-2.285,-2.3599,-2.429,-2.4992,-2.5441,-2.5779,-2.573,-2.5652,-2.5895,-2.5937,-2.59,-2.5724,-2.5498,-2.5498,-2.5485,-2.5134,-2.5121,-2.0822,-2.104,-2.3769,-2.617,-2.8157,-2.831,-2.8301,-2.8301,-2.8301,-2.8232,-2.8076,-2.7676,-2.7246,-2.6797,-2.6182,-2.5791,-2.5576,-2.5547,-2.5088,-2.4346,-2.457,-2.415,-2.3242,-2.3447,-2.3447,-2.3184,-2.3144,-2.3144,-2.3144,-2.3144,-2.3144,-2.3144,-2.3144,-2.3144,-2.3144,-2.3144,-2.3144,-2.3144,-2.3144,-2.3144,-2.3144,-2.3144,-2.3144,-2.3135,-2.3027,-2.2764,-2.2363,-2.2567,-2.2776,-2.2977,-2.3985,-2.4809,-2.5406,-2.6082,-2.6521,-2.6521,-2.6521,-2.6345,-2.5862,-2.5996,-2.5644,-2.4587,-2.4377,-2.3588,-2.2339,-2.1735,-2.1298,-2.0819,-2.0576,-2.0673,-2.0576,-2.0576,-2.0722,-2.0944,-2.0789,-2.0789,-2.1328,-2.1231,-2.1354,-2.2019,-2.2254,-2.2147,-2.1988,-2.2029,-2.2407,-2.3496,-2.3621,-2.401,-2.4944,-2.4425,-2.3526,-2.2992,-2.2838,-2.2226,-2.103,-2.168,-2.2039,-2.2518,-2.3496,-2.4378,-2.4857,-2.5568,-2.5988,-2.5418,-2.5857,-2.5912,-2.5523,-2.5372,-2.5297,-2.4946,-2.4732,-2.4707,-2.4933,-2.4632,-2.4456,-2.0521,-2.0705,-2.3185,-2.5233,-2.6409,-2.7736,-2.8301,-2.8301,-2.8301,-2.8076,-2.7695,-2.7266,-2.6826,-2.6445,-2.6328,-2.5889,-2.5195,-2.5137,-2.4697,-2.3945,-2.3896,-2.3613,-2.3164,-2.3164,-2.3164,-2.3144,-2.3144,-2.3144,-2.3144,-2.3144,-2.3144,-2.3144,-2.3144,-2.3144,-2.3144,-2.3144,-2.3144,-2.3144,-2.3144,-2.3144,-2.3144,-2.3144,-2.3135,-2.3076,-2.2764,-2.2373,-2.2046,-2.2829,-2.2877,-2.2143,-2.4231,-2.5394,-2.5195,-2.5968,-2.6521,-2.6521,-2.6521,-2.6508,-2.6296,-2.5685,-2.511,-2.4791,-2.3531,-2.2253,-2.2178,-2.1375,-2.0867,-2.0634,-2.0576,-2.0576,-2.0605,-2.0692,-2.1078,-2.1811,-2.1145,-2.1573,-2.3051,-2.2211,-2.2168,-2.2573,-2.2677,-2.2533,-2.2029,-2.1907,-2.2626,-2.3537,-2.3623,-2.3986,-2.5487,-2.5647,-2.4713,-2.3685,-2.311,-2.2764,-2.2655,-2.2534,-2.3458,-2.3991,-2.3977,-2.5098,-2.4937,-2.4895,-2.4946,-2.4983,-2.5121,-2.5121,-2.4933,-2.4808,-2.4745,-2.4506,-2.4205,-2.4192,-2.4343,-2.374,-2.3627,-2.1576,-2.2921,-2.4732,-2.6281,-2.7511,-2.8067,-2.8301,-2.8301,-2.8301,-2.8066,-2.7637,-2.7197,-2.6777,-2.6377,-2.6094,-2.5801,-2.5478,-2.5205,-2.4746,-2.4199,-2.3916,-2.3555,-2.3174,-2.3144,-2.3144,-2.3144,-2.3144,-2.3144,-2.3144,-2.3144,-2.3144,-2.3144,-2.3144,-2.3144,-2.3144,-2.3144,-2.3144,-2.3144,-2.3144,-2.3144,-2.3144,-2.3144,-2.3018,-2.2754,-2.2598,-2.2187,-2.1494,-2.238,-2.29,-2.2947,-2.4449,-2.5421,-2.591,-2.6314,-2.6521,-2.6521,-2.6521,-2.637,-2.6013,-2.5965,-2.5783,-2.5326,-2.4519,-2.3526,-2.2925,-2.2113,-2.1298,-2.0789,-2.0566,-2.0478,-2.0417,-2.0897,-2.1897,-2.2669,-2.2368,-2.2185,-2.2628,-2.2419,-2.2214,-2.2903,-2.3074,-2.2981,-2.2819,-2.2796,-2.3012,-2.3502,-2.3954,-2.4591,-2.504,-2.4946,-2.4263,-2.3434,-2.3299,-2.3353,-2.2733,-2.211,-2.2273,-2.3315,-2.3953,-2.4352,-2.4459,-2.463,-2.4732,-2.4669,-2.4657,-2.4519,-2.4406,-2.4042,-2.4017,-2.3853,-2.3577,-2.369,-2.3641,-2.3376,-2.3301,-2.1765,-2.4072,-2.5043,-2.6499,-2.8165,-2.8154,-2.8086,-2.8066,-2.7939,-2.7646,-2.7246,-2.6934,-2.6572,-2.6152,-2.5723,-2.5518,-2.5469,-2.5059,-2.4551,-2.4014,-2.3711,-2.3428,-2.3184,-2.3144,-2.3144,-2.3144,-2.3144,-2.3144,-2.3144,-2.3144,-2.3144,-2.3144,-2.3144,-2.3144,-2.3144,-2.3144,-2.3144,-2.3144,-2.3144,-2.3144,-2.3135,-2.2998,-2.2734,-2.2353,-2.2178,-2.2001,-2.17,-2.2527,-2.3274,-2.402,-2.4921,-2.5804,-2.6396,-2.6164,-2.6164,-2.6452,-2.6164,-2.6015,-2.5975,-2.6239,-2.6221,-2.5506,-2.5129,-2.4492,-2.322,-2.2403,-2.1532,-2.0698,-2.0725,-2.0687,-2.0884,-2.1679,-2.26,-2.2938,-2.267,-2.2761,-2.3237,-2.2754,-2.284,-2.3329,-2.332,-2.3248,-2.3248,-2.3236,-2.3308,-2.3465,-2.4011,-2.4292,-2.4669,-2.4368,-2.3854,-2.3262,-2.3323,-2.3238,-2.2811,-2.2248,-2.2407,-2.3269,-2.3644,-2.3968,-2.4011,-2.4241,-2.4368,-2.4267,-2.423,-2.4067,-2.3791,-2.3401,-2.3226,-2.315,-2.3213,-2.3364,-2.3301,-2.3213,-2.3201,-2.1181,-2.371,-2.3822,-2.5673,-2.7922,-2.7851,-2.7685,-2.7598,-2.7256,-2.6914,-2.6572,-2.6406,-2.6133,-2.5713,-2.5273,-2.5059,-2.4932,-2.46,-2.4033,-2.3369,-2.3223,-2.3184,-2.3144,-2.3144,-2.3144,-2.3144,-2.3144,-2.3144,-2.3144,-2.3144,-2.3144,-2.3144,-2.3144,-2.3144,-2.3144,-2.3144,-2.3144,-2.3144,-2.3144,-2.3125,-2.3086,-2.2754,-2.2353,-2.1894,-2.1595,-2.182,-2.2611,-2.3198,-2.3863,-2.4874,-2.5873,-2.6452,-2.6233,-2.5664,-2.5511,-2.6107,-2.5594,-2.5581,-2.6346,-2.6427,-2.6082,-2.5426,-2.5075,-2.4264,-2.2925,-2.2167,-2.1494,-2.0727,-2.0828,-2.1333,-2.1812,-2.2559,-2.2968,-2.2264,-2.2377,-2.2954,-2.3976,-2.3821,-2.3472,-2.3715,-2.3418,-2.314,-2.3103,-2.3119,-2.3269,-2.3592,-2.3517,-2.3566,-2.4343,-2.413,-2.3991,-2.3679,-2.3304,-2.2995,-2.2751,-2.2567,-2.3034,-2.3492,-2.3642,-2.3804,-2.3492,-2.359,-2.3653,-2.3627,-2.3653,-2.3514,-2.3527,-2.3201,-2.3188,-2.3125,-2.3125,-2.3125,-2.3125,-2.3125,-2.3125,-2.191,-2.35,-2.4827,-2.616,-2.7367,-2.7578,-2.751,-2.7226,-2.706,-2.6787,-2.6387,-2.6074,-2.5703,-2.5254,-2.4814,-2.4463,-2.4189,-2.4033,-2.3838,-2.3555,-2.3271,-2.3144,-2.3144,-2.3144,-2.3144,-2.3144,-2.3144,-2.3144,-2.3144,-2.3144,-2.3144,-2.3144,-2.3144,-2.3144,-2.3144,-2.3144,-2.3144,-2.3144,-2.3144,-2.3008,-2.2744,-2.2588,-2.2168,-2.1585,-2.1899,-2.2527,-2.3176,-2.3446,-2.3975,-2.5016,-2.5943,-2.6164,-2.5652,-2.5804,-2.5886,-2.5594,-2.5886,-2.6094,-2.6383,-2.6452,-2.6383,-2.5943,-2.5441,-2.4791,-2.3963,-2.2733,-2.202,-2.1627,-2.148,-2.1267,-2.1541,-2.2275,-2.3007,-2.3862,-2.3595,-2.3442,-2.4003,-2.3591,-2.3294,-2.3317,-2.3238,-2.315,-2.3125,-2.3125,-2.3213,-2.3376,-2.3251,-2.3315,-2.354,-2.3627,-2.3096,-2.2639,-2.2603,-2.2787,-2.2616,-2.2641,-2.3045,-2.3354,-2.3466,-2.3565,-2.3276,-2.3125,-2.3125,-2.3125,-2.3125,-2.3125,-2.3125,-2.3125,-2.3125,-2.3125,-2.3125,-2.3125,-2.3125,-2.3125,-2.3125,-2.1287,-2.2544,-2.4147,-2.5448,-2.6275,-2.6953,-2.7041,-2.6768,-2.6602,-2.6387,-2.6084,-2.5684,-2.5342,-2.498,-2.4453,-2.4043,-2.3789,-2.3633,-2.3545,-2.3525,-2.3291,-2.3144,-2.3144,-2.3144,-2.3144,-2.3144,-2.3144,-2.3144,-2.3144,-2.3144,-2.3144,-2.3144,-2.3144,-2.3144,-2.3144,-2.3144,-2.3144,-2.3144,-2.3135,-2.293,-2.2598,-2.251,-2.2266,-2.19,-2.236,-2.3188,-2.3936,-2.4047,-2.4552,-2.5441,-2.6164,-2.6164,-2.5652,-2.5804,-2.5804,-2.5734,-2.5734,-2.6025,-2.6383,-2.6521,-2.6314,-2.5931,-2.5469,-2.4847,-2.4154,-2.2895,-2.2528,-2.2048,-2.1845,-2.1627,-2.1613,-2.2226,-2.3179,-2.4004,-2.3816,-2.369,-2.3615,-2.3364,-2.3115,-2.3163,-2.3138,-2.3125,-2.3125,-2.3125,-2.3125,-2.3125,-2.3125,-2.3125,-2.3125,-2.3163,-2.2702,-2.2519,-2.2812,-2.2837,-2.2543,-2.2689,-2.3065,-2.3115,-2.3153,-2.3251,-2.315,-2.3125,-2.3125,-2.3125,-2.3125,-2.3125,-2.3125,-2.3125,-2.3125,-2.3125,-2.3125,-2.3125,-2.3125,-2.3125,-2.3125,-1.978,-2.1239,-2.2253,-2.3799,-2.5245,-2.6059,-2.6435,-2.6289,-2.5977,-2.5781,-2.5625,-2.5234,-2.499,-2.4785,-2.4072,-2.3721,-2.3682,-2.3369,-2.3213,-2.3203,-2.3144,-2.3144,-2.3144,-2.3144,-2.3144,-2.3144,-2.3144,-2.3144,-2.3144,-2.3144,-2.3144,-2.3144,-2.3144,-2.3144,-2.3144,-2.3144,-2.3115,-2.3047,-2.3066,-2.2852,-2.2451,-2.2542,-2.2509,-2.2606,-2.2889,-2.3577,-2.4646,-2.5004,-2.5511,-2.6314,-2.6452,-2.6396,-2.6164,-2.5499,-2.5554,-2.6039,-2.5438,-2.562,-2.6164,-2.6189,-2.5915,-2.5232,-2.5234,-2.4841,-2.3479,-2.3201,-2.2796,-2.1955,-2.2128,-2.2315,-2.2193,-2.2629,-2.3117,-2.3103,-2.3263,-2.3226,-2.315,-2.3078,-2.3078,-2.3125,-2.3125,-2.3125,-2.3125,-2.3125,-2.3125,-2.3125,-2.3125,-2.3125,-2.3125,-2.3125,-2.3125,-2.3078,-2.3017,-2.2944,-2.275,-2.2823,-2.3125,-2.3125,-2.3125,-2.3125,-2.3125,-2.3125,-2.3125,-2.3125,-2.3125,-2.3125,-2.3125,-2.3125,-2.3125,-2.3125,-2.3125,-2.3125,-2.3125,-2.3125,-2.3125,-2.0204,-2.2129,-2.2568,-2.3808,-2.5438,-2.617,-2.6191,-2.5918,-2.5791,-2.5527,-2.5215,-2.4775,-2.4434,-2.4082,-2.3584,-2.331,-2.3291,-2.3203,-2.3144,-2.3144,-2.3144,-2.3144,-2.3144,-2.3144,-2.3144,-2.3144,-2.3144,-2.3144,-2.3144,-2.3144,-2.3144,-2.3144,-2.3144,-2.3144,-2.3144,-2.3144,-2.2959,-2.2715,-2.2685,-2.248,-2.2227,-2.2524,-2.2697,-2.2762,-2.3779,-2.4522,-2.5087,-2.5721,-2.6164,-2.6452,-2.6521,-2.6176,-2.5603,-2.5436,-2.5308,-2.4961,-2.4939,-2.4942,-2.5219,-2.531,-2.514,-2.4917,-2.4937,-2.476,-2.434,-2.364,-2.337,-2.3051,-2.2907,-2.2603,-2.2751,-2.2944,-2.3065,-2.3125,-2.3125,-2.3125,-2.3125,-2.3125,-2.3125,-2.3125,-2.3125,-2.3125,-2.3125,-2.3125,-2.3125,-2.3125,-2.3125,-2.3125,-2.3125,-2.3125,-2.3125,-2.3125,-2.3078,-2.3065,-2.3065,-2.3065,-2.3125,-2.3125,-2.3125,-2.3125,-2.3125,-2.3125,-2.3125,-2.3125,-2.3125,-2.3125,-2.3125,-2.3125,-2.3125,-2.3125,-2.3125,-2.3125,-2.3125,-2.3125,-2.3125,-1.9542,-2.0734,-2.136,-2.2498,-2.4053,-2.4871,-2.535,-2.5411,-2.5439,-2.5205,-2.4766,-2.4336,-2.4023,-2.376,-2.334,-2.3144,-2.3144,-2.3144,-2.3144,-2.3144,-2.3144,-2.3144,-2.3144,-2.3144,-2.3144,-2.3144,-2.3144,-2.3144,-2.3144,-2.3144,-2.3144,-2.3144,-2.3144,-2.3144,-2.3144,-2.3125,-2.293,-2.2598,-2.249,-2.2394,-2.2251,-2.269,-2.3238,-2.3644,-2.4722,-2.5326,-2.5642,-2.6164,-2.6521,-2.6521,-2.644,-2.6133,-2.5379,-2.545,-2.5232,-2.4487,-2.471,-2.4845,-2.4833,-2.4833,-2.4833,-2.477,-2.4644,-2.4481,-2.4279,-2.3658,-2.3378,-2.3406,-2.3033,-2.2936,-2.3044,-2.3125,-2.3125,-2.3125,-2.3125,-2.3125,-2.3125,-2.3125,-2.3125,-2.3125,-2.3125,-2.3125,-2.3125,-2.3125,-2.3125,-2.3125,-2.3125,-2.3125,-2.3125,-2.3125,-2.3125,-2.3125,-2.3125,-2.3125,-2.3125,-2.3125,-2.3125,-2.3125,-2.3125,-2.3125,-2.3125,-2.3125,-2.3125,-2.3125,-2.3125,-2.3125,-2.3125,-2.3125,-2.3125,-2.3125,-2.3125,-2.3113,-2.304,-2.3125,-2.3125,-1.8709,-1.8401,-1.9718,-2.0963,-2.219,-2.3384,-2.4654,-2.511,-2.5137,-2.4863,-2.4434,-2.3984,-2.3789,-2.3701,-2.3291,-2.3144,-2.3144,-2.3144,-2.3144,-2.3144,-2.3144,-2.3144,-2.3144,-2.3144,-2.3144,-2.3144,-2.3144,-2.3144,-2.3144,-2.3144,-2.3144,-2.3144,-2.3144,-2.3144,-2.3144,-2.3135,-2.2881,-2.2715,-2.269,-2.2787,-2.2982,-2.3399,-2.3962,-2.4827,-2.5409,-2.5837,-2.6139,-2.6382,-2.637,-2.6251,-2.6377,-2.6226,-2.572,-2.5674,-2.5244,-2.4741,-2.4593,-2.4494,-2.4594,-2.4481,-2.4569,-2.4443,-2.4104,-2.3929,-2.3766,-2.3417,-2.3167,-2.319,-2.3138,-2.3042,-2.309,-2.3125,-2.3125,-2.3125,-2.3125,-2.3125,-2.3125,-2.3125,-2.3125,-2.3125,-2.3125,-2.3125,-2.3125,-2.3125,-2.3125,-2.3125,-2.3125,-2.3125,-2.3125,-2.3125,-2.3125,-2.3125,-2.3125,-2.3125,-2.3125,-2.3125,-2.3125,-2.3125,-2.3125,-2.3125,-2.3125,-2.3125,-2.3125,-2.3125,-2.3125,-2.3125,-2.3125,-2.3125,-2.3125,-2.3125,-2.3125,-2.3015,-2.2977,-2.304,-2.3125,-1.925,-2.0062,-2.118,-2.2306,-2.342,-2.4716,-2.5373,-2.5537,-2.5195,-2.4785,-2.4385,-2.3965,-2.3603,-2.3291,-2.3193,-2.3144,-2.3144,-2.3144,-2.3144,-2.3144,-2.3144,-2.3144,-2.3144,-2.3144,-2.3144,-2.3144,-2.3144,-2.3144,-2.3144,-2.3144,-2.3144,-2.3144,-2.3144,-2.3144,-2.3144,-2.3076,-2.3143,-2.3084,-2.3094,-2.3356,-2.3842,-2.4294,-2.48,-2.5444,-2.5981,-2.6052,-2.5845,-2.5787,-2.5586,-2.5485,-2.5912,-2.6226,-2.5988,-2.5385,-2.4946,-2.4644,-2.3954,-2.3552,-2.3527,-2.359,-2.3453,-2.3577,-2.3514,-2.3314,-2.3314,-2.3251,-2.3125,-2.3125,-2.3125,-2.3125,-2.3125,-2.3125,-2.3125,-2.3125,-2.3125,-2.3125,-2.3125,-2.3125,-2.3125,-2.3125,-2.3125,-2.3125,-2.3125,-2.3125,-2.3125,-2.3125,-2.3125,-2.3125,-2.3125,-2.3125,-2.3125,-2.3125,-2.3125,-2.3125,-2.3125,-2.3125,-2.3125,-2.3125,-2.3125,-2.3125,-2.3125,-2.3025,-2.2987,-2.305,-2.3125,-2.3125,-2.3125,-2.3125,-2.3125,-2.3125,-2.31,-2.2902,-2.284,-2.2952,-2.31,-1.8885,-1.9213,-1.9931,-2.1179,-2.2702,-2.3583,-2.4389,-2.516,-2.4951,-2.4521,-2.4092,-2.3672,-2.3359,-2.3144,-2.3144,-2.3144,-2.3144,-2.3144,-2.3144,-2.3144,-2.3144,-2.3144,-2.3144,-2.3144,-2.3144,-2.3144,-2.3144,-2.3144,-2.3144,-2.3144,-2.3144,-2.3144,-2.3135,-2.3144,-2.3086,-2.2939,-2.2978,-2.3194,-2.3092,-2.3479,-2.4471,-2.4811,-2.5372,-2.5922,-2.6288,-2.6257,-2.5674,-2.5598,-2.5322,-2.5109,-2.5372,-2.5699,-2.5586,-2.4921,-2.4494,-2.4268,-2.3665,-2.3163,-2.3138,-2.3125,-2.3163,-2.3125,-2.3125,-2.3125,-2.3125,-2.3125,-2.3125,-2.3125,-2.3125,-2.3125,-2.3125,-2.3125,-2.3125,-2.3125,-2.3125,-2.3125,-2.3125,-2.3125,-2.3125,-2.3125,-2.3125,-2.3125,-2.3125,-2.3062,-2.3062,-2.3037,-2.299,-2.3002,-2.3125,-2.3125,-2.3125,-2.3125,-2.3125,-2.3125,-2.3125,-2.3125,-2.3125,-2.3125,-2.3125,-2.3125,-2.3125,-2.2975,-2.2811,-2.2937,-2.304,-2.3125,-2.3125,-2.3125,-2.3088,-2.3075,-2.2987,-2.2752,-2.2664,-2.2786,-2.2912,-1.8163,-1.7669,-1.8144,-1.9499,-2.1204,-2.1921,-2.3117,-2.4449,-2.4487,-2.4238,-2.3769,-2.333,-2.3184,-2.3144,-2.3144,-2.3144,-2.3144,-2.3144,-2.3144,-2.3144,-2.3144,-2.3144,-2.3144,-2.3144,-2.3144,-2.3144,-2.3144,-2.3144,-2.3144,-2.3125,-2.3076,-2.3047,-2.3027,-2.29,-2.2842,-2.2843,-2.296,-2.3414,-2.3565,-2.4011,-2.5087,-2.5312,-2.5758,-2.6283,-2.6408,-2.6163,-2.5724,-2.5548,-2.531,-2.4757,-2.4695,-2.4707,-2.4582,-2.4305,-2.3991,-2.3991,-2.3464,-2.3175,-2.3125,-2.3125,-2.3125,-2.3125,-2.3125,-2.3125,-2.3125,-2.3125,-2.3125,-2.3125,-2.3125,-2.3125,-2.3125,-2.3125,-2.3125,-2.3125,-2.3125,-2.3125,-2.3125,-2.3125,-2.3125,-2.3125,-2.3113,-2.31,-2.2975,-2.2862,-2.2852,-2.2865,-2.2865,-2.2865,-2.2937,-2.2924,-2.2799,-2.2723,-2.2648,-2.2736,-2.2761,-2.2799,-2.2836,-2.2811,-2.2874,-2.2786,-2.2774,-2.251,-2.2359,-2.2887,-2.3015,-2.3037,-2.2975,-2.2865,-2.2852,-2.2962,-2.2711,-2.2347,-2.2372,-2.2535,-2.2686,-1.8283,-1.8084,-1.9277,-1.968,-2.0016,-2.2221,-2.3046,-2.3146,-2.3961,-2.417,-2.376,-2.334,-2.3144,-2.3144,-2.3144,-2.3144,-2.3144,-2.3144,-2.3144,-2.3144,-2.3144,-2.3144,-2.3144,-2.3144,-2.3125,-2.3144,-2.3105,-2.3086,-2.3096,-2.3125,-2.2861,-2.2676,-2.2617,-2.249,-2.2478,-2.2767,-2.3248,-2.3919,-2.434,-2.5046,-2.5844,-2.6094,-2.6114,-2.6471,-2.6483,-2.6088,-2.5661,-2.5511,-2.5146,-2.4268,-2.4155,-2.4142,-2.4117,-2.4004,-2.3954,-2.3879,-2.3452,-2.3125,-2.3125,-2.3125,-2.3125,-2.3125,-2.3125,-2.3125,-2.3125,-2.3125,-2.3125,-2.3125,-2.3125,-2.3125,-2.3125,-2.3125,-2.3125,-2.3125,-2.3125,-2.3125,-2.3125,-2.3125,-2.3125,-2.3125,-2.3088,-2.2975,-2.2786,-2.2573,-2.2447,-2.2322,-2.2184,-2.2146,-2.2133,-2.2121,-2.2058,-2.202,-2.1995,-2.2159,-2.2309,-2.2359,-2.2385,-2.2272,-2.2221,-2.2008,-2.1933,-2.1757,-2.1882,-2.241,-2.2686,-2.2673,-2.2648,-2.2652,-2.2777,-2.2975,-2.246,-2.1845,-2.2171,-2.2472,-2.2385,-1.7856,-1.7694,-1.829,-1.8738,-1.9162,-2.0424,-2.1404,-2.183,-2.2667,-2.3044,-2.2972,-2.2986,-2.3144,-2.3144,-2.3144,-2.3144,-2.3144,-2.3144,-2.3144,-2.3144,-2.3144,-2.3144,-2.3125,-2.3125,-2.2988,-2.2871,-2.2812,-2.2803,-2.2783,-2.2559,-2.2412,-2.2266,-2.2197,-2.208,-2.1948,-2.2038,-2.305,-2.3939,-2.4465,-2.5254,-2.6327,-2.6508,-2.6327,-2.6126,-2.6269,-2.5862,-2.4996,-2.5096,-2.4632,-2.3791,-2.3552,-2.3552,-2.3565,-2.359,-2.369,-2.3816,-2.3452,-2.3125,-2.3125,-2.3125,-2.3125,-2.3125,-2.3125,-2.3125,-2.3125,-2.3125,-2.3113,-2.304,-2.3125,-2.3125,-2.3125,-2.3088,-2.3125,-2.3125,-2.3113,-2.3113,-2.3125,-2.3125,-2.3125,-2.3125,-2.3113,-2.2912,-2.2485,-2.2259,-2.2008,-2.1769,-2.1506,-2.1405,-2.1355,-2.138,-2.1405,-2.1518,-2.1568,-2.1832,-2.1933,-2.1882,-2.1895,-2.1794,-2.1594,-2.1368,-2.1267,-2.1179,-2.1455,-2.192,-2.2096,-2.2046,-2.2585,-2.2736,-2.2862,-2.2824,-2.2146,-2.1707,-2.2146,-2.2372,-2.2171,-1.7321,-1.7061,-1.7061,-1.758,-1.8203,-1.8626,-1.9241,-2.0235,-2.1188,-2.1778,-2.1944,-2.2485,-2.2862,-2.3047,-2.3144,-2.3144,-2.3144,-2.3144,-2.3144,-2.3144,-2.3135,-2.3115,-2.3018,-2.2969,-2.2783,-2.2402,-2.2217,-2.2314,-2.2334,-2.2139,-2.1894,-2.1777,-2.1758,-2.168,-2.1585,-2.16,-2.2481,-2.3167,-2.3994,-2.4767,-2.5877,-2.6163,-2.5937,-2.5511,-2.59,-2.546,-2.4544,-2.4682,-2.4381,-2.3715,-2.3389,-2.3301,-2.3163,-2.3138,-2.3351,-2.3653,-2.3376,-2.3188,-2.3125,-2.3125,-2.3125,-2.3125,-2.3125,-2.3125,-2.3125,-2.304,-2.2977,-2.284,-2.2852,-2.2799,-2.2673,-2.2749,-2.2824,-2.2924,-2.2924,-2.3,-2.31,-2.3125,-2.3125,-2.3125,-2.3125,-2.2862,-2.2435,-2.1707,-2.1405,-2.1204,-2.0953,-2.0765,-2.0727,-2.0815,-2.0891,-2.1066,-2.1242,-2.1543,-2.1581,-2.138,-2.1368,-2.1292,-2.1041,-2.0765,-2.0727,-2.0702,-2.1041,-2.1305,-2.1104,-2.1179,-2.1958,-2.2472,-2.2221,-2.192,-2.1543,-2.1531,-2.1832,-2.1769,-2.1506,-1.7021,-1.676,-1.676,-1.6686,-1.6856,-1.8018,-1.8393,-1.8247,-1.9629,-2.0758,-2.1158,-2.1516,-2.2217,-2.2862,-2.3144,-2.3144,-2.3144,-2.3144,-2.3144,-2.3144,-2.3135,-2.2959,-2.2656,-2.2588,-2.2363,-2.1992,-2.1621,-2.165,-2.1777,-2.1797,-2.1631,-2.1377,-2.1279,-2.1152,-2.1213,-2.1406,-2.198,-2.2553,-2.3963,-2.5093,-2.551,-2.5322,-2.5084,-2.4971,-2.5021,-2.4933,-2.4519,-2.4582,-2.4368,-2.3904,-2.3816,-2.3615,-2.3238,-2.3125,-2.315,-2.3213,-2.3163,-2.3125,-2.3125,-2.3125,-2.3125,-2.3125,-2.3125,-2.3125,-2.305,-2.2987,-2.2698,-2.1744,-2.2108,-2.2234,-2.197,-2.1807,-2.197,-2.2322,-2.2611,-2.2824,-2.3,-2.2899,-2.2924,-2.2874,-2.2799,-2.2661,-2.2372,-2.1518,-2.0844,-2.0655,-2.0413,-2.025,-2.0175,-2.03,-2.0514,-2.074,-2.0778,-2.1041,-2.1154,-2.0966,-2.0828,-2.0765,-2.0552,-2.0263,-2.0275,-2.0313,-2.0363,-2.0501,-2.0326,-2.0451,-2.1167,-2.1455,-2.1305,-2.123,-2.1129,-2.1242,-2.143,-2.1204,-2.0932,-1.6573,-1.6466,-1.6466,-1.6293,-1.6142,-1.6821,-1.6915,-1.7015,-1.8092,-1.8915,-1.9513,-2.0773,-2.1952,-2.296,-2.3144,-2.3144,-2.3144,-2.3144,-2.3144,-2.3144,-2.3105,-2.291,-2.2607,-2.2461,-2.2207,-2.1582,-2.1328,-2.1152,-2.123,-2.1152,-2.1006,-2.0928,-2.0938,-2.1173,-2.1165,-2.1221,-2.2094,-2.3122,-2.4267,-2.492,-2.5028,-2.4921,-2.4657,-2.4381,-2.4632,-2.4431,-2.4092,-2.4217,-2.4054,-2.3627,-2.3502,-2.3414,-2.3201,-2.3125,-2.3138,-2.3138,-2.3138,-2.3125,-2.3125,-2.3125,-2.3125,-2.3065,-2.304,-2.3,-2.2786,-2.2623,-2.2385,-2.1594,-2.1707,-2.1681,-2.1606,-2.1794,-2.202,-2.2259,-2.2309,-2.2648,-2.2765,-2.2661,-2.2598,-2.2535,-2.246,-2.2309,-2.2133,-2.1568,-2.0983,-2.0743,-2.0376,-2.0037,-1.9949,-1.9974,-2.0213,-2.0501,-2.0476,-2.0476,-2.0552,-2.0501,-2.0288,-2.0225,-2.0213,-1.9987,-1.9911,-1.9936,-2.0049,-2.0062,-2.0024,-2.0238,-2.0577,-2.0765,-2.0903,-2.0878,-2.084,-2.0966,-2.1029,-2.0577,-2.0338,-1.6166,-1.6166,-1.6166,-1.6032,-1.5832,-1.5825,-1.5832,-1.592,-1.677,-1.7419,-1.8326,-2.0232,-2.1961,-2.2872,-2.3144,-2.3144,-2.3144,-2.3144,-2.3144,-2.3144,-2.3076,-2.2812,-2.2461,-2.2266,-2.1885,-2.1074,-2.1035,-2.0898,-2.0713,-2.0625,-2.0654,-2.0576,-2.0635,-2.1108,-2.1603,-2.1628,-2.2073,-2.3851,-2.4038,-2.427,-2.4505,-2.4418,-2.413,-2.4017,-2.4042,-2.3991,-2.329,-2.3514,-2.3489,-2.3288,-2.3188,-2.3188,-2.3125,-2.3125,-2.3125,-2.3125,-2.3125,-2.3125,-2.3125,-2.3125,-2.3125,-2.3027,-2.2877,-2.2711,-2.2422,-2.2234,-2.187,-2.1255,-2.1255,-2.1204,-2.1167,-2.1368,-2.1481,-2.1694,-2.2046,-2.2422,-2.2589,-2.2322,-2.2108,-2.2058,-2.1983,-2.192,-2.1732,-2.1481,-2.1129,-2.084,-2.0413,-1.9899,-1.9798,-1.9798,-1.9949,-2.0225,-2.0188,-2.0125,-2.0137,-2.0087,-1.9861,-1.9798,-1.9798,-1.9798,-1.9798,-1.9798,-1.9874,-1.9836,-1.9798,-1.9911,-2.02,-2.0376,-2.0526,-2.0426,-2.0388,-2.0589,-2.0539,-2.01,-1.9911,-1.5858,-1.5858,-1.5865,-1.5858,-1.5825,-1.5825,-1.5825,-1.5825,-1.592,-1.6669,-1.7956,-2.0124,-2.1765,-2.2775,-2.3047,-2.3144,-2.3144,-2.3144,-2.3144,-2.3144,-2.3076,-2.2676,-2.2266,-2.1904,-2.1553,-2.0801,-2.0713,-2.0664,-2.0576,-2.0576,-2.0576,-2.0576,-2.0644,-2.1231,-2.1899,-2.2306,-2.2655,-2.3753,-2.3484,-2.3462,-2.3704,-2.3678,-2.3351,-2.3301,-2.3263,-2.3188,-2.3125,-2.319,-2.3215,-2.3125,-2.3125,-2.3125,-2.3125,-2.3125,-2.3125,-2.3125,-2.3125,-2.3125,-2.3125,-2.3125,-2.3113,-2.2915,-2.2673,-2.2297,-2.202,-2.1732,-2.1305,-2.084,-2.0815,-2.0564,-2.0263,-2.0062,-2.0828,-2.1054,-2.1493,-2.1732,-2.187,-2.1732,-2.1556,-2.1543,-2.1506,-2.1443,-2.138,-2.1142,-2.1117,-2.0894,-2.0313,-1.9798,-1.9798,-1.9798,-1.9798,-1.9911,-1.9899,-1.9861,-1.9861,-1.9798,-1.9798,-1.9798,-1.9798,-1.9798,-1.9798,-1.9798,-1.9798,-1.9798,-1.9798,-1.9798,-1.9811,-2.0037,-2.0125,-1.9949,-1.9962,-2.02,-2.025,-1.9962,-1.9836,-1.5825,-1.5825,-1.5825,-1.5825,-1.5825,-1.5825,-1.5825,-1.5825,-1.5825,-1.648,-1.7777,-1.9497,-2.0845,-2.1943,-2.2862,-2.3144,-2.3144,-2.3144,-2.3135,-2.3144,-2.3047,-2.2627,-2.2158,-2.1758,-2.1435,-2.0742,-2.0576,-2.0576,-2.0576,-2.0722,-2.1078,-2.1155,-2.1011,-2.1745,-2.2467,-2.3285,-2.3696,-2.3352,-2.318,-2.3158,-2.3218,-2.3314,-2.3125,-2.3125,-2.3125,-2.3125,-2.3125,-2.3125,-2.3125,-2.3125,-2.3125,-2.3113,-2.304,-2.304,-2.3113,-2.31,-2.304,-2.3125,-2.3125,-2.3088,-2.2987,-2.2548,-2.2133,-2.1719,-2.1518,-2.1104,-2.0702,-2.0439,-2.0517,-2.0326,-1.9974,-2.0413,-2.1041,-2.0865,-2.0891,-2.1104,-2.1142,-2.1054,-2.0991,-2.0978,-2.0978,-2.1008,-2.0945,-2.0815,-2.0907,-2.0869,-2.025,-1.9798,-1.9798,-1.9798,-1.9798,-1.9798,-1.9798,-1.9798,-1.9798,-1.9798,-1.9798,-1.9798,-1.9798,-1.9798,-1.9798,-1.9798,-1.9798,-1.9798,-1.9798,-1.9798,-1.9798,-1.9798,-1.9798,-1.9811,-1.9811,-1.9861,-1.9836,-1.9798,-1.9798,-1.5825,-1.5825,-1.5825,-1.5825,-1.5825,-1.5825,-1.5825,-1.5825,-1.5825,-1.648,-1.777,-1.8867,-2.0121,-2.1355,-2.2492,-2.293,-2.3008,-2.3037,-2.3027,-2.3027,-2.2959,-2.2598,-2.2148,-2.1758,-2.1435,-2.0762,-2.0644,-2.0644,-2.1078,-2.1001,-2.1669,-2.2038,-2.1962,-2.2713,-2.3663,-2.437,-2.4344,-2.368,-2.3206,-2.309,-2.315,-2.3138,-2.3125,-2.3125,-2.3125,-2.3125,-2.3125,-2.3125,-2.3125,-2.3125,-2.3113,-2.2977,-2.2952,-2.294,-2.3025,-2.294,-2.2977,-2.3113,-2.3113,-2.2912,-2.2736,-2.2385,-2.1619,-2.1217,-2.0941,-2.0652,-2.0238,-2.0275,-2.0351,-2.0263,-1.9849,-2.0326,-2.0564,-2.0351,-2.0439,-2.0614,-2.0589,-2.0526,-2.0451,-2.0401,-2.0401,-2.0467,-2.0401,-2.0351,-2.0388,-2.0413,-2.0137,-1.9798,-1.9798,-1.9798,-1.9798,-1.9798,-1.9798,-1.9798,-1.9798,-1.9798,-1.9798,-1.9798,-1.9798,-1.9798,-1.9798,-1.9798,-1.9798,-1.9798,-1.9798,-1.9798,-1.9798,-1.9798,-1.9798,-1.9798,-1.9798,-1.9798,-1.9798,-1.9798,-1.9798,-1.5825,-1.5825,-1.5825,-1.5825,-1.5825,-1.5825,-1.5818,-1.5772,-1.5758,-1.6418,-1.7487,-1.8595,-1.9749,-2.113,-2.2205,-2.2687,-2.2637,-2.2842,-2.2881,-2.2725,-2.2871,-2.2549,-2.2158,-2.1777,-2.1435,-2.0771,-2.0644,-2.1011,-2.1811,-2.1735,-2.2403,-2.3294,-2.3514,-2.3818,-2.4838,-2.4829,-2.453,-2.3979,-2.3441,-2.3215,-2.3125,-2.3125,-2.3125,-2.3125,-2.3125,-2.3125,-2.3125,-2.3125,-2.3088,-2.2975,-2.2987,-2.2774,-2.2397,-2.2664,-2.2723,-2.2485,-2.2862,-2.305,-2.3027,-2.2552,-2.2347,-2.2221,-2.1543,-2.1054,-2.1079,-2.0665,-2.0087,-2.0238,-2.0238,-1.9999,-1.9861,-1.9924,-2.0049,-2.0024,-2.0125,-2.015,-2.015,-2.0137,-2.01,-2.0087,-1.9949,-1.9849,-1.9849,-1.9861,-1.9886,-1.9886,-1.9836,-1.9798,-1.9798,-1.9798,-1.9798,-1.9798,-1.9798,-1.9798,-1.9798,-1.9798,-1.9798,-1.9798,-1.9798,-1.9798,-1.9798,-1.9798,-1.9798,-1.9798,-1.9798,-1.9798,-1.9798,-1.9798,-1.9798,-1.9798,-1.9798,-1.9798,-1.9798,-1.9798,-1.9798,-1.5825,-1.5825,-1.5825,-1.5825,-1.5825,-1.5825,-1.5725,-1.5524,-1.5364,-1.5633,-1.6451,-1.7888,-1.8812,-1.9809,-2.1371,-2.2275,-2.2197,-2.2168,-2.2217,-2.2549,-2.2666,-2.2363,-2.2012,-2.1738,-2.1387,-2.0791,-2.0644,-2.1078,-2.1962,-2.2113,-2.3147,-2.412,-2.4862,-2.5217,-2.5202,-2.5111,-2.5084,-2.4556,-2.4017,-2.3552,-2.3188,-2.3125,-2.3125,-2.3125,-2.3125,-2.3125,-2.3125,-2.3125,-2.2987,-2.2723,-2.2673,-2.2359,-2.1895,-2.2096,-2.2146,-2.2184,-2.256,-2.2573,-2.246,-2.2133,-2.1983,-2.1907,-2.1687,-2.1163,-2.0957,-2.0677,-2.0376,-2.0368,-2.0524,-2.0308,-1.9924,-2.0303,-2.0378,-1.9936,-1.9911,-1.9911,-1.9899,-1.9886,-1.9874,-1.9886,-1.9798,-1.9798,-1.9798,-1.9798,-1.9798,-1.9798,-1.9798,-1.9798,-1.9798,-1.9798,-1.9798,-1.9798,-1.9798,-1.9798,-1.9798,-1.9798,-1.9798,-1.9798,-1.9798,-1.9798,-1.9798,-1.9798,-1.9798,-1.9798,-1.9798,-1.9798,-1.9798,-1.9798,-1.9798,-1.9798,-1.9798,-1.9798,-1.9798,-1.9798,-1.9798,-1.5825,-1.5825,-1.5825,-1.5825,-1.5812,-1.5725,-1.5518,-1.5224,-1.495,-1.5143,-1.6095,-1.762,-1.8573,-1.9425,-2.0848,-2.1894,-2.1894,-2.1904,-2.1943,-2.2285,-2.2295,-2.2002,-2.1768,-2.1631,-2.1201,-2.0732,-2.0722,-2.1155,-2.2553,-2.2553,-2.3661,-2.5169,-2.5896,-2.561,-2.5369,-2.5244,-2.4845,-2.423,-2.3627,-2.3439,-2.3213,-2.3125,-2.3125,-2.3125,-2.3125,-2.3125,-2.3125,-2.3037,-2.2874,-2.2472,-2.2209,-2.192,-2.1481,-2.1418,-2.1531,-2.1732,-2.1945,-2.2071,-2.2159,-2.2145,-2.2214,-2.2629,-2.1984,-2.1427,-2.1225,-2.1341,-2.1288,-2.1236,-2.1173,-2.1056,-2.0849,-2.1199,-2.0784,-2.0383,-2.0245,-2.0232,-2.0144,-2.0144,-1.994,-1.994,-1.9901,-1.985,-1.9798,-1.9798,-1.9798,-1.9798,-1.9798,-1.9798,-1.985,-1.9798,-1.9798,-1.9798,-1.9798,-1.9798,-1.9798,-1.9798,-1.9798,-1.9798,-1.9798,-1.9798,-1.9798,-1.9798,-1.9798,-1.9798,-1.9798,-1.9798,-1.9798,-1.9798,-1.9798,-1.9798,-1.9798,-1.9798,-1.9798,-1.9798,-1.9798,-1.5825,-1.5825,-1.5812,-1.5812,-1.5778,-1.5518,-1.5224,-1.5033,-1.473,-1.535,-1.6638,-1.7596,-1.8656,-1.9892,-2.1263,-2.1738,-2.1699,-2.1719,-2.1787,-2.1836,-2.1865,-2.1582,-2.1426,-2.1289,-2.1016,-2.0742,-2.0789,-2.1527,-2.322,-2.3806,-2.4909,-2.5758,-2.5845,-2.5528,-2.5228,-2.4816,-2.433,-2.3816,-2.3577,-2.3376,-2.3188,-2.3125,-2.305,-2.3037,-2.299,-2.305,-2.3012,-2.2877,-2.2673,-2.2385,-2.2146,-2.1518,-2.1179,-2.1167,-2.1046,-2.1113,-2.1365,-2.1812,-2.2252,-2.2322,-2.2564,-2.2831,-2.2379,-2.1924,-2.1912,-2.2165,-2.197,-2.1966,-2.1966,-2.221,-2.2377,-2.1923,-2.152,-2.1232,-2.1015,-2.0868,-2.0733,-2.0534,-2.0232,-2.008,-2.0042,-1.994,-1.985,-1.9798,-1.9798,-1.9798,-1.985,-2.0003,-1.9952,-1.985,-1.9798,-1.9798,-1.9798,-1.9798,-1.9798,-1.985,-1.9798,-1.9798,-1.9798,-1.9798,-1.9798,-1.9798,-1.9798,-1.9798,-1.9798,-1.9798,-1.9798,-1.9798,-1.9798,-1.9798,-1.9798,-1.9798,-1.9798,-1.9798,-1.9798,-1.5825,-1.5805,-1.5611,-1.5638,-1.5738,-1.5291,-1.5037,-1.4993,-1.5197,-1.5779,-1.6309,-1.7977,-1.885,-1.938,-2.0442,-2.0887,-2.0986,-2.0996,-2.1182,-2.1299,-2.1445,-2.1348,-2.126,-2.1162,-2.0937,-2.0713,-2.0867,-2.1603,-2.343,-2.4529,-2.5277,-2.5757,-2.5573,-2.5172,-2.4695,-2.4305,-2.3954,-2.3715,-2.354,-2.3401,-2.3201,-2.3125,-2.2949,-2.2714,-2.2877,-2.2874,-2.2623,-2.256,-2.2246,-2.1832,-2.1355,-2.074,-2.0213,-2.0225,-2.0318,-2.1342,-2.1563,-2.1852,-2.235,-2.2566,-2.2725,-2.2998,-2.2853,-2.3073,-2.2984,-2.2817,-2.263,-2.2616,-2.2552,-2.2656,-2.2662,-2.232,-2.2067,-2.1899,-2.1677,-2.1486,-2.1342,-2.1148,-2.0855,-2.0756,-2.0657,-2.0194,-2.0055,-1.9798,-1.9798,-1.9798,-1.9901,-2.0093,-2.0194,-2.0055,-2.0131,-2.0131,-2.0131,-2.0232,-1.994,-1.9888,-1.985,-1.9798,-1.9798,-1.9798,-1.9798,-1.9798,-1.9798,-1.9798,-1.9798,-1.9798,-1.9798,-1.9798,-1.9798,-1.9798,-1.9798,-1.9798,-1.9798,-1.9798,-1.9798,-1.5558,-1.5611,-1.5344,-1.5264,-1.5237,-1.4943,-1.473,-1.4737,-1.4972,-1.5587,-1.6703,-1.7759,-1.8789,-1.9715,-2.0381,-2.0713,-2.0889,-2.0752,-2.0859,-2.1172,-2.1064,-2.0977,-2.0967,-2.0957,-2.0801,-2.0635,-2.0867,-2.1593,-2.3447,-2.4999,-2.5875,-2.5624,-2.5297,-2.4632,-2.4142,-2.3816,-2.3514,-2.3414,-2.3389,-2.3389,-2.3238,-2.3062,-2.2786,-2.2447,-2.2686,-2.2447,-2.2083,-2.2008,-2.1707,-2.1267,-2.0806,-2.0401,-1.9936,-1.9836,-2.0386,-2.1238,-2.13,-2.1803,-2.2365,-2.2637,-2.2791,-2.308,-2.3383,-2.3641,-2.3755,-2.3698,-2.3454,-2.3299,-2.3091,-2.2944,-2.2815,-2.264,-2.2601,-2.25,-2.2271,-2.21,-2.1946,-2.1805,-2.1663,-2.1554,-2.1197,-2.0696,-2.0308,-2.0003,-1.985,-1.9901,-2.0093,-2.0446,-2.0497,-2.0446,-2.067,-2.0841,-2.0805,-2.0756,-2.0471,-2.0232,-2.0194,-2.0105,-1.9901,-1.985,-1.985,-1.9798,-1.9798,-1.9798,-1.9798,-1.9798,-1.9798,-1.9798,-1.9798,-1.9798,-1.9798,-1.9798,-1.9798,-1.9798,-1.9798,-1.5124,-1.5344,-1.507,-1.481,-1.4516,-1.4522,-1.4382,-1.4186,-1.4341,-1.5401,-1.7033,-1.7585,-1.8868,-2.0157,-2.0576,-2.0752,-2.082,-2.0703,-2.0713,-2.1152,-2.083,-2.0674,-2.0644,-2.0615,-2.0731,-2.0644,-2.0864,-2.1398,-2.3268,-2.4783,-2.5649,-2.5448,-2.4619,-2.4017,-2.3791,-2.3452,-2.3113,-2.2761,-2.2874,-2.2949,-2.2899,-2.2862,-2.2761,-2.2221,-2.2121,-2.2008,-2.1606,-2.138,-2.1242,-2.0932,-2.0655,-2.0429,-1.9999,-2.0016,-2.0682,-2.1205,-2.1421,-2.1993,-2.2572,-2.2901,-2.3172,-2.3403,-2.3674,-2.3822,-2.3924,-2.3981,-2.3731,-2.3672,-2.3465,-2.3465,-2.3377,-2.323,-2.3113,-2.3024,-2.2891,-2.2756,-2.2665,-2.2423,-2.2132,-2.1946,-2.1424,-2.093,-2.0308,-1.9952,-1.9798,-1.994,-2.0093,-2.0446,-2.093,-2.093,-2.1113,-2.1411,-2.089,-2.0805,-2.1135,-2.0917,-2.0696,-2.051,-2.0194,-1.9901,-1.985,-1.9798,-1.9798,-1.9798,-1.9798,-1.9798,-1.9798,-1.9798,-1.9798,-1.9798,-1.9798,-1.9798,-1.9798,-1.9798,-1.9798,-1.5003,-1.5064,-1.499,-1.4669,-1.4255,-1.4429,-1.4349,-1.4179,-1.497,-1.6108,-1.7415,-1.8939,-1.9913,-2.0489,-2.0576,-2.0693,-2.0674,-2.0684,-2.0644,-2.0732,-2.0596,-2.0576,-2.0478,-2.037,-2.0631,-2.0991,-2.111,-2.1185,-2.2958,-2.4466,-2.5121,-2.4481,-2.3954,-2.3791,-2.3439,-2.3138,-2.2874,-2.2284,-2.2347,-2.2234,-2.1907,-2.1807,-2.1644,-2.1418,-2.1317,-2.1355,-2.1154,-2.1217,-2.1041,-2.0832,-2.0743,-2.0351,-1.9849,-2.0308,-2.0885,-2.1526,-2.1991,-2.2516,-2.2944,-2.323,-2.3422,-2.3496,-2.3642,-2.3701,-2.3789,-2.3834,-2.3864,-2.3879,-2.3894,-2.3894,-2.3864,-2.3714,-2.3595,-2.3508,-2.345,-2.3363,-2.3334,-2.2995,-2.2665,-2.2193,-2.171,-2.1051,-2.0383,-2.0003,-1.985,-1.9798,-1.9862,-2.0245,-2.1197,-2.1534,-2.1629,-2.1663,-2.0607,-2.057,-2.128,-2.1534,-2.1272,-2.0944,-2.0597,-2.0245,-1.9901,-1.9798,-1.9798,-1.9798,-1.9798,-1.9798,-1.9798,-1.9798,-1.9798,-1.9798,-1.9798,-1.9798,-1.9798,-1.9798,-1.9798,-1.4649,-1.4756,-1.4763,-1.4509,-1.4168,-1.4262,-1.4409,-1.4752,-1.5883,-1.692,-1.7783,-1.9173,-2.0157,-2.0489,-2.0576,-2.0566,-2.0566,-2.0576,-2.0586,-2.0576,-2.0576,-2.0576,-2.0391,-2.0183,-2.0293,-2.0728,-2.1162,-2.1718,-2.2971,-2.3929,-2.4418,-2.3979,-2.3803,-2.3477,-2.3065,-2.3075,-2.2711,-2.1983,-2.1958,-2.1531,-2.1029,-2.1079,-2.1154,-2.1046,-2.0894,-2.079,-2.0552,-2.0602,-2.0489,-2.0351,-2.0263,-2.0475,-2.0309,-2.061,-2.1272,-2.1941,-2.2498,-2.2965,-2.3377,-2.3595,-2.3595,-2.3595,-2.3595,-2.367,-2.367,-2.3714,-2.3714,-2.3714,-2.3714,-2.3729,-2.3729,-2.361,-2.3595,-2.3551,-2.3551,-2.3508,-2.3465,-2.3363,-2.3128,-2.298,-2.2317,-2.1472,-2.0805,-2.0093,-2.0093,-2.0434,-2.0396,-2.0818,-2.1629,-2.2053,-2.2193,-2.2179,-2.1376,-2.1411,-2.2409,-2.2331,-2.1785,-2.1417,-2.1028,-2.0446,-2.0003,-1.985,-1.9798,-1.9798,-1.9798,-1.9798,-1.9798,-1.9798,-1.9798,-1.9798,-1.9798,-1.9798,-1.9798,-1.9798,-1.9798,-1.4255,-1.4449,-1.4469,-1.4322,-1.4193,-1.425,-1.458,-1.5315,-1.6718,-1.7689,-1.819,-1.8779,-1.9615,-2.0313,-2.0488,-2.0518,-2.0547,-2.0566,-2.0576,-2.0576,-2.0576,-2.0469,-2.034,-2.019,-2.0347,-2.101,-2.1778,-2.2284,-2.305,-2.3833,-2.4117,-2.3841,-2.3489,-2.304,-2.3002,-2.284,-2.2498,-2.1669,-2.1242,-2.0803,-2.0677,-2.0702,-2.0727,-2.0706,-2.0567,-2.0288,-1.9962,-1.9899,-1.9911,-1.9952,-2.0105,-2.0448,-2.0871,-2.1175,-2.1752,-2.2406,-2.2815,-2.3187,-2.3465,-2.3595,-2.3595,-2.3595,-2.3595,-2.3595,-2.3595,-2.3595,-2.3595,-2.3595,-2.3595,-2.3595,-2.3595,-2.3595,-2.3595,-2.3595,-2.3595,-2.3595,-2.3595,-2.3551,-2.3508,-2.3406,-2.2591,-2.1744,-2.1135,-2.0421,-2.0471,-2.0868,-2.1342,-2.196,-2.2392,-2.2483,-2.2575,-2.2846,-2.2696,-2.3024,-2.345,-2.2905,-2.2221,-2.188,-2.1452,-2.0733,-2.0093,-1.9901,-1.9798,-1.9798,-1.9798,-1.9798,-1.9798,-1.9798,-1.9798,-1.9798,-1.9798,-1.9798,-1.9798,-1.9798,-1.9798,-1.4115,-1.4168,-1.4168,-1.4135,-1.4243,-1.497,-1.5278,-1.5496,-1.724,-1.8024,-1.8143,-1.89,-1.9769,-2.0605,-2.0166,-2.0166,-2.0459,-2.0527,-2.0576,-2.0576,-2.0488,-2.0303,-2.0161,-2.0229,-2.0652,-2.1459,-2.2523,-2.3344,-2.3168,-2.3603,-2.374,-2.329,-2.3276,-2.2899,-2.251,-2.2322,-2.1995,-2.1242,-2.084,-2.0526,-2.0087,-2.0062,-2.0024,-1.9987,-1.9949,-1.9899,-1.9911,-2.0275,-2.015,-2.0117,-2.0308,-2.0818,-2.1342,-2.1833,-2.2374,-2.274,-2.3113,-2.3334,-2.3551,-2.3595,-2.3595,-2.3595,-2.3595,-2.3595,-2.3595,-2.3595,-2.3595,-2.3595,-2.3595,-2.3595,-2.3595,-2.3595,-2.3595,-2.3595,-2.3595,-2.3595,-2.3595,-2.345,-2.3363,-2.2831,-2.2118,-2.1568,-2.121,-2.0868,-2.0917,-2.1293,-2.1629,-2.2193,-2.274,-2.283,-2.2965,-2.3231,-2.3551,-2.3595,-2.3551,-2.3143,-2.2603,-2.23,-2.1771,-2.0769,-2.0093,-1.9901,-1.9798,-1.9798,-1.9798,-1.9798,-1.9798,-1.9798,-1.9798,-1.9798,-1.9798,-1.9798,-1.9798,-1.9798,-1.9798]}]]